<?xml version="1.0" encoding="UTF-8" standalone="no" ?>
<gpx xmlns="http://www.topografix.com/GPX/1/1" xmlns:xsi="http://www.w3.org/2001/XMLSchema-instance" xsi:schemaLocation="http://www.topografix.com/GPX/1/1 http://www.topografix.com/GPX/1/1/gpx.xsd" version="1.1" creator="VisuGPX - https://www.visugpx.com">
  <metadata>
    <name>Environs de Néronde</name>
    <desc><![CDATA[Un tour complet du village de Néronde et une petite visite à l'aire d'autoroute.]]></desc>
  </metadata>
  <trk>
    <name><![CDATA[20190408193744-RSeHF]]></name>
    <trkseg>
      <trkpt lat="45.83865" lon="4.23666">
        <ele>530.82</ele>
        <time>2019-04-08T12:04:41Z</time>
      </trkpt>
      <trkpt lat="45.83865" lon="4.23666">
        <ele>530.852</ele>
        <time>2019-04-08T12:04:46Z</time>
      </trkpt>
      <trkpt lat="45.83865" lon="4.23666">
        <ele>530.943</ele>
        <time>2019-04-08T12:04:52Z</time>
      </trkpt>
      <trkpt lat="45.83865" lon="4.23666">
        <ele>531.445</ele>
        <time>2019-04-08T12:04:58Z</time>
      </trkpt>
      <trkpt lat="45.83865" lon="4.23666">
        <ele>531.949</ele>
        <time>2019-04-08T12:05:03Z</time>
      </trkpt>
      <trkpt lat="45.83865" lon="4.23666">
        <ele>532.377</ele>
        <time>2019-04-08T12:05:09Z</time>
      </trkpt>
      <trkpt lat="45.83857" lon="4.23645">
        <ele>532.587</ele>
        <time>2019-04-08T12:05:14Z</time>
      </trkpt>
      <trkpt lat="45.83852" lon="4.23637">
        <ele>532.523</ele>
        <time>2019-04-08T12:05:19Z</time>
      </trkpt>
      <trkpt lat="45.83852" lon="4.23637">
        <ele>532.014</ele>
        <time>2019-04-08T12:05:25Z</time>
      </trkpt>
      <trkpt lat="45.83852" lon="4.23637">
        <ele>531.642</ele>
        <time>2019-04-08T12:05:31Z</time>
      </trkpt>
      <trkpt lat="45.83834" lon="4.23639">
        <ele>531.463</ele>
        <time>2019-04-08T12:05:37Z</time>
      </trkpt>
      <trkpt lat="45.83832" lon="4.23645">
        <ele>531.654</ele>
        <time>2019-04-08T12:05:42Z</time>
      </trkpt>
      <trkpt lat="45.83828" lon="4.23645">
        <ele>531.393</ele>
        <time>2019-04-08T12:05:48Z</time>
      </trkpt>
      <trkpt lat="45.83825" lon="4.23643">
        <ele>530.239</ele>
        <time>2019-04-08T12:05:54Z</time>
      </trkpt>
      <trkpt lat="45.83826" lon="4.23638">
        <ele>528.991</ele>
        <time>2019-04-08T12:06:00Z</time>
      </trkpt>
      <trkpt lat="45.83832" lon="4.2363">
        <ele>527.843</ele>
        <time>2019-04-08T12:06:06Z</time>
      </trkpt>
      <trkpt lat="45.83832" lon="4.23626">
        <ele>526.792</ele>
        <time>2019-04-08T12:06:12Z</time>
      </trkpt>
      <trkpt lat="45.83832" lon="4.23618">
        <ele>525.244</ele>
        <time>2019-04-08T12:06:18Z</time>
      </trkpt>
      <trkpt lat="45.8383" lon="4.23615">
        <ele>523.739</ele>
        <time>2019-04-08T12:06:24Z</time>
      </trkpt>
      <trkpt lat="45.83827" lon="4.23617">
        <ele>522.184</ele>
        <time>2019-04-08T12:06:29Z</time>
      </trkpt>
      <trkpt lat="45.83821" lon="4.23617">
        <ele>520.487</ele>
        <time>2019-04-08T12:06:35Z</time>
      </trkpt>
      <trkpt lat="45.83813" lon="4.23613">
        <ele>520.033</ele>
        <time>2019-04-08T12:06:41Z</time>
      </trkpt>
      <trkpt lat="45.83806" lon="4.23607">
        <ele>519.512</ele>
        <time>2019-04-08T12:06:47Z</time>
      </trkpt>
      <trkpt lat="45.838" lon="4.23601">
        <ele>519.253</ele>
        <time>2019-04-08T12:06:52Z</time>
      </trkpt>
      <trkpt lat="45.83797" lon="4.23594">
        <ele>519.277</ele>
        <time>2019-04-08T12:06:58Z</time>
      </trkpt>
      <trkpt lat="45.83797" lon="4.2359">
        <ele>519.199</ele>
        <time>2019-04-08T12:07:04Z</time>
      </trkpt>
      <trkpt lat="45.83799" lon="4.23578">
        <ele>518.574</ele>
        <time>2019-04-08T12:07:10Z</time>
      </trkpt>
      <trkpt lat="45.838" lon="4.2357">
        <ele>517.848</ele>
        <time>2019-04-08T12:07:16Z</time>
      </trkpt>
      <trkpt lat="45.83802" lon="4.23562">
        <ele>517.191</ele>
        <time>2019-04-08T12:07:21Z</time>
      </trkpt>
      <trkpt lat="45.83803" lon="4.23551">
        <ele>516.914</ele>
        <time>2019-04-08T12:07:27Z</time>
      </trkpt>
      <trkpt lat="45.83803" lon="4.23545">
        <ele>516.221</ele>
        <time>2019-04-08T12:07:32Z</time>
      </trkpt>
      <trkpt lat="45.83805" lon="4.23538">
        <ele>515.855</ele>
        <time>2019-04-08T12:07:38Z</time>
      </trkpt>
      <trkpt lat="45.83807" lon="4.2353">
        <ele>515.472</ele>
        <time>2019-04-08T12:07:44Z</time>
      </trkpt>
      <trkpt lat="45.8381" lon="4.23525">
        <ele>515.409</ele>
        <time>2019-04-08T12:07:49Z</time>
      </trkpt>
      <trkpt lat="45.83811" lon="4.2352">
        <ele>515.813</ele>
        <time>2019-04-08T12:07:55Z</time>
      </trkpt>
      <trkpt lat="45.83812" lon="4.23514">
        <ele>516.15</ele>
        <time>2019-04-08T12:08:00Z</time>
      </trkpt>
      <trkpt lat="45.83816" lon="4.23504">
        <ele>516.887</ele>
        <time>2019-04-08T12:08:06Z</time>
      </trkpt>
      <trkpt lat="45.83817" lon="4.23497">
        <ele>517.441</ele>
        <time>2019-04-08T12:08:11Z</time>
      </trkpt>
      <trkpt lat="45.8382" lon="4.23489">
        <ele>517.73</ele>
        <time>2019-04-08T12:08:17Z</time>
      </trkpt>
      <trkpt lat="45.8382" lon="4.23483">
        <ele>518.015</ele>
        <time>2019-04-08T12:08:22Z</time>
      </trkpt>
      <trkpt lat="45.8382" lon="4.23476">
        <ele>518.203</ele>
        <time>2019-04-08T12:08:28Z</time>
      </trkpt>
      <trkpt lat="45.83821" lon="4.2347">
        <ele>518.279</ele>
        <time>2019-04-08T12:08:33Z</time>
      </trkpt>
      <trkpt lat="45.83821" lon="4.23463">
        <ele>518.464</ele>
        <time>2019-04-08T12:08:39Z</time>
      </trkpt>
      <trkpt lat="45.83821" lon="4.23454">
        <ele>518.486</ele>
        <time>2019-04-08T12:08:45Z</time>
      </trkpt>
      <trkpt lat="45.83822" lon="4.23448">
        <ele>517.91</ele>
        <time>2019-04-08T12:08:51Z</time>
      </trkpt>
      <trkpt lat="45.83823" lon="4.23443">
        <ele>518.158</ele>
        <time>2019-04-08T12:08:56Z</time>
      </trkpt>
      <trkpt lat="45.83832" lon="4.23435">
        <ele>518.566</ele>
        <time>2019-04-08T12:09:02Z</time>
      </trkpt>
      <trkpt lat="45.83833" lon="4.2343">
        <ele>518.601</ele>
        <time>2019-04-08T12:09:07Z</time>
      </trkpt>
      <trkpt lat="45.83837" lon="4.23422">
        <ele>519.23</ele>
        <time>2019-04-08T12:09:12Z</time>
      </trkpt>
      <trkpt lat="45.83839" lon="4.23414">
        <ele>520.13</ele>
        <time>2019-04-08T12:09:18Z</time>
      </trkpt>
      <trkpt lat="45.83843" lon="4.23407">
        <ele>520.733</ele>
        <time>2019-04-08T12:09:24Z</time>
      </trkpt>
      <trkpt lat="45.83847" lon="4.234">
        <ele>521.405</ele>
        <time>2019-04-08T12:09:30Z</time>
      </trkpt>
      <trkpt lat="45.83848" lon="4.23395">
        <ele>522.191</ele>
        <time>2019-04-08T12:09:36Z</time>
      </trkpt>
      <trkpt lat="45.8385" lon="4.23392">
        <ele>522.588</ele>
        <time>2019-04-08T12:09:41Z</time>
      </trkpt>
      <trkpt lat="45.83855" lon="4.23388">
        <ele>523.151</ele>
        <time>2019-04-08T12:09:46Z</time>
      </trkpt>
      <trkpt lat="45.83858" lon="4.23383">
        <ele>523.639</ele>
        <time>2019-04-08T12:09:52Z</time>
      </trkpt>
      <trkpt lat="45.83862" lon="4.23373">
        <ele>523.865</ele>
        <time>2019-04-08T12:09:58Z</time>
      </trkpt>
      <trkpt lat="45.83865" lon="4.23366">
        <ele>524.317</ele>
        <time>2019-04-08T12:10:04Z</time>
      </trkpt>
      <trkpt lat="45.83866" lon="4.23359">
        <ele>524.926</ele>
        <time>2019-04-08T12:10:09Z</time>
      </trkpt>
      <trkpt lat="45.83868" lon="4.23351">
        <ele>525.413</ele>
        <time>2019-04-08T12:10:14Z</time>
      </trkpt>
      <trkpt lat="45.83869" lon="4.23346">
        <ele>525.665</ele>
        <time>2019-04-08T12:10:19Z</time>
      </trkpt>
      <trkpt lat="45.83872" lon="4.2334">
        <ele>525.998</ele>
        <time>2019-04-08T12:10:24Z</time>
      </trkpt>
      <trkpt lat="45.83875" lon="4.23332">
        <ele>526.743</ele>
        <time>2019-04-08T12:10:30Z</time>
      </trkpt>
      <trkpt lat="45.83876" lon="4.23323">
        <ele>527.42</ele>
        <time>2019-04-08T12:10:36Z</time>
      </trkpt>
      <trkpt lat="45.83874" lon="4.23316">
        <ele>528.026</ele>
        <time>2019-04-08T12:10:42Z</time>
      </trkpt>
      <trkpt lat="45.83871" lon="4.23311">
        <ele>528.66</ele>
        <time>2019-04-08T12:10:48Z</time>
      </trkpt>
      <trkpt lat="45.8387" lon="4.23306">
        <ele>528.996</ele>
        <time>2019-04-08T12:10:53Z</time>
      </trkpt>
      <trkpt lat="45.83868" lon="4.23296">
        <ele>529.206</ele>
        <time>2019-04-08T12:10:58Z</time>
      </trkpt>
      <trkpt lat="45.83865" lon="4.23289">
        <ele>529.986</ele>
        <time>2019-04-08T12:11:04Z</time>
      </trkpt>
      <trkpt lat="45.83863" lon="4.23282">
        <ele>530.603</ele>
        <time>2019-04-08T12:11:10Z</time>
      </trkpt>
      <trkpt lat="45.8386" lon="4.23279">
        <ele>530.853</ele>
        <time>2019-04-08T12:11:15Z</time>
      </trkpt>
      <trkpt lat="45.83855" lon="4.23282">
        <ele>531.469</ele>
        <time>2019-04-08T12:11:20Z</time>
      </trkpt>
      <trkpt lat="45.83853" lon="4.2329">
        <ele>532.743</ele>
        <time>2019-04-08T12:11:26Z</time>
      </trkpt>
      <trkpt lat="45.83849" lon="4.23301">
        <ele>533.55</ele>
        <time>2019-04-08T12:11:32Z</time>
      </trkpt>
      <trkpt lat="45.83845" lon="4.23305">
        <ele>534.038</ele>
        <time>2019-04-08T12:11:37Z</time>
      </trkpt>
      <trkpt lat="45.8384" lon="4.23313">
        <ele>534.233</ele>
        <time>2019-04-08T12:11:43Z</time>
      </trkpt>
      <trkpt lat="45.8384" lon="4.23323">
        <ele>534.624</ele>
        <time>2019-04-08T12:11:49Z</time>
      </trkpt>
      <trkpt lat="45.83838" lon="4.23328">
        <ele>534.895</ele>
        <time>2019-04-08T12:11:54Z</time>
      </trkpt>
      <trkpt lat="45.83837" lon="4.23334">
        <ele>535.524</ele>
        <time>2019-04-08T12:11:59Z</time>
      </trkpt>
      <trkpt lat="45.83832" lon="4.23345">
        <ele>535.866</ele>
        <time>2019-04-08T12:12:05Z</time>
      </trkpt>
      <trkpt lat="45.83828" lon="4.23356">
        <ele>536.394</ele>
        <time>2019-04-08T12:12:11Z</time>
      </trkpt>
      <trkpt lat="45.83826" lon="4.23362">
        <ele>536.909</ele>
        <time>2019-04-08T12:12:16Z</time>
      </trkpt>
      <trkpt lat="45.83824" lon="4.2337">
        <ele>537.07</ele>
        <time>2019-04-08T12:12:22Z</time>
      </trkpt>
      <trkpt lat="45.8382" lon="4.2338">
        <ele>537.239</ele>
        <time>2019-04-08T12:12:28Z</time>
      </trkpt>
      <trkpt lat="45.83814" lon="4.2339">
        <ele>536.944</ele>
        <time>2019-04-08T12:12:34Z</time>
      </trkpt>
      <trkpt lat="45.8381" lon="4.23398">
        <ele>536.633</ele>
        <time>2019-04-08T12:12:39Z</time>
      </trkpt>
      <trkpt lat="45.83808" lon="4.23405">
        <ele>536.294</ele>
        <time>2019-04-08T12:12:44Z</time>
      </trkpt>
      <trkpt lat="45.83803" lon="4.23411">
        <ele>536.716</ele>
        <time>2019-04-08T12:12:50Z</time>
      </trkpt>
      <trkpt lat="45.838" lon="4.23416">
        <ele>537.268</ele>
        <time>2019-04-08T12:12:55Z</time>
      </trkpt>
      <trkpt lat="45.83792" lon="4.23425">
        <ele>537.93</ele>
        <time>2019-04-08T12:13:01Z</time>
      </trkpt>
      <trkpt lat="45.8379" lon="4.23429">
        <ele>538.088</ele>
        <time>2019-04-08T12:13:06Z</time>
      </trkpt>
      <trkpt lat="45.83785" lon="4.23436">
        <ele>538.116</ele>
        <time>2019-04-08T12:13:11Z</time>
      </trkpt>
      <trkpt lat="45.83781" lon="4.23442">
        <ele>538.049</ele>
        <time>2019-04-08T12:13:17Z</time>
      </trkpt>
      <trkpt lat="45.83779" lon="4.23446">
        <ele>537.766</ele>
        <time>2019-04-08T12:13:23Z</time>
      </trkpt>
      <trkpt lat="45.83775" lon="4.23453">
        <ele>537.648</ele>
        <time>2019-04-08T12:13:29Z</time>
      </trkpt>
      <trkpt lat="45.8377" lon="4.23461">
        <ele>537.98</ele>
        <time>2019-04-08T12:13:34Z</time>
      </trkpt>
      <trkpt lat="45.83767" lon="4.23469">
        <ele>538.449</ele>
        <time>2019-04-08T12:13:40Z</time>
      </trkpt>
      <trkpt lat="45.83764" lon="4.23476">
        <ele>538.389</ele>
        <time>2019-04-08T12:13:45Z</time>
      </trkpt>
      <trkpt lat="45.83759" lon="4.23487">
        <ele>538.375</ele>
        <time>2019-04-08T12:13:51Z</time>
      </trkpt>
      <trkpt lat="45.83755" lon="4.23492">
        <ele>538.229</ele>
        <time>2019-04-08T12:13:57Z</time>
      </trkpt>
      <trkpt lat="45.83752" lon="4.23496">
        <ele>538.325</ele>
        <time>2019-04-08T12:14:02Z</time>
      </trkpt>
      <trkpt lat="45.83747" lon="4.23498">
        <ele>538.678</ele>
        <time>2019-04-08T12:14:08Z</time>
      </trkpt>
      <trkpt lat="45.83742" lon="4.23507">
        <ele>538.861</ele>
        <time>2019-04-08T12:14:14Z</time>
      </trkpt>
      <trkpt lat="45.83735" lon="4.23512">
        <ele>538.641</ele>
        <time>2019-04-08T12:14:20Z</time>
      </trkpt>
      <trkpt lat="45.8373" lon="4.23518">
        <ele>538.875</ele>
        <time>2019-04-08T12:14:26Z</time>
      </trkpt>
      <trkpt lat="45.83728" lon="4.23522">
        <ele>538.848</ele>
        <time>2019-04-08T12:14:31Z</time>
      </trkpt>
      <trkpt lat="45.83722" lon="4.23529">
        <ele>538.761</ele>
        <time>2019-04-08T12:14:37Z</time>
      </trkpt>
      <trkpt lat="45.83717" lon="4.23535">
        <ele>539.03</ele>
        <time>2019-04-08T12:14:43Z</time>
      </trkpt>
      <trkpt lat="45.83712" lon="4.2354">
        <ele>538.967</ele>
        <time>2019-04-08T12:14:49Z</time>
      </trkpt>
      <trkpt lat="45.83705" lon="4.23548">
        <ele>539.358</ele>
        <time>2019-04-08T12:14:55Z</time>
      </trkpt>
      <trkpt lat="45.837" lon="4.23551">
        <ele>539.385</ele>
        <time>2019-04-08T12:15:00Z</time>
      </trkpt>
      <trkpt lat="45.83695" lon="4.23555">
        <ele>539.133</ele>
        <time>2019-04-08T12:15:06Z</time>
      </trkpt>
      <trkpt lat="45.83694" lon="4.23556">
        <ele>539.129</ele>
        <time>2019-04-08T12:15:11Z</time>
      </trkpt>
      <trkpt lat="45.83694" lon="4.23556">
        <ele>539.031</ele>
        <time>2019-04-08T12:15:17Z</time>
      </trkpt>
      <trkpt lat="45.83695" lon="4.23556">
        <ele>539.049</ele>
        <time>2019-04-08T12:15:22Z</time>
      </trkpt>
      <trkpt lat="45.83695" lon="4.23558">
        <ele>539.22</ele>
        <time>2019-04-08T12:15:27Z</time>
      </trkpt>
      <trkpt lat="45.83695" lon="4.23558">
        <ele>539.34</ele>
        <time>2019-04-08T12:15:32Z</time>
      </trkpt>
      <trkpt lat="45.83695" lon="4.23558">
        <ele>539.617</ele>
        <time>2019-04-08T12:15:38Z</time>
      </trkpt>
      <trkpt lat="45.83696" lon="4.23557">
        <ele>539.526</ele>
        <time>2019-04-08T12:15:44Z</time>
      </trkpt>
      <trkpt lat="45.83696" lon="4.23557">
        <ele>539.524</ele>
        <time>2019-04-08T12:15:50Z</time>
      </trkpt>
      <trkpt lat="45.83696" lon="4.23557">
        <ele>539.623</ele>
        <time>2019-04-08T12:15:55Z</time>
      </trkpt>
      <trkpt lat="45.83697" lon="4.23557">
        <ele>539.779</ele>
        <time>2019-04-08T12:16:01Z</time>
      </trkpt>
      <trkpt lat="45.83697" lon="4.23557">
        <ele>539.99</ele>
        <time>2019-04-08T12:16:06Z</time>
      </trkpt>
      <trkpt lat="45.83698" lon="4.23559">
        <ele>540.507</ele>
        <time>2019-04-08T12:16:12Z</time>
      </trkpt>
      <trkpt lat="45.83697" lon="4.2356">
        <ele>540.596</ele>
        <time>2019-04-08T12:16:18Z</time>
      </trkpt>
      <trkpt lat="45.83697" lon="4.23563">
        <ele>541.316</ele>
        <time>2019-04-08T12:16:24Z</time>
      </trkpt>
      <trkpt lat="45.83697" lon="4.23562">
        <ele>541.58</ele>
        <time>2019-04-08T12:16:29Z</time>
      </trkpt>
      <trkpt lat="45.83697" lon="4.23561">
        <ele>541.081</ele>
        <time>2019-04-08T12:16:34Z</time>
      </trkpt>
      <trkpt lat="45.83698" lon="4.23561">
        <ele>541.126</ele>
        <time>2019-04-08T12:16:40Z</time>
      </trkpt>
      <trkpt lat="45.83697" lon="4.23561">
        <ele>541.223</ele>
        <time>2019-04-08T12:16:45Z</time>
      </trkpt>
      <trkpt lat="45.83697" lon="4.2356">
        <ele>541.1</ele>
        <time>2019-04-08T12:16:51Z</time>
      </trkpt>
      <trkpt lat="45.83698" lon="4.2356">
        <ele>540.92</ele>
        <time>2019-04-08T12:16:56Z</time>
      </trkpt>
      <trkpt lat="45.83698" lon="4.23558">
        <ele>540.371</ele>
        <time>2019-04-08T12:17:02Z</time>
      </trkpt>
      <trkpt lat="45.83698" lon="4.2356">
        <ele>539.19</ele>
        <time>2019-04-08T12:17:08Z</time>
      </trkpt>
      <trkpt lat="45.83698" lon="4.2356">
        <ele>538.421</ele>
        <time>2019-04-08T12:17:14Z</time>
      </trkpt>
      <trkpt lat="45.83698" lon="4.2356">
        <ele>537.817</ele>
        <time>2019-04-08T12:17:19Z</time>
      </trkpt>
      <trkpt lat="45.83699" lon="4.23559">
        <ele>537.088</ele>
        <time>2019-04-08T12:17:25Z</time>
      </trkpt>
      <trkpt lat="45.837" lon="4.23558">
        <ele>536.749</ele>
        <time>2019-04-08T12:17:30Z</time>
      </trkpt>
      <trkpt lat="45.83702" lon="4.23558">
        <ele>536.364</ele>
        <time>2019-04-08T12:17:35Z</time>
      </trkpt>
      <trkpt lat="45.83701" lon="4.23557">
        <ele>536.239</ele>
        <time>2019-04-08T12:17:41Z</time>
      </trkpt>
      <trkpt lat="45.83701" lon="4.23557">
        <ele>536.231</ele>
        <time>2019-04-08T12:17:47Z</time>
      </trkpt>
      <trkpt lat="45.83702" lon="4.23556">
        <ele>536.178</ele>
        <time>2019-04-08T12:17:52Z</time>
      </trkpt>
      <trkpt lat="45.83703" lon="4.23556">
        <ele>536.148</ele>
        <time>2019-04-08T12:17:58Z</time>
      </trkpt>
      <trkpt lat="45.83703" lon="4.23557">
        <ele>536.126</ele>
        <time>2019-04-08T12:18:03Z</time>
      </trkpt>
      <trkpt lat="45.83703" lon="4.23557">
        <ele>536.232</ele>
        <time>2019-04-08T12:18:09Z</time>
      </trkpt>
      <trkpt lat="45.83703" lon="4.23557">
        <ele>536.337</ele>
        <time>2019-04-08T12:18:15Z</time>
      </trkpt>
      <trkpt lat="45.83703" lon="4.23557">
        <ele>536.468</ele>
        <time>2019-04-08T12:18:20Z</time>
      </trkpt>
      <trkpt lat="45.83701" lon="4.23559">
        <ele>536.681</ele>
        <time>2019-04-08T12:18:26Z</time>
      </trkpt>
      <trkpt lat="45.837" lon="4.23557">
        <ele>537.07</ele>
        <time>2019-04-08T12:18:32Z</time>
      </trkpt>
      <trkpt lat="45.83701" lon="4.23556">
        <ele>537.623</ele>
        <time>2019-04-08T12:18:38Z</time>
      </trkpt>
      <trkpt lat="45.837" lon="4.23555">
        <ele>537.623</ele>
        <time>2019-04-08T12:18:43Z</time>
      </trkpt>
      <trkpt lat="45.83699" lon="4.23555">
        <ele>537.612</ele>
        <time>2019-04-08T12:18:49Z</time>
      </trkpt>
      <trkpt lat="45.83698" lon="4.23556">
        <ele>537.74</ele>
        <time>2019-04-08T12:18:55Z</time>
      </trkpt>
      <trkpt lat="45.83698" lon="4.23557">
        <ele>537.794</ele>
        <time>2019-04-08T12:19:00Z</time>
      </trkpt>
      <trkpt lat="45.83698" lon="4.23556">
        <ele>537.787</ele>
        <time>2019-04-08T12:19:05Z</time>
      </trkpt>
      <trkpt lat="45.83693" lon="4.23556">
        <ele>537.937</ele>
        <time>2019-04-08T12:19:11Z</time>
      </trkpt>
      <trkpt lat="45.83686" lon="4.23559">
        <ele>538.338</ele>
        <time>2019-04-08T12:19:17Z</time>
      </trkpt>
      <trkpt lat="45.83682" lon="4.23567">
        <ele>537.889</ele>
        <time>2019-04-08T12:19:23Z</time>
      </trkpt>
      <trkpt lat="45.8368" lon="4.23573">
        <ele>537.504</ele>
        <time>2019-04-08T12:19:28Z</time>
      </trkpt>
      <trkpt lat="45.83678" lon="4.23582">
        <ele>537.73</ele>
        <time>2019-04-08T12:19:34Z</time>
      </trkpt>
      <trkpt lat="45.83675" lon="4.23588">
        <ele>538.37</ele>
        <time>2019-04-08T12:19:39Z</time>
      </trkpt>
      <trkpt lat="45.8367" lon="4.23595">
        <ele>539.296</ele>
        <time>2019-04-08T12:19:45Z</time>
      </trkpt>
      <trkpt lat="45.83669" lon="4.236">
        <ele>539.956</ele>
        <time>2019-04-08T12:19:50Z</time>
      </trkpt>
      <trkpt lat="45.83665" lon="4.23607">
        <ele>540.303</ele>
        <time>2019-04-08T12:19:56Z</time>
      </trkpt>
      <trkpt lat="45.83662" lon="4.23616">
        <ele>540.628</ele>
        <time>2019-04-08T12:20:02Z</time>
      </trkpt>
      <trkpt lat="45.8366" lon="4.23624">
        <ele>541.177</ele>
        <time>2019-04-08T12:20:08Z</time>
      </trkpt>
      <trkpt lat="45.83657" lon="4.23635">
        <ele>541.827</ele>
        <time>2019-04-08T12:20:14Z</time>
      </trkpt>
      <trkpt lat="45.83656" lon="4.23644">
        <ele>542.536</ele>
        <time>2019-04-08T12:20:20Z</time>
      </trkpt>
      <trkpt lat="45.83657" lon="4.23649">
        <ele>542.903</ele>
        <time>2019-04-08T12:20:25Z</time>
      </trkpt>
      <trkpt lat="45.83655" lon="4.23657">
        <ele>543.235</ele>
        <time>2019-04-08T12:20:31Z</time>
      </trkpt>
      <trkpt lat="45.83653" lon="4.23667">
        <ele>543.48</ele>
        <time>2019-04-08T12:20:37Z</time>
      </trkpt>
      <trkpt lat="45.83652" lon="4.23674">
        <ele>543.582</ele>
        <time>2019-04-08T12:20:43Z</time>
      </trkpt>
      <trkpt lat="45.8365" lon="4.23685">
        <ele>544.005</ele>
        <time>2019-04-08T12:20:49Z</time>
      </trkpt>
      <trkpt lat="45.83647" lon="4.23693">
        <ele>544.483</ele>
        <time>2019-04-08T12:20:55Z</time>
      </trkpt>
      <trkpt lat="45.83645" lon="4.23702">
        <ele>545.319</ele>
        <time>2019-04-08T12:21:01Z</time>
      </trkpt>
      <trkpt lat="45.83644" lon="4.23712">
        <ele>546.103</ele>
        <time>2019-04-08T12:21:07Z</time>
      </trkpt>
      <trkpt lat="45.83643" lon="4.2372">
        <ele>546.548</ele>
        <time>2019-04-08T12:21:12Z</time>
      </trkpt>
      <trkpt lat="45.83639" lon="4.23729">
        <ele>546.927</ele>
        <time>2019-04-08T12:21:18Z</time>
      </trkpt>
      <trkpt lat="45.83636" lon="4.23733">
        <ele>546.974</ele>
        <time>2019-04-08T12:21:24Z</time>
      </trkpt>
      <trkpt lat="45.83633" lon="4.23735">
        <ele>547.377</ele>
        <time>2019-04-08T12:21:29Z</time>
      </trkpt>
      <trkpt lat="45.83627" lon="4.23737">
        <ele>548.023</ele>
        <time>2019-04-08T12:21:35Z</time>
      </trkpt>
      <trkpt lat="45.83621" lon="4.23739">
        <ele>548.467</ele>
        <time>2019-04-08T12:21:40Z</time>
      </trkpt>
      <trkpt lat="45.83614" lon="4.2374">
        <ele>548.61</ele>
        <time>2019-04-08T12:21:46Z</time>
      </trkpt>
      <trkpt lat="45.83609" lon="4.23744">
        <ele>548.508</ele>
        <time>2019-04-08T12:21:52Z</time>
      </trkpt>
      <trkpt lat="45.83603" lon="4.23749">
        <ele>548.525</ele>
        <time>2019-04-08T12:21:57Z</time>
      </trkpt>
      <trkpt lat="45.83599" lon="4.23756">
        <ele>548.589</ele>
        <time>2019-04-08T12:22:03Z</time>
      </trkpt>
      <trkpt lat="45.83593" lon="4.23761">
        <ele>548.404</ele>
        <time>2019-04-08T12:22:09Z</time>
      </trkpt>
      <trkpt lat="45.83589" lon="4.23767">
        <ele>548.123</ele>
        <time>2019-04-08T12:22:14Z</time>
      </trkpt>
      <trkpt lat="45.83583" lon="4.23773">
        <ele>548.122</ele>
        <time>2019-04-08T12:22:20Z</time>
      </trkpt>
      <trkpt lat="45.83579" lon="4.2378">
        <ele>548.216</ele>
        <time>2019-04-08T12:22:26Z</time>
      </trkpt>
      <trkpt lat="45.83572" lon="4.23785">
        <ele>548.531</ele>
        <time>2019-04-08T12:22:32Z</time>
      </trkpt>
      <trkpt lat="45.83567" lon="4.23789">
        <ele>548.716</ele>
        <time>2019-04-08T12:22:37Z</time>
      </trkpt>
      <trkpt lat="45.83561" lon="4.23792">
        <ele>548.647</ele>
        <time>2019-04-08T12:22:43Z</time>
      </trkpt>
      <trkpt lat="45.83556" lon="4.23794">
        <ele>548.519</ele>
        <time>2019-04-08T12:22:48Z</time>
      </trkpt>
      <trkpt lat="45.83548" lon="4.23793">
        <ele>548.207</ele>
        <time>2019-04-08T12:22:54Z</time>
      </trkpt>
      <trkpt lat="45.83543" lon="4.23795">
        <ele>548.027</ele>
        <time>2019-04-08T12:22:59Z</time>
      </trkpt>
      <trkpt lat="45.83536" lon="4.23793">
        <ele>547.792</ele>
        <time>2019-04-08T12:23:05Z</time>
      </trkpt>
      <trkpt lat="45.83532" lon="4.23791">
        <ele>548.198</ele>
        <time>2019-04-08T12:23:10Z</time>
      </trkpt>
      <trkpt lat="45.83524" lon="4.23786">
        <ele>548.317</ele>
        <time>2019-04-08T12:23:16Z</time>
      </trkpt>
      <trkpt lat="45.83519" lon="4.23783">
        <ele>548.2</ele>
        <time>2019-04-08T12:23:21Z</time>
      </trkpt>
      <trkpt lat="45.83513" lon="4.23781">
        <ele>548.363</ele>
        <time>2019-04-08T12:23:27Z</time>
      </trkpt>
      <trkpt lat="45.83507" lon="4.23778">
        <ele>548.347</ele>
        <time>2019-04-08T12:23:33Z</time>
      </trkpt>
      <trkpt lat="45.83504" lon="4.23775">
        <ele>548.423</ele>
        <time>2019-04-08T12:23:38Z</time>
      </trkpt>
      <trkpt lat="45.835" lon="4.23771">
        <ele>548.578</ele>
        <time>2019-04-08T12:23:44Z</time>
      </trkpt>
      <trkpt lat="45.83493" lon="4.23768">
        <ele>548.585</ele>
        <time>2019-04-08T12:23:49Z</time>
      </trkpt>
      <trkpt lat="45.83487" lon="4.23765">
        <ele>548.615</ele>
        <time>2019-04-08T12:23:54Z</time>
      </trkpt>
      <trkpt lat="45.83482" lon="4.23763">
        <ele>548.82</ele>
        <time>2019-04-08T12:24:00Z</time>
      </trkpt>
      <trkpt lat="45.83477" lon="4.2376">
        <ele>548.514</ele>
        <time>2019-04-08T12:24:06Z</time>
      </trkpt>
      <trkpt lat="45.83474" lon="4.23761">
        <ele>547.718</ele>
        <time>2019-04-08T12:24:11Z</time>
      </trkpt>
      <trkpt lat="45.83467" lon="4.23762">
        <ele>546.267</ele>
        <time>2019-04-08T12:24:17Z</time>
      </trkpt>
      <trkpt lat="45.8346" lon="4.23759">
        <ele>545.846</ele>
        <time>2019-04-08T12:24:22Z</time>
      </trkpt>
      <trkpt lat="45.83454" lon="4.23758">
        <ele>545.78</ele>
        <time>2019-04-08T12:24:27Z</time>
      </trkpt>
      <trkpt lat="45.83447" lon="4.23755">
        <ele>546.162</ele>
        <time>2019-04-08T12:24:33Z</time>
      </trkpt>
      <trkpt lat="45.83442" lon="4.23754">
        <ele>546.839</ele>
        <time>2019-04-08T12:24:38Z</time>
      </trkpt>
      <trkpt lat="45.83437" lon="4.23753">
        <ele>547.063</ele>
        <time>2019-04-08T12:24:44Z</time>
      </trkpt>
      <trkpt lat="45.83433" lon="4.23752">
        <ele>547.038</ele>
        <time>2019-04-08T12:24:49Z</time>
      </trkpt>
      <trkpt lat="45.83427" lon="4.23752">
        <ele>546.558</ele>
        <time>2019-04-08T12:24:55Z</time>
      </trkpt>
      <trkpt lat="45.83422" lon="4.23751">
        <ele>546.022</ele>
        <time>2019-04-08T12:25:01Z</time>
      </trkpt>
      <trkpt lat="45.83415" lon="4.23749">
        <ele>544.589</ele>
        <time>2019-04-08T12:25:07Z</time>
      </trkpt>
      <trkpt lat="45.83409" lon="4.23748">
        <ele>543.94</ele>
        <time>2019-04-08T12:25:13Z</time>
      </trkpt>
      <trkpt lat="45.83403" lon="4.23745">
        <ele>543.687</ele>
        <time>2019-04-08T12:25:18Z</time>
      </trkpt>
      <trkpt lat="45.83399" lon="4.23742">
        <ele>543.999</ele>
        <time>2019-04-08T12:25:24Z</time>
      </trkpt>
      <trkpt lat="45.83392" lon="4.23741">
        <ele>544.506</ele>
        <time>2019-04-08T12:25:30Z</time>
      </trkpt>
      <trkpt lat="45.83387" lon="4.2374">
        <ele>544.726</ele>
        <time>2019-04-08T12:25:36Z</time>
      </trkpt>
      <trkpt lat="45.83379" lon="4.2374">
        <ele>544.58</ele>
        <time>2019-04-08T12:25:42Z</time>
      </trkpt>
      <trkpt lat="45.83375" lon="4.23739">
        <ele>544.613</ele>
        <time>2019-04-08T12:25:48Z</time>
      </trkpt>
      <trkpt lat="45.83372" lon="4.23739">
        <ele>544.093</ele>
        <time>2019-04-08T12:25:54Z</time>
      </trkpt>
      <trkpt lat="45.83368" lon="4.2374">
        <ele>543.484</ele>
        <time>2019-04-08T12:25:59Z</time>
      </trkpt>
      <trkpt lat="45.83364" lon="4.23739">
        <ele>542.27</ele>
        <time>2019-04-08T12:26:05Z</time>
      </trkpt>
      <trkpt lat="45.83356" lon="4.23736">
        <ele>540.797</ele>
        <time>2019-04-08T12:26:11Z</time>
      </trkpt>
      <trkpt lat="45.83351" lon="4.23734">
        <ele>540.099</ele>
        <time>2019-04-08T12:26:16Z</time>
      </trkpt>
      <trkpt lat="45.83346" lon="4.23734">
        <ele>539.049</ele>
        <time>2019-04-08T12:26:21Z</time>
      </trkpt>
      <trkpt lat="45.8334" lon="4.23734">
        <ele>537.613</ele>
        <time>2019-04-08T12:26:27Z</time>
      </trkpt>
      <trkpt lat="45.83337" lon="4.23731">
        <ele>536.079</ele>
        <time>2019-04-08T12:26:32Z</time>
      </trkpt>
      <trkpt lat="45.83332" lon="4.23731">
        <ele>534.865</ele>
        <time>2019-04-08T12:26:37Z</time>
      </trkpt>
      <trkpt lat="45.83326" lon="4.2373">
        <ele>533.149</ele>
        <time>2019-04-08T12:26:43Z</time>
      </trkpt>
      <trkpt lat="45.83321" lon="4.2373">
        <ele>531.463</ele>
        <time>2019-04-08T12:26:49Z</time>
      </trkpt>
      <trkpt lat="45.83316" lon="4.23729">
        <ele>530.218</ele>
        <time>2019-04-08T12:26:55Z</time>
      </trkpt>
      <trkpt lat="45.83313" lon="4.23729">
        <ele>529.879</ele>
        <time>2019-04-08T12:27:00Z</time>
      </trkpt>
      <trkpt lat="45.83301" lon="4.2373">
        <ele>529.945</ele>
        <time>2019-04-08T12:27:06Z</time>
      </trkpt>
      <trkpt lat="45.83296" lon="4.23729">
        <ele>530.195</ele>
        <time>2019-04-08T12:27:12Z</time>
      </trkpt>
      <trkpt lat="45.83292" lon="4.2373">
        <ele>530.152</ele>
        <time>2019-04-08T12:27:18Z</time>
      </trkpt>
      <trkpt lat="45.83291" lon="4.2373">
        <ele>529.936</ele>
        <time>2019-04-08T12:27:23Z</time>
      </trkpt>
      <trkpt lat="45.83288" lon="4.23731">
        <ele>530.135</ele>
        <time>2019-04-08T12:27:29Z</time>
      </trkpt>
      <trkpt lat="45.83279" lon="4.23731">
        <ele>530.128</ele>
        <time>2019-04-08T12:27:34Z</time>
      </trkpt>
      <trkpt lat="45.83269" lon="4.23733">
        <ele>529.922</ele>
        <time>2019-04-08T12:27:39Z</time>
      </trkpt>
      <trkpt lat="45.83265" lon="4.23733">
        <ele>530.274</ele>
        <time>2019-04-08T12:27:45Z</time>
      </trkpt>
      <trkpt lat="45.83262" lon="4.23737">
        <ele>530.16</ele>
        <time>2019-04-08T12:27:51Z</time>
      </trkpt>
      <trkpt lat="45.83255" lon="4.23744">
        <ele>530.514</ele>
        <time>2019-04-08T12:27:57Z</time>
      </trkpt>
      <trkpt lat="45.8325" lon="4.23748">
        <ele>530.398</ele>
        <time>2019-04-08T12:28:03Z</time>
      </trkpt>
      <trkpt lat="45.83241" lon="4.23751">
        <ele>529.585</ele>
        <time>2019-04-08T12:28:09Z</time>
      </trkpt>
      <trkpt lat="45.83239" lon="4.23755">
        <ele>529.637</ele>
        <time>2019-04-08T12:28:14Z</time>
      </trkpt>
      <trkpt lat="45.83236" lon="4.23756">
        <ele>529.348</ele>
        <time>2019-04-08T12:28:19Z</time>
      </trkpt>
      <trkpt lat="45.83231" lon="4.23755">
        <ele>529.189</ele>
        <time>2019-04-08T12:28:25Z</time>
      </trkpt>
      <trkpt lat="45.83231" lon="4.23755">
        <ele>528.957</ele>
        <time>2019-04-08T12:28:31Z</time>
      </trkpt>
      <trkpt lat="45.83231" lon="4.23755">
        <ele>528.872</ele>
        <time>2019-04-08T12:28:36Z</time>
      </trkpt>
      <trkpt lat="45.83231" lon="4.23755">
        <ele>528.788</ele>
        <time>2019-04-08T12:28:41Z</time>
      </trkpt>
      <trkpt lat="45.83231" lon="4.23755">
        <ele>528.805</ele>
        <time>2019-04-08T12:28:46Z</time>
      </trkpt>
      <trkpt lat="45.83231" lon="4.23755">
        <ele>528.664</ele>
        <time>2019-04-08T12:28:52Z</time>
      </trkpt>
      <trkpt lat="45.83231" lon="4.23755">
        <ele>528.613</ele>
        <time>2019-04-08T12:28:58Z</time>
      </trkpt>
      <trkpt lat="45.83231" lon="4.23755">
        <ele>528.603</ele>
        <time>2019-04-08T12:29:04Z</time>
      </trkpt>
      <trkpt lat="45.83231" lon="4.23755">
        <ele>528.516</ele>
        <time>2019-04-08T12:29:09Z</time>
      </trkpt>
      <trkpt lat="45.83231" lon="4.23755">
        <ele>528.286</ele>
        <time>2019-04-08T12:29:15Z</time>
      </trkpt>
      <trkpt lat="45.83231" lon="4.23755">
        <ele>527.819</ele>
        <time>2019-04-08T12:29:21Z</time>
      </trkpt>
      <trkpt lat="45.83231" lon="4.23755">
        <ele>527.734</ele>
        <time>2019-04-08T12:29:26Z</time>
      </trkpt>
      <trkpt lat="45.83231" lon="4.23755">
        <ele>527.353</ele>
        <time>2019-04-08T12:29:32Z</time>
      </trkpt>
      <trkpt lat="45.83231" lon="4.23755">
        <ele>526.754</ele>
        <time>2019-04-08T12:29:37Z</time>
      </trkpt>
      <trkpt lat="45.83229" lon="4.23756">
        <ele>526.454</ele>
        <time>2019-04-08T12:29:43Z</time>
      </trkpt>
      <trkpt lat="45.83225" lon="4.23757">
        <ele>525.777</ele>
        <time>2019-04-08T12:29:49Z</time>
      </trkpt>
      <trkpt lat="45.83221" lon="4.23758">
        <ele>525.496</ele>
        <time>2019-04-08T12:29:55Z</time>
      </trkpt>
      <trkpt lat="45.83218" lon="4.23761">
        <ele>525.497</ele>
        <time>2019-04-08T12:30:00Z</time>
      </trkpt>
      <trkpt lat="45.83208" lon="4.23768">
        <ele>525.18</ele>
        <time>2019-04-08T12:30:06Z</time>
      </trkpt>
      <trkpt lat="45.83202" lon="4.23775">
        <ele>524.968</ele>
        <time>2019-04-08T12:30:11Z</time>
      </trkpt>
      <trkpt lat="45.83197" lon="4.23782">
        <ele>524.921</ele>
        <time>2019-04-08T12:30:17Z</time>
      </trkpt>
      <trkpt lat="45.83193" lon="4.23787">
        <ele>524.717</ele>
        <time>2019-04-08T12:30:23Z</time>
      </trkpt>
      <trkpt lat="45.83189" lon="4.23795">
        <ele>524.684</ele>
        <time>2019-04-08T12:30:29Z</time>
      </trkpt>
      <trkpt lat="45.83187" lon="4.23801">
        <ele>524.333</ele>
        <time>2019-04-08T12:30:35Z</time>
      </trkpt>
      <trkpt lat="45.83185" lon="4.23807">
        <ele>523.976</ele>
        <time>2019-04-08T12:30:41Z</time>
      </trkpt>
      <trkpt lat="45.83182" lon="4.23815">
        <ele>524.08</ele>
        <time>2019-04-08T12:30:46Z</time>
      </trkpt>
      <trkpt lat="45.8318" lon="4.2382">
        <ele>523.843</ele>
        <time>2019-04-08T12:30:51Z</time>
      </trkpt>
      <trkpt lat="45.8318" lon="4.23829">
        <ele>523.763</ele>
        <time>2019-04-08T12:30:57Z</time>
      </trkpt>
      <trkpt lat="45.83179" lon="4.23836">
        <ele>523.63</ele>
        <time>2019-04-08T12:31:02Z</time>
      </trkpt>
      <trkpt lat="45.83178" lon="4.23845">
        <ele>523.608</ele>
        <time>2019-04-08T12:31:08Z</time>
      </trkpt>
      <trkpt lat="45.83175" lon="4.23856">
        <ele>523.822</ele>
        <time>2019-04-08T12:31:14Z</time>
      </trkpt>
      <trkpt lat="45.83174" lon="4.23862">
        <ele>524.055</ele>
        <time>2019-04-08T12:31:19Z</time>
      </trkpt>
      <trkpt lat="45.83172" lon="4.23871">
        <ele>524.167</ele>
        <time>2019-04-08T12:31:25Z</time>
      </trkpt>
      <trkpt lat="45.83172" lon="4.23877">
        <ele>524.709</ele>
        <time>2019-04-08T12:31:30Z</time>
      </trkpt>
      <trkpt lat="45.83171" lon="4.23884">
        <ele>524.847</ele>
        <time>2019-04-08T12:31:35Z</time>
      </trkpt>
      <trkpt lat="45.83167" lon="4.23895">
        <ele>524.766</ele>
        <time>2019-04-08T12:31:41Z</time>
      </trkpt>
      <trkpt lat="45.83164" lon="4.23902">
        <ele>524.782</ele>
        <time>2019-04-08T12:31:46Z</time>
      </trkpt>
      <trkpt lat="45.83162" lon="4.23907">
        <ele>524.661</ele>
        <time>2019-04-08T12:31:52Z</time>
      </trkpt>
      <trkpt lat="45.83158" lon="4.23912">
        <ele>524.453</ele>
        <time>2019-04-08T12:31:57Z</time>
      </trkpt>
      <trkpt lat="45.83152" lon="4.23918">
        <ele>524.069</ele>
        <time>2019-04-08T12:32:03Z</time>
      </trkpt>
      <trkpt lat="45.83148" lon="4.23924">
        <ele>524.132</ele>
        <time>2019-04-08T12:32:08Z</time>
      </trkpt>
      <trkpt lat="45.83142" lon="4.23927">
        <ele>524.104</ele>
        <time>2019-04-08T12:32:14Z</time>
      </trkpt>
      <trkpt lat="45.83138" lon="4.2393">
        <ele>523.881</ele>
        <time>2019-04-08T12:32:19Z</time>
      </trkpt>
      <trkpt lat="45.83135" lon="4.23934">
        <ele>523.464</ele>
        <time>2019-04-08T12:32:24Z</time>
      </trkpt>
      <trkpt lat="45.83126" lon="4.23938">
        <ele>524.208</ele>
        <time>2019-04-08T12:32:30Z</time>
      </trkpt>
      <trkpt lat="45.83118" lon="4.23939">
        <ele>524.437</ele>
        <time>2019-04-08T12:32:35Z</time>
      </trkpt>
      <trkpt lat="45.83112" lon="4.2394">
        <ele>524.758</ele>
        <time>2019-04-08T12:32:41Z</time>
      </trkpt>
      <trkpt lat="45.83106" lon="4.23941">
        <ele>525.612</ele>
        <time>2019-04-08T12:32:47Z</time>
      </trkpt>
      <trkpt lat="45.83104" lon="4.2394">
        <ele>525.676</ele>
        <time>2019-04-08T12:32:52Z</time>
      </trkpt>
      <trkpt lat="45.831" lon="4.23941">
        <ele>525.708</ele>
        <time>2019-04-08T12:32:57Z</time>
      </trkpt>
      <trkpt lat="45.83097" lon="4.23947">
        <ele>525.075</ele>
        <time>2019-04-08T12:33:03Z</time>
      </trkpt>
      <trkpt lat="45.83094" lon="4.23952">
        <ele>524.381</ele>
        <time>2019-04-08T12:33:08Z</time>
      </trkpt>
      <trkpt lat="45.83093" lon="4.23959">
        <ele>524.117</ele>
        <time>2019-04-08T12:33:14Z</time>
      </trkpt>
      <trkpt lat="45.83093" lon="4.23965">
        <ele>523.734</ele>
        <time>2019-04-08T12:33:19Z</time>
      </trkpt>
      <trkpt lat="45.83091" lon="4.23975">
        <ele>523.505</ele>
        <time>2019-04-08T12:33:25Z</time>
      </trkpt>
      <trkpt lat="45.83089" lon="4.23984">
        <ele>523.829</ele>
        <time>2019-04-08T12:33:31Z</time>
      </trkpt>
      <trkpt lat="45.83088" lon="4.23989">
        <ele>524.099</ele>
        <time>2019-04-08T12:33:36Z</time>
      </trkpt>
      <trkpt lat="45.83086" lon="4.23998">
        <ele>524.56</ele>
        <time>2019-04-08T12:33:42Z</time>
      </trkpt>
      <trkpt lat="45.83085" lon="4.24007">
        <ele>525.219</ele>
        <time>2019-04-08T12:33:48Z</time>
      </trkpt>
      <trkpt lat="45.83084" lon="4.24016">
        <ele>525.905</ele>
        <time>2019-04-08T12:33:54Z</time>
      </trkpt>
      <trkpt lat="45.83083" lon="4.24022">
        <ele>526.637</ele>
        <time>2019-04-08T12:33:59Z</time>
      </trkpt>
      <trkpt lat="45.83083" lon="4.24029">
        <ele>527.708</ele>
        <time>2019-04-08T12:34:04Z</time>
      </trkpt>
      <trkpt lat="45.83082" lon="4.24036">
        <ele>529.211</ele>
        <time>2019-04-08T12:34:10Z</time>
      </trkpt>
      <trkpt lat="45.8308" lon="4.24043">
        <ele>529.812</ele>
        <time>2019-04-08T12:34:15Z</time>
      </trkpt>
      <trkpt lat="45.83079" lon="4.2405">
        <ele>530.352</ele>
        <time>2019-04-08T12:34:20Z</time>
      </trkpt>
      <trkpt lat="45.8308" lon="4.24056">
        <ele>530.576</ele>
        <time>2019-04-08T12:34:25Z</time>
      </trkpt>
      <trkpt lat="45.83081" lon="4.24062">
        <ele>530.193</ele>
        <time>2019-04-08T12:34:31Z</time>
      </trkpt>
      <trkpt lat="45.83083" lon="4.24069">
        <ele>530.015</ele>
        <time>2019-04-08T12:34:36Z</time>
      </trkpt>
      <trkpt lat="45.83083" lon="4.24077">
        <ele>529.76</ele>
        <time>2019-04-08T12:34:42Z</time>
      </trkpt>
      <trkpt lat="45.83083" lon="4.24085">
        <ele>529.309</ele>
        <time>2019-04-08T12:34:48Z</time>
      </trkpt>
      <trkpt lat="45.83082" lon="4.24094">
        <ele>528.779</ele>
        <time>2019-04-08T12:34:54Z</time>
      </trkpt>
      <trkpt lat="45.8308" lon="4.24101">
        <ele>528.501</ele>
        <time>2019-04-08T12:35:00Z</time>
      </trkpt>
      <trkpt lat="45.83078" lon="4.24106">
        <ele>528.395</ele>
        <time>2019-04-08T12:35:06Z</time>
      </trkpt>
      <trkpt lat="45.83075" lon="4.24112">
        <ele>528.808</ele>
        <time>2019-04-08T12:35:12Z</time>
      </trkpt>
      <trkpt lat="45.83074" lon="4.24119">
        <ele>529.4</ele>
        <time>2019-04-08T12:35:17Z</time>
      </trkpt>
      <trkpt lat="45.83072" lon="4.24122">
        <ele>530.482</ele>
        <time>2019-04-08T12:35:23Z</time>
      </trkpt>
      <trkpt lat="45.83072" lon="4.24126">
        <ele>531.241</ele>
        <time>2019-04-08T12:35:28Z</time>
      </trkpt>
      <trkpt lat="45.83071" lon="4.24131">
        <ele>531.988</ele>
        <time>2019-04-08T12:35:34Z</time>
      </trkpt>
      <trkpt lat="45.83069" lon="4.24136">
        <ele>533.117</ele>
        <time>2019-04-08T12:35:40Z</time>
      </trkpt>
      <trkpt lat="45.83066" lon="4.24141">
        <ele>534.647</ele>
        <time>2019-04-08T12:35:46Z</time>
      </trkpt>
      <trkpt lat="45.8306" lon="4.24143">
        <ele>535.905</ele>
        <time>2019-04-08T12:35:52Z</time>
      </trkpt>
      <trkpt lat="45.83058" lon="4.24149">
        <ele>537.101</ele>
        <time>2019-04-08T12:35:58Z</time>
      </trkpt>
      <trkpt lat="45.83057" lon="4.24155">
        <ele>537.931</ele>
        <time>2019-04-08T12:36:04Z</time>
      </trkpt>
      <trkpt lat="45.83056" lon="4.24159">
        <ele>538.503</ele>
        <time>2019-04-08T12:36:10Z</time>
      </trkpt>
      <trkpt lat="45.83056" lon="4.24162">
        <ele>539.036</ele>
        <time>2019-04-08T12:36:16Z</time>
      </trkpt>
      <trkpt lat="45.83053" lon="4.24165">
        <ele>539.493</ele>
        <time>2019-04-08T12:36:21Z</time>
      </trkpt>
      <trkpt lat="45.8305" lon="4.2417">
        <ele>540.237</ele>
        <time>2019-04-08T12:36:27Z</time>
      </trkpt>
      <trkpt lat="45.83047" lon="4.24176">
        <ele>540.983</ele>
        <time>2019-04-08T12:36:33Z</time>
      </trkpt>
      <trkpt lat="45.83045" lon="4.24181">
        <ele>541.669</ele>
        <time>2019-04-08T12:36:38Z</time>
      </trkpt>
      <trkpt lat="45.83041" lon="4.24186">
        <ele>542.962</ele>
        <time>2019-04-08T12:36:44Z</time>
      </trkpt>
      <trkpt lat="45.83038" lon="4.2419">
        <ele>544.214</ele>
        <time>2019-04-08T12:36:50Z</time>
      </trkpt>
      <trkpt lat="45.83037" lon="4.24193">
        <ele>544.638</ele>
        <time>2019-04-08T12:36:55Z</time>
      </trkpt>
      <trkpt lat="45.83035" lon="4.24196">
        <ele>545.112</ele>
        <time>2019-04-08T12:37:00Z</time>
      </trkpt>
      <trkpt lat="45.8303" lon="4.242">
        <ele>545.668</ele>
        <time>2019-04-08T12:37:06Z</time>
      </trkpt>
      <trkpt lat="45.83027" lon="4.24204">
        <ele>546.331</ele>
        <time>2019-04-08T12:37:11Z</time>
      </trkpt>
      <trkpt lat="45.83024" lon="4.24211">
        <ele>547.474</ele>
        <time>2019-04-08T12:37:17Z</time>
      </trkpt>
      <trkpt lat="45.83021" lon="4.24217">
        <ele>548.395</ele>
        <time>2019-04-08T12:37:23Z</time>
      </trkpt>
      <trkpt lat="45.83018" lon="4.24222">
        <ele>548.951</ele>
        <time>2019-04-08T12:37:29Z</time>
      </trkpt>
      <trkpt lat="45.83015" lon="4.24227">
        <ele>549.422</ele>
        <time>2019-04-08T12:37:35Z</time>
      </trkpt>
      <trkpt lat="45.83013" lon="4.2423">
        <ele>549.76</ele>
        <time>2019-04-08T12:37:40Z</time>
      </trkpt>
      <trkpt lat="45.83011" lon="4.24235">
        <ele>550</ele>
        <time>2019-04-08T12:37:46Z</time>
      </trkpt>
      <trkpt lat="45.83011" lon="4.24239">
        <ele>550.371</ele>
        <time>2019-04-08T12:37:51Z</time>
      </trkpt>
      <trkpt lat="45.83011" lon="4.24241">
        <ele>551.399</ele>
        <time>2019-04-08T12:37:57Z</time>
      </trkpt>
      <trkpt lat="45.8301" lon="4.24242">
        <ele>551.418</ele>
        <time>2019-04-08T12:38:03Z</time>
      </trkpt>
      <trkpt lat="45.8301" lon="4.2424">
        <ele>551.554</ele>
        <time>2019-04-08T12:38:08Z</time>
      </trkpt>
      <trkpt lat="45.83009" lon="4.24242">
        <ele>551.855</ele>
        <time>2019-04-08T12:38:14Z</time>
      </trkpt>
      <trkpt lat="45.83009" lon="4.24242">
        <ele>551.941</ele>
        <time>2019-04-08T12:38:19Z</time>
      </trkpt>
      <trkpt lat="45.8301" lon="4.24242">
        <ele>551.857</ele>
        <time>2019-04-08T12:38:25Z</time>
      </trkpt>
      <trkpt lat="45.8301" lon="4.2424">
        <ele>552.153</ele>
        <time>2019-04-08T12:38:31Z</time>
      </trkpt>
      <trkpt lat="45.8301" lon="4.24243">
        <ele>552.634</ele>
        <time>2019-04-08T12:38:36Z</time>
      </trkpt>
      <trkpt lat="45.83009" lon="4.24245">
        <ele>552.993</ele>
        <time>2019-04-08T12:38:41Z</time>
      </trkpt>
      <trkpt lat="45.83008" lon="4.24245">
        <ele>553.386</ele>
        <time>2019-04-08T12:38:47Z</time>
      </trkpt>
      <trkpt lat="45.83008" lon="4.24245">
        <ele>553.697</ele>
        <time>2019-04-08T12:38:52Z</time>
      </trkpt>
      <trkpt lat="45.83008" lon="4.24244">
        <ele>553.711</ele>
        <time>2019-04-08T12:38:57Z</time>
      </trkpt>
      <trkpt lat="45.8301" lon="4.24243">
        <ele>553.357</ele>
        <time>2019-04-08T12:39:03Z</time>
      </trkpt>
      <trkpt lat="45.83012" lon="4.24243">
        <ele>553.536</ele>
        <time>2019-04-08T12:39:09Z</time>
      </trkpt>
      <trkpt lat="45.83012" lon="4.24244">
        <ele>553.564</ele>
        <time>2019-04-08T12:39:14Z</time>
      </trkpt>
      <trkpt lat="45.83012" lon="4.24245">
        <ele>553.414</ele>
        <time>2019-04-08T12:39:19Z</time>
      </trkpt>
      <trkpt lat="45.83013" lon="4.24246">
        <ele>552.931</ele>
        <time>2019-04-08T12:39:25Z</time>
      </trkpt>
      <trkpt lat="45.83013" lon="4.24246">
        <ele>552.303</ele>
        <time>2019-04-08T12:39:31Z</time>
      </trkpt>
      <trkpt lat="45.83014" lon="4.24246">
        <ele>552.083</ele>
        <time>2019-04-08T12:39:36Z</time>
      </trkpt>
      <trkpt lat="45.83014" lon="4.24247">
        <ele>551.858</ele>
        <time>2019-04-08T12:39:42Z</time>
      </trkpt>
      <trkpt lat="45.83012" lon="4.24248">
        <ele>551.837</ele>
        <time>2019-04-08T12:39:47Z</time>
      </trkpt>
      <trkpt lat="45.83011" lon="4.24245">
        <ele>551.786</ele>
        <time>2019-04-08T12:39:54Z</time>
      </trkpt>
      <trkpt lat="45.83011" lon="4.24245">
        <ele>551.653</ele>
        <time>2019-04-08T12:39:59Z</time>
      </trkpt>
      <trkpt lat="45.83013" lon="4.24248">
        <ele>551.624</ele>
        <time>2019-04-08T12:40:04Z</time>
      </trkpt>
      <trkpt lat="45.83013" lon="4.24249">
        <ele>551.606</ele>
        <time>2019-04-08T12:40:10Z</time>
      </trkpt>
      <trkpt lat="45.83012" lon="4.24249">
        <ele>551.582</ele>
        <time>2019-04-08T12:40:15Z</time>
      </trkpt>
      <trkpt lat="45.83011" lon="4.24248">
        <ele>551.628</ele>
        <time>2019-04-08T12:40:20Z</time>
      </trkpt>
      <trkpt lat="45.83007" lon="4.24248">
        <ele>552.238</ele>
        <time>2019-04-08T12:40:26Z</time>
      </trkpt>
      <trkpt lat="45.83007" lon="4.2425">
        <ele>553.076</ele>
        <time>2019-04-08T12:40:31Z</time>
      </trkpt>
      <trkpt lat="45.83008" lon="4.24257">
        <ele>553.233</ele>
        <time>2019-04-08T12:40:37Z</time>
      </trkpt>
      <trkpt lat="45.83011" lon="4.24261">
        <ele>553.523</ele>
        <time>2019-04-08T12:40:43Z</time>
      </trkpt>
      <trkpt lat="45.83012" lon="4.24269">
        <ele>553.769</ele>
        <time>2019-04-08T12:40:48Z</time>
      </trkpt>
      <trkpt lat="45.83014" lon="4.24279">
        <ele>553.728</ele>
        <time>2019-04-08T12:40:54Z</time>
      </trkpt>
      <trkpt lat="45.83015" lon="4.24287">
        <ele>553.319</ele>
        <time>2019-04-08T12:41:00Z</time>
      </trkpt>
      <trkpt lat="45.83019" lon="4.2429">
        <ele>553.417</ele>
        <time>2019-04-08T12:41:06Z</time>
      </trkpt>
      <trkpt lat="45.83024" lon="4.24286">
        <ele>553.953</ele>
        <time>2019-04-08T12:41:12Z</time>
      </trkpt>
      <trkpt lat="45.8303" lon="4.24282">
        <ele>554.464</ele>
        <time>2019-04-08T12:41:17Z</time>
      </trkpt>
      <trkpt lat="45.83034" lon="4.24281">
        <ele>555.222</ele>
        <time>2019-04-08T12:41:23Z</time>
      </trkpt>
      <trkpt lat="45.83039" lon="4.2428">
        <ele>555.461</ele>
        <time>2019-04-08T12:41:28Z</time>
      </trkpt>
      <trkpt lat="45.83048" lon="4.24279">
        <ele>555.621</ele>
        <time>2019-04-08T12:41:36Z</time>
      </trkpt>
      <trkpt lat="45.83053" lon="4.24278">
        <ele>555.626</ele>
        <time>2019-04-08T12:41:41Z</time>
      </trkpt>
      <trkpt lat="45.8306" lon="4.24278">
        <ele>555.705</ele>
        <time>2019-04-08T12:41:46Z</time>
      </trkpt>
      <trkpt lat="45.83065" lon="4.24281">
        <ele>555.714</ele>
        <time>2019-04-08T12:41:51Z</time>
      </trkpt>
      <trkpt lat="45.83071" lon="4.24285">
        <ele>555.856</ele>
        <time>2019-04-08T12:41:57Z</time>
      </trkpt>
      <trkpt lat="45.83074" lon="4.24289">
        <ele>555.94</ele>
        <time>2019-04-08T12:42:02Z</time>
      </trkpt>
      <trkpt lat="45.8308" lon="4.24294">
        <ele>556.026</ele>
        <time>2019-04-08T12:42:08Z</time>
      </trkpt>
      <trkpt lat="45.83085" lon="4.24298">
        <ele>555.739</ele>
        <time>2019-04-08T12:42:14Z</time>
      </trkpt>
      <trkpt lat="45.83091" lon="4.24301">
        <ele>555.799</ele>
        <time>2019-04-08T12:42:20Z</time>
      </trkpt>
      <trkpt lat="45.83099" lon="4.24306">
        <ele>555.716</ele>
        <time>2019-04-08T12:42:25Z</time>
      </trkpt>
      <trkpt lat="45.83107" lon="4.2431">
        <ele>555.924</ele>
        <time>2019-04-08T12:42:31Z</time>
      </trkpt>
      <trkpt lat="45.83114" lon="4.24315">
        <ele>555.935</ele>
        <time>2019-04-08T12:42:37Z</time>
      </trkpt>
      <trkpt lat="45.83118" lon="4.24318">
        <ele>555.534</ele>
        <time>2019-04-08T12:42:43Z</time>
      </trkpt>
      <trkpt lat="45.83122" lon="4.24325">
        <ele>555.111</ele>
        <time>2019-04-08T12:42:49Z</time>
      </trkpt>
      <trkpt lat="45.83127" lon="4.24328">
        <ele>554.728</ele>
        <time>2019-04-08T12:42:55Z</time>
      </trkpt>
      <trkpt lat="45.83132" lon="4.24332">
        <ele>554.538</ele>
        <time>2019-04-08T12:43:00Z</time>
      </trkpt>
      <trkpt lat="45.83137" lon="4.24337">
        <ele>553.931</ele>
        <time>2019-04-08T12:43:06Z</time>
      </trkpt>
      <trkpt lat="45.83144" lon="4.24342">
        <ele>553.098</ele>
        <time>2019-04-08T12:43:11Z</time>
      </trkpt>
      <trkpt lat="45.8315" lon="4.24344">
        <ele>552.693</ele>
        <time>2019-04-08T12:43:16Z</time>
      </trkpt>
      <trkpt lat="45.83156" lon="4.24348">
        <ele>552.191</ele>
        <time>2019-04-08T12:43:22Z</time>
      </trkpt>
      <trkpt lat="45.83162" lon="4.24352">
        <ele>551.739</ele>
        <time>2019-04-08T12:43:28Z</time>
      </trkpt>
      <trkpt lat="45.83169" lon="4.24355">
        <ele>551.565</ele>
        <time>2019-04-08T12:43:33Z</time>
      </trkpt>
      <trkpt lat="45.83173" lon="4.24357">
        <ele>551.615</ele>
        <time>2019-04-08T12:43:39Z</time>
      </trkpt>
      <trkpt lat="45.83182" lon="4.24361">
        <ele>551.762</ele>
        <time>2019-04-08T12:43:45Z</time>
      </trkpt>
      <trkpt lat="45.83189" lon="4.24366">
        <ele>551.931</ele>
        <time>2019-04-08T12:43:51Z</time>
      </trkpt>
      <trkpt lat="45.83195" lon="4.24371">
        <ele>551.612</ele>
        <time>2019-04-08T12:43:56Z</time>
      </trkpt>
      <trkpt lat="45.832" lon="4.24375">
        <ele>551.132</ele>
        <time>2019-04-08T12:44:02Z</time>
      </trkpt>
      <trkpt lat="45.83206" lon="4.2438">
        <ele>550.811</ele>
        <time>2019-04-08T12:44:07Z</time>
      </trkpt>
      <trkpt lat="45.83211" lon="4.24383">
        <ele>550.377</ele>
        <time>2019-04-08T12:44:13Z</time>
      </trkpt>
      <trkpt lat="45.83217" lon="4.24387">
        <ele>550.399</ele>
        <time>2019-04-08T12:44:18Z</time>
      </trkpt>
      <trkpt lat="45.83221" lon="4.24391">
        <ele>550.12</ele>
        <time>2019-04-08T12:44:24Z</time>
      </trkpt>
      <trkpt lat="45.83225" lon="4.24394">
        <ele>550.249</ele>
        <time>2019-04-08T12:44:29Z</time>
      </trkpt>
      <trkpt lat="45.83231" lon="4.24399">
        <ele>550.82</ele>
        <time>2019-04-08T12:44:35Z</time>
      </trkpt>
      <trkpt lat="45.83235" lon="4.24403">
        <ele>550.457</ele>
        <time>2019-04-08T12:44:40Z</time>
      </trkpt>
      <trkpt lat="45.8324" lon="4.24409">
        <ele>550.241</ele>
        <time>2019-04-08T12:44:45Z</time>
      </trkpt>
      <trkpt lat="45.83244" lon="4.24416">
        <ele>550.067</ele>
        <time>2019-04-08T12:44:51Z</time>
      </trkpt>
      <trkpt lat="45.83249" lon="4.24426">
        <ele>549.62</ele>
        <time>2019-04-08T12:44:57Z</time>
      </trkpt>
      <trkpt lat="45.83251" lon="4.2443">
        <ele>549.057</ele>
        <time>2019-04-08T12:45:02Z</time>
      </trkpt>
      <trkpt lat="45.83254" lon="4.24431">
        <ele>548.077</ele>
        <time>2019-04-08T12:45:07Z</time>
      </trkpt>
      <trkpt lat="45.83262" lon="4.24435">
        <ele>547.102</ele>
        <time>2019-04-08T12:45:13Z</time>
      </trkpt>
      <trkpt lat="45.83268" lon="4.24438">
        <ele>546.839</ele>
        <time>2019-04-08T12:45:18Z</time>
      </trkpt>
      <trkpt lat="45.83276" lon="4.24438">
        <ele>546.868</ele>
        <time>2019-04-08T12:45:24Z</time>
      </trkpt>
      <trkpt lat="45.83282" lon="4.24439">
        <ele>547.104</ele>
        <time>2019-04-08T12:45:29Z</time>
      </trkpt>
      <trkpt lat="45.83292" lon="4.24439">
        <ele>547.132</ele>
        <time>2019-04-08T12:45:35Z</time>
      </trkpt>
      <trkpt lat="45.83296" lon="4.24436">
        <ele>547.153</ele>
        <time>2019-04-08T12:45:40Z</time>
      </trkpt>
      <trkpt lat="45.83302" lon="4.24432">
        <ele>547.063</ele>
        <time>2019-04-08T12:45:46Z</time>
      </trkpt>
      <trkpt lat="45.83306" lon="4.24427">
        <ele>546.311</ele>
        <time>2019-04-08T12:45:51Z</time>
      </trkpt>
      <trkpt lat="45.83311" lon="4.24419">
        <ele>545.197</ele>
        <time>2019-04-08T12:45:57Z</time>
      </trkpt>
      <trkpt lat="45.83315" lon="4.24414">
        <ele>544.378</ele>
        <time>2019-04-08T12:46:03Z</time>
      </trkpt>
      <trkpt lat="45.83318" lon="4.24409">
        <ele>543.97</ele>
        <time>2019-04-08T12:46:09Z</time>
      </trkpt>
      <trkpt lat="45.83322" lon="4.24406">
        <ele>543.977</ele>
        <time>2019-04-08T12:46:14Z</time>
      </trkpt>
      <trkpt lat="45.83327" lon="4.24403">
        <ele>544.368</ele>
        <time>2019-04-08T12:46:19Z</time>
      </trkpt>
      <trkpt lat="45.83335" lon="4.24399">
        <ele>545.288</ele>
        <time>2019-04-08T12:46:25Z</time>
      </trkpt>
      <trkpt lat="45.8334" lon="4.24398">
        <ele>545.762</ele>
        <time>2019-04-08T12:46:31Z</time>
      </trkpt>
      <trkpt lat="45.83346" lon="4.24397">
        <ele>546.12</ele>
        <time>2019-04-08T12:46:37Z</time>
      </trkpt>
      <trkpt lat="45.8335" lon="4.24396">
        <ele>546.615</ele>
        <time>2019-04-08T12:46:43Z</time>
      </trkpt>
      <trkpt lat="45.83355" lon="4.24395">
        <ele>547.214</ele>
        <time>2019-04-08T12:46:49Z</time>
      </trkpt>
      <trkpt lat="45.8336" lon="4.24393">
        <ele>547.633</ele>
        <time>2019-04-08T12:46:55Z</time>
      </trkpt>
      <trkpt lat="45.83365" lon="4.24392">
        <ele>547.932</ele>
        <time>2019-04-08T12:47:01Z</time>
      </trkpt>
      <trkpt lat="45.83369" lon="4.24388">
        <ele>548.131</ele>
        <time>2019-04-08T12:47:06Z</time>
      </trkpt>
      <trkpt lat="45.83373" lon="4.24385">
        <ele>548.24</ele>
        <time>2019-04-08T12:47:12Z</time>
      </trkpt>
      <trkpt lat="45.83379" lon="4.24383">
        <ele>548.357</ele>
        <time>2019-04-08T12:47:17Z</time>
      </trkpt>
      <trkpt lat="45.83384" lon="4.24381">
        <ele>548.766</ele>
        <time>2019-04-08T12:47:23Z</time>
      </trkpt>
      <trkpt lat="45.83389" lon="4.24382">
        <ele>549.484</ele>
        <time>2019-04-08T12:47:29Z</time>
      </trkpt>
      <trkpt lat="45.83394" lon="4.24381">
        <ele>549.957</ele>
        <time>2019-04-08T12:47:34Z</time>
      </trkpt>
      <trkpt lat="45.83399" lon="4.24381">
        <ele>550.052</ele>
        <time>2019-04-08T12:47:40Z</time>
      </trkpt>
      <trkpt lat="45.83404" lon="4.24379">
        <ele>549.966</ele>
        <time>2019-04-08T12:47:45Z</time>
      </trkpt>
      <trkpt lat="45.83409" lon="4.24375">
        <ele>550.566</ele>
        <time>2019-04-08T12:47:50Z</time>
      </trkpt>
      <trkpt lat="45.83414" lon="4.24375">
        <ele>550.749</ele>
        <time>2019-04-08T12:47:55Z</time>
      </trkpt>
      <trkpt lat="45.83418" lon="4.24371">
        <ele>550.762</ele>
        <time>2019-04-08T12:48:01Z</time>
      </trkpt>
      <trkpt lat="45.8342" lon="4.24368">
        <ele>550.851</ele>
        <time>2019-04-08T12:48:07Z</time>
      </trkpt>
      <trkpt lat="45.83427" lon="4.24361">
        <ele>551.224</ele>
        <time>2019-04-08T12:48:13Z</time>
      </trkpt>
      <trkpt lat="45.8343" lon="4.24361">
        <ele>551.579</ele>
        <time>2019-04-08T12:48:19Z</time>
      </trkpt>
      <trkpt lat="45.83434" lon="4.24359">
        <ele>552.104</ele>
        <time>2019-04-08T12:48:24Z</time>
      </trkpt>
      <trkpt lat="45.83436" lon="4.24357">
        <ele>552.622</ele>
        <time>2019-04-08T12:48:29Z</time>
      </trkpt>
      <trkpt lat="45.83442" lon="4.24354">
        <ele>553.621</ele>
        <time>2019-04-08T12:48:34Z</time>
      </trkpt>
      <trkpt lat="45.83449" lon="4.24352">
        <ele>554.486</ele>
        <time>2019-04-08T12:48:40Z</time>
      </trkpt>
      <trkpt lat="45.83455" lon="4.24349">
        <ele>555.647</ele>
        <time>2019-04-08T12:48:46Z</time>
      </trkpt>
      <trkpt lat="45.83464" lon="4.24344">
        <ele>556.696</ele>
        <time>2019-04-08T12:48:52Z</time>
      </trkpt>
      <trkpt lat="45.83468" lon="4.24341">
        <ele>557.429</ele>
        <time>2019-04-08T12:48:57Z</time>
      </trkpt>
      <trkpt lat="45.83476" lon="4.24337">
        <ele>557.912</ele>
        <time>2019-04-08T12:49:03Z</time>
      </trkpt>
      <trkpt lat="45.83479" lon="4.24334">
        <ele>558.409</ele>
        <time>2019-04-08T12:49:09Z</time>
      </trkpt>
      <trkpt lat="45.83481" lon="4.24331">
        <ele>558.907</ele>
        <time>2019-04-08T12:49:14Z</time>
      </trkpt>
      <trkpt lat="45.83485" lon="4.24329">
        <ele>559.374</ele>
        <time>2019-04-08T12:49:19Z</time>
      </trkpt>
      <trkpt lat="45.83489" lon="4.24326">
        <ele>559.87</ele>
        <time>2019-04-08T12:49:25Z</time>
      </trkpt>
      <trkpt lat="45.83493" lon="4.24324">
        <ele>560.441</ele>
        <time>2019-04-08T12:49:30Z</time>
      </trkpt>
      <trkpt lat="45.83498" lon="4.24322">
        <ele>561.028</ele>
        <time>2019-04-08T12:49:36Z</time>
      </trkpt>
      <trkpt lat="45.83502" lon="4.2432">
        <ele>561.556</ele>
        <time>2019-04-08T12:49:41Z</time>
      </trkpt>
      <trkpt lat="45.83507" lon="4.24316">
        <ele>561.991</ele>
        <time>2019-04-08T12:49:47Z</time>
      </trkpt>
      <trkpt lat="45.83511" lon="4.24311">
        <ele>562.415</ele>
        <time>2019-04-08T12:49:53Z</time>
      </trkpt>
      <trkpt lat="45.83514" lon="4.24309">
        <ele>563.086</ele>
        <time>2019-04-08T12:49:58Z</time>
      </trkpt>
      <trkpt lat="45.83518" lon="4.24307">
        <ele>564.118</ele>
        <time>2019-04-08T12:50:04Z</time>
      </trkpt>
      <trkpt lat="45.83522" lon="4.24305">
        <ele>565.248</ele>
        <time>2019-04-08T12:50:10Z</time>
      </trkpt>
      <trkpt lat="45.83527" lon="4.24303">
        <ele>566.577</ele>
        <time>2019-04-08T12:50:16Z</time>
      </trkpt>
      <trkpt lat="45.83529" lon="4.24302">
        <ele>567.648</ele>
        <time>2019-04-08T12:50:21Z</time>
      </trkpt>
      <trkpt lat="45.83533" lon="4.243">
        <ele>568.846</ele>
        <time>2019-04-08T12:50:27Z</time>
      </trkpt>
      <trkpt lat="45.83536" lon="4.24298">
        <ele>569.682</ele>
        <time>2019-04-08T12:50:32Z</time>
      </trkpt>
      <trkpt lat="45.83539" lon="4.24294">
        <ele>570.872</ele>
        <time>2019-04-08T12:50:38Z</time>
      </trkpt>
      <trkpt lat="45.83543" lon="4.24294">
        <ele>571.539</ele>
        <time>2019-04-08T12:50:43Z</time>
      </trkpt>
      <trkpt lat="45.83543" lon="4.24295">
        <ele>571.7</ele>
        <time>2019-04-08T12:50:48Z</time>
      </trkpt>
      <trkpt lat="45.83547" lon="4.24292">
        <ele>571.229</ele>
        <time>2019-04-08T12:50:54Z</time>
      </trkpt>
      <trkpt lat="45.8355" lon="4.24291">
        <ele>571.342</ele>
        <time>2019-04-08T12:50:59Z</time>
      </trkpt>
      <trkpt lat="45.83552" lon="4.24287">
        <ele>571.475</ele>
        <time>2019-04-08T12:51:04Z</time>
      </trkpt>
      <trkpt lat="45.83555" lon="4.24282">
        <ele>571.787</ele>
        <time>2019-04-08T12:51:10Z</time>
      </trkpt>
      <trkpt lat="45.83557" lon="4.24279">
        <ele>572.091</ele>
        <time>2019-04-08T12:51:15Z</time>
      </trkpt>
      <trkpt lat="45.83557" lon="4.24274">
        <ele>572.258</ele>
        <time>2019-04-08T12:51:20Z</time>
      </trkpt>
      <trkpt lat="45.83555" lon="4.24269">
        <ele>572.431</ele>
        <time>2019-04-08T12:51:26Z</time>
      </trkpt>
      <trkpt lat="45.83553" lon="4.24264">
        <ele>572.47</ele>
        <time>2019-04-08T12:51:31Z</time>
      </trkpt>
      <trkpt lat="45.83552" lon="4.24258">
        <ele>572.932</ele>
        <time>2019-04-08T12:51:37Z</time>
      </trkpt>
      <trkpt lat="45.83551" lon="4.24256">
        <ele>573.405</ele>
        <time>2019-04-08T12:51:43Z</time>
      </trkpt>
      <trkpt lat="45.83551" lon="4.24255">
        <ele>574.04</ele>
        <time>2019-04-08T12:51:48Z</time>
      </trkpt>
      <trkpt lat="45.8355" lon="4.24254">
        <ele>574.647</ele>
        <time>2019-04-08T12:51:53Z</time>
      </trkpt>
      <trkpt lat="45.83549" lon="4.24252">
        <ele>575.331</ele>
        <time>2019-04-08T12:52:00Z</time>
      </trkpt>
      <trkpt lat="45.83549" lon="4.24252">
        <ele>575.421</ele>
        <time>2019-04-08T12:52:06Z</time>
      </trkpt>
      <trkpt lat="45.8355" lon="4.24252">
        <ele>575.799</ele>
        <time>2019-04-08T12:52:11Z</time>
      </trkpt>
      <trkpt lat="45.8355" lon="4.24253">
        <ele>576.286</ele>
        <time>2019-04-08T12:52:17Z</time>
      </trkpt>
      <trkpt lat="45.8355" lon="4.24252">
        <ele>576.442</ele>
        <time>2019-04-08T12:52:23Z</time>
      </trkpt>
      <trkpt lat="45.83549" lon="4.2425">
        <ele>576.845</ele>
        <time>2019-04-08T12:52:28Z</time>
      </trkpt>
      <trkpt lat="45.83549" lon="4.24248">
        <ele>577.24</ele>
        <time>2019-04-08T12:52:33Z</time>
      </trkpt>
      <trkpt lat="45.83549" lon="4.24249">
        <ele>577.046</ele>
        <time>2019-04-08T12:52:39Z</time>
      </trkpt>
      <trkpt lat="45.8355" lon="4.24251">
        <ele>576.958</ele>
        <time>2019-04-08T12:52:45Z</time>
      </trkpt>
      <trkpt lat="45.83551" lon="4.24251">
        <ele>576.99</ele>
        <time>2019-04-08T12:52:50Z</time>
      </trkpt>
      <trkpt lat="45.83552" lon="4.24253">
        <ele>577.153</ele>
        <time>2019-04-08T12:52:56Z</time>
      </trkpt>
      <trkpt lat="45.83552" lon="4.24254">
        <ele>577.519</ele>
        <time>2019-04-08T12:53:02Z</time>
      </trkpt>
      <trkpt lat="45.83551" lon="4.24255">
        <ele>577.545</ele>
        <time>2019-04-08T12:53:07Z</time>
      </trkpt>
      <trkpt lat="45.83551" lon="4.24256">
        <ele>577.577</ele>
        <time>2019-04-08T12:53:12Z</time>
      </trkpt>
      <trkpt lat="45.83551" lon="4.24257">
        <ele>577.826</ele>
        <time>2019-04-08T12:53:18Z</time>
      </trkpt>
      <trkpt lat="45.8355" lon="4.24257">
        <ele>578.561</ele>
        <time>2019-04-08T12:53:23Z</time>
      </trkpt>
      <trkpt lat="45.8355" lon="4.24255">
        <ele>579.34</ele>
        <time>2019-04-08T12:53:29Z</time>
      </trkpt>
      <trkpt lat="45.83552" lon="4.24255">
        <ele>579.381</ele>
        <time>2019-04-08T12:53:34Z</time>
      </trkpt>
      <trkpt lat="45.83552" lon="4.24254">
        <ele>579.206</ele>
        <time>2019-04-08T12:53:39Z</time>
      </trkpt>
      <trkpt lat="45.83551" lon="4.24254">
        <ele>579.127</ele>
        <time>2019-04-08T12:53:45Z</time>
      </trkpt>
      <trkpt lat="45.83551" lon="4.24254">
        <ele>579.218</ele>
        <time>2019-04-08T12:53:50Z</time>
      </trkpt>
      <trkpt lat="45.83551" lon="4.24253">
        <ele>579.265</ele>
        <time>2019-04-08T12:53:56Z</time>
      </trkpt>
      <trkpt lat="45.83551" lon="4.24254">
        <ele>579.174</ele>
        <time>2019-04-08T12:54:01Z</time>
      </trkpt>
      <trkpt lat="45.8355" lon="4.24252">
        <ele>578.808</ele>
        <time>2019-04-08T12:54:07Z</time>
      </trkpt>
      <trkpt lat="45.83551" lon="4.24251">
        <ele>579.061</ele>
        <time>2019-04-08T12:54:12Z</time>
      </trkpt>
      <trkpt lat="45.83551" lon="4.24252">
        <ele>578.963</ele>
        <time>2019-04-08T12:54:17Z</time>
      </trkpt>
      <trkpt lat="45.83552" lon="4.24256">
        <ele>578.791</ele>
        <time>2019-04-08T12:54:23Z</time>
      </trkpt>
      <trkpt lat="45.83556" lon="4.24254">
        <ele>577.74</ele>
        <time>2019-04-08T12:54:29Z</time>
      </trkpt>
      <trkpt lat="45.83563" lon="4.2425">
        <ele>577.158</ele>
        <time>2019-04-08T12:54:35Z</time>
      </trkpt>
      <trkpt lat="45.83568" lon="4.24247">
        <ele>576.788</ele>
        <time>2019-04-08T12:54:41Z</time>
      </trkpt>
      <trkpt lat="45.83575" lon="4.24244">
        <ele>576.979</ele>
        <time>2019-04-08T12:54:47Z</time>
      </trkpt>
      <trkpt lat="45.8358" lon="4.24241">
        <ele>577.073</ele>
        <time>2019-04-08T12:54:52Z</time>
      </trkpt>
      <trkpt lat="45.83587" lon="4.24235">
        <ele>577.703</ele>
        <time>2019-04-08T12:54:58Z</time>
      </trkpt>
      <trkpt lat="45.83595" lon="4.24231">
        <ele>578.064</ele>
        <time>2019-04-08T12:55:04Z</time>
      </trkpt>
      <trkpt lat="45.836" lon="4.24225">
        <ele>578.229</ele>
        <time>2019-04-08T12:55:09Z</time>
      </trkpt>
      <trkpt lat="45.83605" lon="4.24222">
        <ele>578.756</ele>
        <time>2019-04-08T12:55:15Z</time>
      </trkpt>
      <trkpt lat="45.83608" lon="4.24217">
        <ele>579.268</ele>
        <time>2019-04-08T12:55:20Z</time>
      </trkpt>
      <trkpt lat="45.83613" lon="4.24212">
        <ele>579.652</ele>
        <time>2019-04-08T12:55:25Z</time>
      </trkpt>
      <trkpt lat="45.8362" lon="4.24207">
        <ele>579.527</ele>
        <time>2019-04-08T12:55:31Z</time>
      </trkpt>
      <trkpt lat="45.83626" lon="4.24201">
        <ele>579.72</ele>
        <time>2019-04-08T12:55:37Z</time>
      </trkpt>
      <trkpt lat="45.83631" lon="4.24197">
        <ele>579.788</ele>
        <time>2019-04-08T12:55:43Z</time>
      </trkpt>
      <trkpt lat="45.83637" lon="4.24194">
        <ele>580.114</ele>
        <time>2019-04-08T12:55:49Z</time>
      </trkpt>
      <trkpt lat="45.83644" lon="4.2419">
        <ele>580.334</ele>
        <time>2019-04-08T12:55:55Z</time>
      </trkpt>
      <trkpt lat="45.83651" lon="4.24185">
        <ele>580.375</ele>
        <time>2019-04-08T12:56:01Z</time>
      </trkpt>
      <trkpt lat="45.83656" lon="4.24182">
        <ele>580.664</ele>
        <time>2019-04-08T12:56:06Z</time>
      </trkpt>
      <trkpt lat="45.83662" lon="4.24177">
        <ele>581.248</ele>
        <time>2019-04-08T12:56:12Z</time>
      </trkpt>
      <trkpt lat="45.83667" lon="4.24174">
        <ele>581.745</ele>
        <time>2019-04-08T12:56:17Z</time>
      </trkpt>
      <trkpt lat="45.83672" lon="4.24167">
        <ele>582.276</ele>
        <time>2019-04-08T12:56:23Z</time>
      </trkpt>
      <trkpt lat="45.83676" lon="4.24161">
        <ele>582.805</ele>
        <time>2019-04-08T12:56:29Z</time>
      </trkpt>
      <trkpt lat="45.83683" lon="4.24156">
        <ele>583.401</ele>
        <time>2019-04-08T12:56:35Z</time>
      </trkpt>
      <trkpt lat="45.83687" lon="4.24148">
        <ele>583.812</ele>
        <time>2019-04-08T12:56:40Z</time>
      </trkpt>
      <trkpt lat="45.83689" lon="4.24143">
        <ele>584.675</ele>
        <time>2019-04-08T12:56:45Z</time>
      </trkpt>
      <trkpt lat="45.83693" lon="4.24137">
        <ele>585.348</ele>
        <time>2019-04-08T12:56:51Z</time>
      </trkpt>
      <trkpt lat="45.83699" lon="4.24134">
        <ele>586.047</ele>
        <time>2019-04-08T12:56:57Z</time>
      </trkpt>
      <trkpt lat="45.83704" lon="4.24138">
        <ele>586.836</ele>
        <time>2019-04-08T12:57:03Z</time>
      </trkpt>
      <trkpt lat="45.83708" lon="4.24145">
        <ele>586.864</ele>
        <time>2019-04-08T12:57:08Z</time>
      </trkpt>
      <trkpt lat="45.83709" lon="4.24151">
        <ele>586.911</ele>
        <time>2019-04-08T12:57:13Z</time>
      </trkpt>
      <trkpt lat="45.83713" lon="4.24161">
        <ele>586.886</ele>
        <time>2019-04-08T12:57:19Z</time>
      </trkpt>
      <trkpt lat="45.83717" lon="4.2417">
        <ele>587.33</ele>
        <time>2019-04-08T12:57:25Z</time>
      </trkpt>
      <trkpt lat="45.83719" lon="4.24178">
        <ele>588.128</ele>
        <time>2019-04-08T12:57:31Z</time>
      </trkpt>
      <trkpt lat="45.83719" lon="4.24185">
        <ele>588.411</ele>
        <time>2019-04-08T12:57:36Z</time>
      </trkpt>
      <trkpt lat="45.8372" lon="4.24191">
        <ele>588.687</ele>
        <time>2019-04-08T12:57:42Z</time>
      </trkpt>
      <trkpt lat="45.83721" lon="4.24201">
        <ele>589.161</ele>
        <time>2019-04-08T12:57:48Z</time>
      </trkpt>
      <trkpt lat="45.83723" lon="4.24211">
        <ele>589.127</ele>
        <time>2019-04-08T12:57:54Z</time>
      </trkpt>
      <trkpt lat="45.83723" lon="4.24217">
        <ele>588.88</ele>
        <time>2019-04-08T12:57:59Z</time>
      </trkpt>
      <trkpt lat="45.83724" lon="4.24223">
        <ele>588.992</ele>
        <time>2019-04-08T12:58:04Z</time>
      </trkpt>
      <trkpt lat="45.83725" lon="4.24228">
        <ele>589.319</ele>
        <time>2019-04-08T12:58:10Z</time>
      </trkpt>
      <trkpt lat="45.83724" lon="4.24233">
        <ele>589.771</ele>
        <time>2019-04-08T12:58:15Z</time>
      </trkpt>
      <trkpt lat="45.83724" lon="4.24241">
        <ele>590.466</ele>
        <time>2019-04-08T12:58:21Z</time>
      </trkpt>
      <trkpt lat="45.83725" lon="4.24243">
        <ele>590.932</ele>
        <time>2019-04-08T12:58:26Z</time>
      </trkpt>
      <trkpt lat="45.83725" lon="4.24252">
        <ele>591.7</ele>
        <time>2019-04-08T12:58:33Z</time>
      </trkpt>
      <trkpt lat="45.83726" lon="4.2426">
        <ele>592.326</ele>
        <time>2019-04-08T12:58:38Z</time>
      </trkpt>
      <trkpt lat="45.83726" lon="4.24266">
        <ele>593.161</ele>
        <time>2019-04-08T12:58:43Z</time>
      </trkpt>
      <trkpt lat="45.83726" lon="4.24271">
        <ele>593.621</ele>
        <time>2019-04-08T12:58:48Z</time>
      </trkpt>
      <trkpt lat="45.83725" lon="4.24277">
        <ele>594.264</ele>
        <time>2019-04-08T12:58:54Z</time>
      </trkpt>
      <trkpt lat="45.83727" lon="4.24277">
        <ele>594.25</ele>
        <time>2019-04-08T12:59:00Z</time>
      </trkpt>
      <trkpt lat="45.83725" lon="4.24276">
        <ele>594.29</ele>
        <time>2019-04-08T12:59:05Z</time>
      </trkpt>
      <trkpt lat="45.83727" lon="4.24275">
        <ele>594.314</ele>
        <time>2019-04-08T12:59:10Z</time>
      </trkpt>
      <trkpt lat="45.83725" lon="4.24277">
        <ele>594.361</ele>
        <time>2019-04-08T12:59:16Z</time>
      </trkpt>
      <trkpt lat="45.83722" lon="4.24276">
        <ele>594.326</ele>
        <time>2019-04-08T12:59:21Z</time>
      </trkpt>
      <trkpt lat="45.83722" lon="4.24278">
        <ele>594.861</ele>
        <time>2019-04-08T12:59:27Z</time>
      </trkpt>
      <trkpt lat="45.83724" lon="4.24284">
        <ele>595.58</ele>
        <time>2019-04-08T12:59:33Z</time>
      </trkpt>
      <trkpt lat="45.83724" lon="4.24286">
        <ele>595.7</ele>
        <time>2019-04-08T12:59:39Z</time>
      </trkpt>
      <trkpt lat="45.83725" lon="4.24282">
        <ele>595.734</ele>
        <time>2019-04-08T12:59:45Z</time>
      </trkpt>
      <trkpt lat="45.83727" lon="4.24281">
        <ele>595.515</ele>
        <time>2019-04-08T12:59:50Z</time>
      </trkpt>
      <trkpt lat="45.83729" lon="4.2428">
        <ele>595.33</ele>
        <time>2019-04-08T12:59:56Z</time>
      </trkpt>
      <trkpt lat="45.83728" lon="4.24285">
        <ele>595.229</ele>
        <time>2019-04-08T13:00:02Z</time>
      </trkpt>
      <trkpt lat="45.83725" lon="4.24289">
        <ele>595.63</ele>
        <time>2019-04-08T13:00:08Z</time>
      </trkpt>
      <trkpt lat="45.83724" lon="4.24289">
        <ele>596.06</ele>
        <time>2019-04-08T13:00:14Z</time>
      </trkpt>
      <trkpt lat="45.83724" lon="4.24292">
        <ele>596.088</ele>
        <time>2019-04-08T13:00:19Z</time>
      </trkpt>
      <trkpt lat="45.83724" lon="4.24292">
        <ele>595.842</ele>
        <time>2019-04-08T13:00:25Z</time>
      </trkpt>
      <trkpt lat="45.83723" lon="4.24292">
        <ele>595.538</ele>
        <time>2019-04-08T13:00:31Z</time>
      </trkpt>
      <trkpt lat="45.83724" lon="4.24293">
        <ele>595.504</ele>
        <time>2019-04-08T13:00:36Z</time>
      </trkpt>
      <trkpt lat="45.83725" lon="4.24295">
        <ele>595.535</ele>
        <time>2019-04-08T13:00:42Z</time>
      </trkpt>
      <trkpt lat="45.83725" lon="4.24297">
        <ele>595.582</ele>
        <time>2019-04-08T13:00:48Z</time>
      </trkpt>
      <trkpt lat="45.83726" lon="4.243">
        <ele>595.631</ele>
        <time>2019-04-08T13:00:53Z</time>
      </trkpt>
      <trkpt lat="45.83727" lon="4.2431">
        <ele>596.02</ele>
        <time>2019-04-08T13:00:59Z</time>
      </trkpt>
      <trkpt lat="45.83728" lon="4.24318">
        <ele>596.272</ele>
        <time>2019-04-08T13:01:05Z</time>
      </trkpt>
      <trkpt lat="45.83729" lon="4.24326">
        <ele>596.024</ele>
        <time>2019-04-08T13:01:10Z</time>
      </trkpt>
      <trkpt lat="45.83732" lon="4.24333">
        <ele>595.931</ele>
        <time>2019-04-08T13:01:16Z</time>
      </trkpt>
      <trkpt lat="45.83732" lon="4.24336">
        <ele>596.003</ele>
        <time>2019-04-08T13:01:21Z</time>
      </trkpt>
      <trkpt lat="45.83731" lon="4.24335">
        <ele>595.947</ele>
        <time>2019-04-08T13:01:26Z</time>
      </trkpt>
      <trkpt lat="45.83731" lon="4.24334">
        <ele>595.535</ele>
        <time>2019-04-08T13:01:32Z</time>
      </trkpt>
      <trkpt lat="45.83733" lon="4.24336">
        <ele>594.788</ele>
        <time>2019-04-08T13:01:37Z</time>
      </trkpt>
      <trkpt lat="45.83734" lon="4.24335">
        <ele>594.35</ele>
        <time>2019-04-08T13:01:43Z</time>
      </trkpt>
      <trkpt lat="45.83735" lon="4.24336">
        <ele>594.753</ele>
        <time>2019-04-08T13:01:49Z</time>
      </trkpt>
      <trkpt lat="45.83736" lon="4.2434">
        <ele>595.151</ele>
        <time>2019-04-08T13:01:55Z</time>
      </trkpt>
      <trkpt lat="45.83737" lon="4.24347">
        <ele>595.329</ele>
        <time>2019-04-08T13:02:01Z</time>
      </trkpt>
      <trkpt lat="45.83738" lon="4.24355">
        <ele>595.415</ele>
        <time>2019-04-08T13:02:06Z</time>
      </trkpt>
      <trkpt lat="45.83739" lon="4.24365">
        <ele>595.19</ele>
        <time>2019-04-08T13:02:12Z</time>
      </trkpt>
      <trkpt lat="45.83741" lon="4.24374">
        <ele>595.182</ele>
        <time>2019-04-08T13:02:17Z</time>
      </trkpt>
      <trkpt lat="45.83743" lon="4.24382">
        <ele>595.801</ele>
        <time>2019-04-08T13:02:23Z</time>
      </trkpt>
      <trkpt lat="45.83745" lon="4.24392">
        <ele>596.681</ele>
        <time>2019-04-08T13:02:29Z</time>
      </trkpt>
      <trkpt lat="45.83744" lon="4.244">
        <ele>596.863</ele>
        <time>2019-04-08T13:02:34Z</time>
      </trkpt>
      <trkpt lat="45.83744" lon="4.24408">
        <ele>597.019</ele>
        <time>2019-04-08T13:02:39Z</time>
      </trkpt>
      <trkpt lat="45.83745" lon="4.24421">
        <ele>596.731</ele>
        <time>2019-04-08T13:02:45Z</time>
      </trkpt>
      <trkpt lat="45.83745" lon="4.24428">
        <ele>596.876</ele>
        <time>2019-04-08T13:02:51Z</time>
      </trkpt>
      <trkpt lat="45.83743" lon="4.24438">
        <ele>596.647</ele>
        <time>2019-04-08T13:02:57Z</time>
      </trkpt>
      <trkpt lat="45.83743" lon="4.24447">
        <ele>596.703</ele>
        <time>2019-04-08T13:03:02Z</time>
      </trkpt>
      <trkpt lat="45.83742" lon="4.24456">
        <ele>596.927</ele>
        <time>2019-04-08T13:03:08Z</time>
      </trkpt>
      <trkpt lat="45.83741" lon="4.24463">
        <ele>597.07</ele>
        <time>2019-04-08T13:03:13Z</time>
      </trkpt>
      <trkpt lat="45.8374" lon="4.24472">
        <ele>596.846</ele>
        <time>2019-04-08T13:03:19Z</time>
      </trkpt>
      <trkpt lat="45.83739" lon="4.24478">
        <ele>596.495</ele>
        <time>2019-04-08T13:03:24Z</time>
      </trkpt>
      <trkpt lat="45.8374" lon="4.24487">
        <ele>595.983</ele>
        <time>2019-04-08T13:03:30Z</time>
      </trkpt>
      <trkpt lat="45.83741" lon="4.24492">
        <ele>595.759</ele>
        <time>2019-04-08T13:03:35Z</time>
      </trkpt>
      <trkpt lat="45.83742" lon="4.24502">
        <ele>595.494</ele>
        <time>2019-04-08T13:03:41Z</time>
      </trkpt>
      <trkpt lat="45.83744" lon="4.24507">
        <ele>595.776</ele>
        <time>2019-04-08T13:03:47Z</time>
      </trkpt>
      <trkpt lat="45.83746" lon="4.24512">
        <ele>596.136</ele>
        <time>2019-04-08T13:03:52Z</time>
      </trkpt>
      <trkpt lat="45.83751" lon="4.24517">
        <ele>596.795</ele>
        <time>2019-04-08T13:03:58Z</time>
      </trkpt>
      <trkpt lat="45.83754" lon="4.24523">
        <ele>597.441</ele>
        <time>2019-04-08T13:04:03Z</time>
      </trkpt>
      <trkpt lat="45.83756" lon="4.24531">
        <ele>597.874</ele>
        <time>2019-04-08T13:04:09Z</time>
      </trkpt>
      <trkpt lat="45.8376" lon="4.24536">
        <ele>598.132</ele>
        <time>2019-04-08T13:04:14Z</time>
      </trkpt>
      <trkpt lat="45.83763" lon="4.24543">
        <ele>598.338</ele>
        <time>2019-04-08T13:04:20Z</time>
      </trkpt>
      <trkpt lat="45.83767" lon="4.24551">
        <ele>598.876</ele>
        <time>2019-04-08T13:04:26Z</time>
      </trkpt>
      <trkpt lat="45.83771" lon="4.24558">
        <ele>599.035</ele>
        <time>2019-04-08T13:04:31Z</time>
      </trkpt>
      <trkpt lat="45.83774" lon="4.24562">
        <ele>599.134</ele>
        <time>2019-04-08T13:04:36Z</time>
      </trkpt>
      <trkpt lat="45.83778" lon="4.24569">
        <ele>599.75</ele>
        <time>2019-04-08T13:04:42Z</time>
      </trkpt>
      <trkpt lat="45.83781" lon="4.24571">
        <ele>600.479</ele>
        <time>2019-04-08T13:04:48Z</time>
      </trkpt>
      <trkpt lat="45.83785" lon="4.24573">
        <ele>600.965</ele>
        <time>2019-04-08T13:04:53Z</time>
      </trkpt>
      <trkpt lat="45.8379" lon="4.24577">
        <ele>601.541</ele>
        <time>2019-04-08T13:04:59Z</time>
      </trkpt>
      <trkpt lat="45.83795" lon="4.24582">
        <ele>601.98</ele>
        <time>2019-04-08T13:05:05Z</time>
      </trkpt>
      <trkpt lat="45.83798" lon="4.24586">
        <ele>602.203</ele>
        <time>2019-04-08T13:05:10Z</time>
      </trkpt>
      <trkpt lat="45.83803" lon="4.24589">
        <ele>602.363</ele>
        <time>2019-04-08T13:05:16Z</time>
      </trkpt>
      <trkpt lat="45.8381" lon="4.24592">
        <ele>602.781</ele>
        <time>2019-04-08T13:05:22Z</time>
      </trkpt>
      <trkpt lat="45.83815" lon="4.24594">
        <ele>603.417</ele>
        <time>2019-04-08T13:05:28Z</time>
      </trkpt>
      <trkpt lat="45.83821" lon="4.24596">
        <ele>604.093</ele>
        <time>2019-04-08T13:05:33Z</time>
      </trkpt>
      <trkpt lat="45.83825" lon="4.24601">
        <ele>605.476</ele>
        <time>2019-04-08T13:05:39Z</time>
      </trkpt>
      <trkpt lat="45.83831" lon="4.24605">
        <ele>606.637</ele>
        <time>2019-04-08T13:05:45Z</time>
      </trkpt>
      <trkpt lat="45.83836" lon="4.2461">
        <ele>607.337</ele>
        <time>2019-04-08T13:05:51Z</time>
      </trkpt>
      <trkpt lat="45.83842" lon="4.24613">
        <ele>608.16</ele>
        <time>2019-04-08T13:05:57Z</time>
      </trkpt>
      <trkpt lat="45.83847" lon="4.24618">
        <ele>608.826</ele>
        <time>2019-04-08T13:06:03Z</time>
      </trkpt>
      <trkpt lat="45.8385" lon="4.24621">
        <ele>609.491</ele>
        <time>2019-04-08T13:06:08Z</time>
      </trkpt>
      <trkpt lat="45.83856" lon="4.24625">
        <ele>609.588</ele>
        <time>2019-04-08T13:06:14Z</time>
      </trkpt>
      <trkpt lat="45.83861" lon="4.24628">
        <ele>609.639</ele>
        <time>2019-04-08T13:06:19Z</time>
      </trkpt>
      <trkpt lat="45.83867" lon="4.24634">
        <ele>609.948</ele>
        <time>2019-04-08T13:06:25Z</time>
      </trkpt>
      <trkpt lat="45.83872" lon="4.24638">
        <ele>610.268</ele>
        <time>2019-04-08T13:06:30Z</time>
      </trkpt>
      <trkpt lat="45.83878" lon="4.24642">
        <ele>610.954</ele>
        <time>2019-04-08T13:06:36Z</time>
      </trkpt>
      <trkpt lat="45.83886" lon="4.24646">
        <ele>611.891</ele>
        <time>2019-04-08T13:06:42Z</time>
      </trkpt>
      <trkpt lat="45.83893" lon="4.24652">
        <ele>613.002</ele>
        <time>2019-04-08T13:06:48Z</time>
      </trkpt>
      <trkpt lat="45.83899" lon="4.24656">
        <ele>613.772</ele>
        <time>2019-04-08T13:06:53Z</time>
      </trkpt>
      <trkpt lat="45.83907" lon="4.24661">
        <ele>615.091</ele>
        <time>2019-04-08T13:06:59Z</time>
      </trkpt>
      <trkpt lat="45.83912" lon="4.24663">
        <ele>615.985</ele>
        <time>2019-04-08T13:07:04Z</time>
      </trkpt>
      <trkpt lat="45.83916" lon="4.24666">
        <ele>616.624</ele>
        <time>2019-04-08T13:07:10Z</time>
      </trkpt>
      <trkpt lat="45.8392" lon="4.2467">
        <ele>616.708</ele>
        <time>2019-04-08T13:07:15Z</time>
      </trkpt>
      <trkpt lat="45.83924" lon="4.24674">
        <ele>616.804</ele>
        <time>2019-04-08T13:07:21Z</time>
      </trkpt>
      <trkpt lat="45.83928" lon="4.24677">
        <ele>617.295</ele>
        <time>2019-04-08T13:07:26Z</time>
      </trkpt>
      <trkpt lat="45.83935" lon="4.24681">
        <ele>617.551</ele>
        <time>2019-04-08T13:07:32Z</time>
      </trkpt>
      <trkpt lat="45.83939" lon="4.24685">
        <ele>617.431</ele>
        <time>2019-04-08T13:07:37Z</time>
      </trkpt>
      <trkpt lat="45.83945" lon="4.24689">
        <ele>617.438</ele>
        <time>2019-04-08T13:07:43Z</time>
      </trkpt>
      <trkpt lat="45.83951" lon="4.24695">
        <ele>616.796</ele>
        <time>2019-04-08T13:07:49Z</time>
      </trkpt>
      <trkpt lat="45.83955" lon="4.24701">
        <ele>616.559</ele>
        <time>2019-04-08T13:07:55Z</time>
      </trkpt>
      <trkpt lat="45.83964" lon="4.24707">
        <ele>616.26</ele>
        <time>2019-04-08T13:08:01Z</time>
      </trkpt>
      <trkpt lat="45.83969" lon="4.2471">
        <ele>615.697</ele>
        <time>2019-04-08T13:08:07Z</time>
      </trkpt>
      <trkpt lat="45.83975" lon="4.24714">
        <ele>615.593</ele>
        <time>2019-04-08T13:08:13Z</time>
      </trkpt>
      <trkpt lat="45.8398" lon="4.24719">
        <ele>615.447</ele>
        <time>2019-04-08T13:08:19Z</time>
      </trkpt>
      <trkpt lat="45.83988" lon="4.24726">
        <ele>614.799</ele>
        <time>2019-04-08T13:08:25Z</time>
      </trkpt>
      <trkpt lat="45.83995" lon="4.24729">
        <ele>614.321</ele>
        <time>2019-04-08T13:08:31Z</time>
      </trkpt>
      <trkpt lat="45.83998" lon="4.24733">
        <ele>613.838</ele>
        <time>2019-04-08T13:08:36Z</time>
      </trkpt>
      <trkpt lat="45.84001" lon="4.24738">
        <ele>613.451</ele>
        <time>2019-04-08T13:08:41Z</time>
      </trkpt>
      <trkpt lat="45.84002" lon="4.24744">
        <ele>613.433</ele>
        <time>2019-04-08T13:08:47Z</time>
      </trkpt>
      <trkpt lat="45.84002" lon="4.2475">
        <ele>613.127</ele>
        <time>2019-04-08T13:08:53Z</time>
      </trkpt>
      <trkpt lat="45.84" lon="4.2476">
        <ele>613.037</ele>
        <time>2019-04-08T13:08:58Z</time>
      </trkpt>
      <trkpt lat="45.83999" lon="4.24766">
        <ele>612.833</ele>
        <time>2019-04-08T13:09:03Z</time>
      </trkpt>
      <trkpt lat="45.84001" lon="4.24772">
        <ele>612.373</ele>
        <time>2019-04-08T13:09:08Z</time>
      </trkpt>
      <trkpt lat="45.84005" lon="4.24779">
        <ele>612.185</ele>
        <time>2019-04-08T13:09:14Z</time>
      </trkpt>
      <trkpt lat="45.8401" lon="4.24783">
        <ele>612.215</ele>
        <time>2019-04-08T13:09:20Z</time>
      </trkpt>
      <trkpt lat="45.84011" lon="4.24789">
        <ele>612.088</ele>
        <time>2019-04-08T13:09:26Z</time>
      </trkpt>
      <trkpt lat="45.84012" lon="4.24791">
        <ele>611.939</ele>
        <time>2019-04-08T13:09:32Z</time>
      </trkpt>
      <trkpt lat="45.84013" lon="4.24794">
        <ele>611.432</ele>
        <time>2019-04-08T13:09:37Z</time>
      </trkpt>
      <trkpt lat="45.84013" lon="4.24793">
        <ele>610.877</ele>
        <time>2019-04-08T13:09:43Z</time>
      </trkpt>
      <trkpt lat="45.84014" lon="4.24793">
        <ele>610.604</ele>
        <time>2019-04-08T13:09:48Z</time>
      </trkpt>
      <trkpt lat="45.84013" lon="4.24793">
        <ele>610.445</ele>
        <time>2019-04-08T13:09:53Z</time>
      </trkpt>
      <trkpt lat="45.84014" lon="4.24792">
        <ele>610.364</ele>
        <time>2019-04-08T13:09:59Z</time>
      </trkpt>
      <trkpt lat="45.84013" lon="4.24792">
        <ele>610.248</ele>
        <time>2019-04-08T13:10:04Z</time>
      </trkpt>
      <trkpt lat="45.84014" lon="4.24793">
        <ele>610.504</ele>
        <time>2019-04-08T13:10:10Z</time>
      </trkpt>
      <trkpt lat="45.84015" lon="4.24794">
        <ele>610.746</ele>
        <time>2019-04-08T13:10:17Z</time>
      </trkpt>
      <trkpt lat="45.84017" lon="4.24793">
        <ele>611.275</ele>
        <time>2019-04-08T13:10:22Z</time>
      </trkpt>
      <trkpt lat="45.84018" lon="4.24792">
        <ele>612.084</ele>
        <time>2019-04-08T13:10:28Z</time>
      </trkpt>
      <trkpt lat="45.84019" lon="4.24792">
        <ele>612.717</ele>
        <time>2019-04-08T13:10:34Z</time>
      </trkpt>
      <trkpt lat="45.8402" lon="4.24791">
        <ele>612.609</ele>
        <time>2019-04-08T13:10:40Z</time>
      </trkpt>
      <trkpt lat="45.84018" lon="4.24791">
        <ele>612.408</ele>
        <time>2019-04-08T13:10:45Z</time>
      </trkpt>
      <trkpt lat="45.84018" lon="4.24791">
        <ele>612.425</ele>
        <time>2019-04-08T13:10:50Z</time>
      </trkpt>
      <trkpt lat="45.84019" lon="4.24795">
        <ele>612.658</ele>
        <time>2019-04-08T13:10:56Z</time>
      </trkpt>
      <trkpt lat="45.8402" lon="4.24797">
        <ele>612.929</ele>
        <time>2019-04-08T13:11:01Z</time>
      </trkpt>
      <trkpt lat="45.84019" lon="4.24795">
        <ele>612.964</ele>
        <time>2019-04-08T13:11:07Z</time>
      </trkpt>
      <trkpt lat="45.8402" lon="4.24796">
        <ele>613.204</ele>
        <time>2019-04-08T13:11:13Z</time>
      </trkpt>
      <trkpt lat="45.8402" lon="4.24801">
        <ele>613.343</ele>
        <time>2019-04-08T13:11:19Z</time>
      </trkpt>
      <trkpt lat="45.84022" lon="4.24806">
        <ele>613.263</ele>
        <time>2019-04-08T13:11:25Z</time>
      </trkpt>
      <trkpt lat="45.84024" lon="4.24811">
        <ele>613.094</ele>
        <time>2019-04-08T13:11:30Z</time>
      </trkpt>
      <trkpt lat="45.84027" lon="4.24818">
        <ele>612.891</ele>
        <time>2019-04-08T13:11:37Z</time>
      </trkpt>
      <trkpt lat="45.84027" lon="4.24822">
        <ele>612.83</ele>
        <time>2019-04-08T13:11:42Z</time>
      </trkpt>
      <trkpt lat="45.84031" lon="4.24836">
        <ele>612.499</ele>
        <time>2019-04-08T13:11:48Z</time>
      </trkpt>
      <trkpt lat="45.84038" lon="4.24842">
        <ele>612.206</ele>
        <time>2019-04-08T13:11:54Z</time>
      </trkpt>
      <trkpt lat="45.84042" lon="4.24846">
        <ele>611.917</ele>
        <time>2019-04-08T13:11:59Z</time>
      </trkpt>
      <trkpt lat="45.84049" lon="4.2485">
        <ele>612.155</ele>
        <time>2019-04-08T13:12:05Z</time>
      </trkpt>
      <trkpt lat="45.84053" lon="4.24856">
        <ele>612.085</ele>
        <time>2019-04-08T13:12:10Z</time>
      </trkpt>
      <trkpt lat="45.84057" lon="4.2486">
        <ele>612.047</ele>
        <time>2019-04-08T13:12:16Z</time>
      </trkpt>
      <trkpt lat="45.84062" lon="4.24865">
        <ele>611.255</ele>
        <time>2019-04-08T13:12:22Z</time>
      </trkpt>
      <trkpt lat="45.84066" lon="4.24869">
        <ele>610.669</ele>
        <time>2019-04-08T13:12:27Z</time>
      </trkpt>
      <trkpt lat="45.84069" lon="4.24872">
        <ele>610.558</ele>
        <time>2019-04-08T13:12:33Z</time>
      </trkpt>
      <trkpt lat="45.84075" lon="4.24874">
        <ele>610.393</ele>
        <time>2019-04-08T13:12:38Z</time>
      </trkpt>
      <trkpt lat="45.84079" lon="4.24875">
        <ele>609.869</ele>
        <time>2019-04-08T13:12:44Z</time>
      </trkpt>
      <trkpt lat="45.84085" lon="4.24878">
        <ele>609.063</ele>
        <time>2019-04-08T13:12:49Z</time>
      </trkpt>
      <trkpt lat="45.84092" lon="4.24877">
        <ele>608.556</ele>
        <time>2019-04-08T13:12:55Z</time>
      </trkpt>
      <trkpt lat="45.84097" lon="4.24878">
        <ele>608.084</ele>
        <time>2019-04-08T13:13:00Z</time>
      </trkpt>
      <trkpt lat="45.841" lon="4.24877">
        <ele>607.499</ele>
        <time>2019-04-08T13:13:06Z</time>
      </trkpt>
      <trkpt lat="45.84104" lon="4.24876">
        <ele>607.525</ele>
        <time>2019-04-08T13:13:11Z</time>
      </trkpt>
      <trkpt lat="45.84109" lon="4.24874">
        <ele>606.934</ele>
        <time>2019-04-08T13:13:17Z</time>
      </trkpt>
      <trkpt lat="45.84115" lon="4.24874">
        <ele>606.86</ele>
        <time>2019-04-08T13:13:23Z</time>
      </trkpt>
      <trkpt lat="45.84119" lon="4.24875">
        <ele>606.096</ele>
        <time>2019-04-08T13:13:28Z</time>
      </trkpt>
      <trkpt lat="45.84125" lon="4.24879">
        <ele>604.896</ele>
        <time>2019-04-08T13:13:33Z</time>
      </trkpt>
      <trkpt lat="45.84129" lon="4.2488">
        <ele>603.202</ele>
        <time>2019-04-08T13:13:39Z</time>
      </trkpt>
      <trkpt lat="45.84133" lon="4.24878">
        <ele>602.009</ele>
        <time>2019-04-08T13:13:45Z</time>
      </trkpt>
      <trkpt lat="45.84139" lon="4.24877">
        <ele>600.416</ele>
        <time>2019-04-08T13:13:51Z</time>
      </trkpt>
      <trkpt lat="45.84144" lon="4.24877">
        <ele>599.687</ele>
        <time>2019-04-08T13:13:56Z</time>
      </trkpt>
      <trkpt lat="45.8415" lon="4.24875">
        <ele>599.746</ele>
        <time>2019-04-08T13:14:03Z</time>
      </trkpt>
      <trkpt lat="45.84157" lon="4.24874">
        <ele>598.856</ele>
        <time>2019-04-08T13:14:08Z</time>
      </trkpt>
      <trkpt lat="45.8416" lon="4.24872">
        <ele>597.964</ele>
        <time>2019-04-08T13:14:13Z</time>
      </trkpt>
      <trkpt lat="45.84166" lon="4.24869">
        <ele>597.528</ele>
        <time>2019-04-08T13:14:18Z</time>
      </trkpt>
      <trkpt lat="45.84175" lon="4.24863">
        <ele>596.868</ele>
        <time>2019-04-08T13:14:24Z</time>
      </trkpt>
      <trkpt lat="45.84184" lon="4.2486">
        <ele>596.879</ele>
        <time>2019-04-08T13:14:30Z</time>
      </trkpt>
      <trkpt lat="45.84189" lon="4.24864">
        <ele>596.55</ele>
        <time>2019-04-08T13:14:35Z</time>
      </trkpt>
      <trkpt lat="45.84199" lon="4.24873">
        <ele>596.376</ele>
        <time>2019-04-08T13:14:41Z</time>
      </trkpt>
      <trkpt lat="45.84202" lon="4.24879">
        <ele>596.783</ele>
        <time>2019-04-08T13:14:46Z</time>
      </trkpt>
      <trkpt lat="45.84203" lon="4.24888">
        <ele>597.077</ele>
        <time>2019-04-08T13:14:52Z</time>
      </trkpt>
      <trkpt lat="45.84207" lon="4.24899">
        <ele>597.112</ele>
        <time>2019-04-08T13:14:58Z</time>
      </trkpt>
      <trkpt lat="45.84208" lon="4.24905">
        <ele>597.247</ele>
        <time>2019-04-08T13:15:04Z</time>
      </trkpt>
      <trkpt lat="45.84207" lon="4.24912">
        <ele>597.493</ele>
        <time>2019-04-08T13:15:10Z</time>
      </trkpt>
      <trkpt lat="45.84209" lon="4.24918">
        <ele>597.566</ele>
        <time>2019-04-08T13:15:15Z</time>
      </trkpt>
      <trkpt lat="45.84209" lon="4.24928">
        <ele>596.598</ele>
        <time>2019-04-08T13:15:21Z</time>
      </trkpt>
      <trkpt lat="45.84209" lon="4.24935">
        <ele>595.855</ele>
        <time>2019-04-08T13:15:26Z</time>
      </trkpt>
      <trkpt lat="45.84209" lon="4.24944">
        <ele>595.275</ele>
        <time>2019-04-08T13:15:32Z</time>
      </trkpt>
      <trkpt lat="45.84205" lon="4.24954">
        <ele>594.057</ele>
        <time>2019-04-08T13:15:37Z</time>
      </trkpt>
      <trkpt lat="45.84203" lon="4.24964">
        <ele>592.544</ele>
        <time>2019-04-08T13:15:44Z</time>
      </trkpt>
      <trkpt lat="45.84204" lon="4.24976">
        <ele>591.812</ele>
        <time>2019-04-08T13:15:49Z</time>
      </trkpt>
      <trkpt lat="45.84205" lon="4.24982">
        <ele>591.348</ele>
        <time>2019-04-08T13:15:54Z</time>
      </trkpt>
      <trkpt lat="45.84204" lon="4.24996">
        <ele>590.961</ele>
        <time>2019-04-08T13:16:00Z</time>
      </trkpt>
      <trkpt lat="45.84205" lon="4.25003">
        <ele>590.928</ele>
        <time>2019-04-08T13:16:05Z</time>
      </trkpt>
      <trkpt lat="45.84204" lon="4.25023">
        <ele>590.827</ele>
        <time>2019-04-08T13:16:11Z</time>
      </trkpt>
      <trkpt lat="45.84202" lon="4.25031">
        <ele>590.831</ele>
        <time>2019-04-08T13:16:17Z</time>
      </trkpt>
      <trkpt lat="45.842" lon="4.25042">
        <ele>591.456</ele>
        <time>2019-04-08T13:16:23Z</time>
      </trkpt>
      <trkpt lat="45.84198" lon="4.25051">
        <ele>591.723</ele>
        <time>2019-04-08T13:16:28Z</time>
      </trkpt>
      <trkpt lat="45.84192" lon="4.25061">
        <ele>591.326</ele>
        <time>2019-04-08T13:16:34Z</time>
      </trkpt>
      <trkpt lat="45.84188" lon="4.25065">
        <ele>591.146</ele>
        <time>2019-04-08T13:16:39Z</time>
      </trkpt>
      <trkpt lat="45.84185" lon="4.2507">
        <ele>590.84</ele>
        <time>2019-04-08T13:16:45Z</time>
      </trkpt>
      <trkpt lat="45.84179" lon="4.2508">
        <ele>590.909</ele>
        <time>2019-04-08T13:16:50Z</time>
      </trkpt>
      <trkpt lat="45.84173" lon="4.25086">
        <ele>591.229</ele>
        <time>2019-04-08T13:16:55Z</time>
      </trkpt>
      <trkpt lat="45.84172" lon="4.25091">
        <ele>592.555</ele>
        <time>2019-04-08T13:17:01Z</time>
      </trkpt>
      <trkpt lat="45.84166" lon="4.25113">
        <ele>593.464</ele>
        <time>2019-04-08T13:17:07Z</time>
      </trkpt>
      <trkpt lat="45.84164" lon="4.25116">
        <ele>593.759</ele>
        <time>2019-04-08T13:17:13Z</time>
      </trkpt>
      <trkpt lat="45.84166" lon="4.25126">
        <ele>592.692</ele>
        <time>2019-04-08T13:17:19Z</time>
      </trkpt>
      <trkpt lat="45.84171" lon="4.25135">
        <ele>591.446</ele>
        <time>2019-04-08T13:17:25Z</time>
      </trkpt>
      <trkpt lat="45.84176" lon="4.2514">
        <ele>590.063</ele>
        <time>2019-04-08T13:17:31Z</time>
      </trkpt>
      <trkpt lat="45.8418" lon="4.25145">
        <ele>589.111</ele>
        <time>2019-04-08T13:17:37Z</time>
      </trkpt>
      <trkpt lat="45.8419" lon="4.25149">
        <ele>588.428</ele>
        <time>2019-04-08T13:17:43Z</time>
      </trkpt>
      <trkpt lat="45.84197" lon="4.25153">
        <ele>588.504</ele>
        <time>2019-04-08T13:17:48Z</time>
      </trkpt>
      <trkpt lat="45.84205" lon="4.25158">
        <ele>588.47</ele>
        <time>2019-04-08T13:17:54Z</time>
      </trkpt>
      <trkpt lat="45.84212" lon="4.25164">
        <ele>588.515</ele>
        <time>2019-04-08T13:17:59Z</time>
      </trkpt>
      <trkpt lat="45.84217" lon="4.25169">
        <ele>588.492</ele>
        <time>2019-04-08T13:18:05Z</time>
      </trkpt>
      <trkpt lat="45.84222" lon="4.2517">
        <ele>588.374</ele>
        <time>2019-04-08T13:18:10Z</time>
      </trkpt>
      <trkpt lat="45.84226" lon="4.25169">
        <ele>588.085</ele>
        <time>2019-04-08T13:18:15Z</time>
      </trkpt>
      <trkpt lat="45.84231" lon="4.25166">
        <ele>587.988</ele>
        <time>2019-04-08T13:18:21Z</time>
      </trkpt>
      <trkpt lat="45.84232" lon="4.25161">
        <ele>587.741</ele>
        <time>2019-04-08T13:18:27Z</time>
      </trkpt>
      <trkpt lat="45.84231" lon="4.2515">
        <ele>587.14</ele>
        <time>2019-04-08T13:18:32Z</time>
      </trkpt>
      <trkpt lat="45.84229" lon="4.25141">
        <ele>586.199</ele>
        <time>2019-04-08T13:18:37Z</time>
      </trkpt>
      <trkpt lat="45.84227" lon="4.25133">
        <ele>586.234</ele>
        <time>2019-04-08T13:18:43Z</time>
      </trkpt>
      <trkpt lat="45.84225" lon="4.25122">
        <ele>586.384</ele>
        <time>2019-04-08T13:18:48Z</time>
      </trkpt>
      <trkpt lat="45.84224" lon="4.25113">
        <ele>586.214</ele>
        <time>2019-04-08T13:18:54Z</time>
      </trkpt>
      <trkpt lat="45.84222" lon="4.25105">
        <ele>585.761</ele>
        <time>2019-04-08T13:18:59Z</time>
      </trkpt>
      <trkpt lat="45.84221" lon="4.25096">
        <ele>585.427</ele>
        <time>2019-04-08T13:19:05Z</time>
      </trkpt>
      <trkpt lat="45.84223" lon="4.25088">
        <ele>585.196</ele>
        <time>2019-04-08T13:19:10Z</time>
      </trkpt>
      <trkpt lat="45.84223" lon="4.2508">
        <ele>584.87</ele>
        <time>2019-04-08T13:19:16Z</time>
      </trkpt>
      <trkpt lat="45.84223" lon="4.25069">
        <ele>584.728</ele>
        <time>2019-04-08T13:19:21Z</time>
      </trkpt>
      <trkpt lat="45.84223" lon="4.25062">
        <ele>584.188</ele>
        <time>2019-04-08T13:19:27Z</time>
      </trkpt>
      <trkpt lat="45.84224" lon="4.25054">
        <ele>583.655</ele>
        <time>2019-04-08T13:19:32Z</time>
      </trkpt>
      <trkpt lat="45.84226" lon="4.25045">
        <ele>582.955</ele>
        <time>2019-04-08T13:19:38Z</time>
      </trkpt>
      <trkpt lat="45.84228" lon="4.25034">
        <ele>582.201</ele>
        <time>2019-04-08T13:19:44Z</time>
      </trkpt>
      <trkpt lat="45.84229" lon="4.25028">
        <ele>581.67</ele>
        <time>2019-04-08T13:19:49Z</time>
      </trkpt>
      <trkpt lat="45.8423" lon="4.2502">
        <ele>581.143</ele>
        <time>2019-04-08T13:19:55Z</time>
      </trkpt>
      <trkpt lat="45.84232" lon="4.25013">
        <ele>580.451</ele>
        <time>2019-04-08T13:20:00Z</time>
      </trkpt>
      <trkpt lat="45.84234" lon="4.25006">
        <ele>579.537</ele>
        <time>2019-04-08T13:20:06Z</time>
      </trkpt>
      <trkpt lat="45.84236" lon="4.24996">
        <ele>578.73</ele>
        <time>2019-04-08T13:20:12Z</time>
      </trkpt>
      <trkpt lat="45.84237" lon="4.24995">
        <ele>578.295</ele>
        <time>2019-04-08T13:20:17Z</time>
      </trkpt>
      <trkpt lat="45.8424" lon="4.24987">
        <ele>577.757</ele>
        <time>2019-04-08T13:20:23Z</time>
      </trkpt>
      <trkpt lat="45.84243" lon="4.24978">
        <ele>577.036</ele>
        <time>2019-04-08T13:20:29Z</time>
      </trkpt>
      <trkpt lat="45.84246" lon="4.2497">
        <ele>576.382</ele>
        <time>2019-04-08T13:20:34Z</time>
      </trkpt>
      <trkpt lat="45.84251" lon="4.2496">
        <ele>575.532</ele>
        <time>2019-04-08T13:20:40Z</time>
      </trkpt>
      <trkpt lat="45.84254" lon="4.24951">
        <ele>574.735</ele>
        <time>2019-04-08T13:20:45Z</time>
      </trkpt>
      <trkpt lat="45.84255" lon="4.24944">
        <ele>573.879</ele>
        <time>2019-04-08T13:20:51Z</time>
      </trkpt>
      <trkpt lat="45.84259" lon="4.24933">
        <ele>572.6</ele>
        <time>2019-04-08T13:20:57Z</time>
      </trkpt>
      <trkpt lat="45.84263" lon="4.24924">
        <ele>571.886</ele>
        <time>2019-04-08T13:21:03Z</time>
      </trkpt>
      <trkpt lat="45.84264" lon="4.24914">
        <ele>571.556</ele>
        <time>2019-04-08T13:21:08Z</time>
      </trkpt>
      <trkpt lat="45.84265" lon="4.24911">
        <ele>570.816</ele>
        <time>2019-04-08T13:21:13Z</time>
      </trkpt>
      <trkpt lat="45.84267" lon="4.24907">
        <ele>570.007</ele>
        <time>2019-04-08T13:21:19Z</time>
      </trkpt>
      <trkpt lat="45.84271" lon="4.249">
        <ele>569.387</ele>
        <time>2019-04-08T13:21:25Z</time>
      </trkpt>
      <trkpt lat="45.84274" lon="4.24891">
        <ele>568.701</ele>
        <time>2019-04-08T13:21:30Z</time>
      </trkpt>
      <trkpt lat="45.84275" lon="4.24883">
        <ele>567.868</ele>
        <time>2019-04-08T13:21:36Z</time>
      </trkpt>
      <trkpt lat="45.84279" lon="4.24874">
        <ele>567.244</ele>
        <time>2019-04-08T13:21:41Z</time>
      </trkpt>
      <trkpt lat="45.8428" lon="4.24868">
        <ele>566.475</ele>
        <time>2019-04-08T13:21:47Z</time>
      </trkpt>
      <trkpt lat="45.84282" lon="4.24859">
        <ele>565.765</ele>
        <time>2019-04-08T13:21:53Z</time>
      </trkpt>
      <trkpt lat="45.84287" lon="4.24851">
        <ele>564.875</ele>
        <time>2019-04-08T13:21:58Z</time>
      </trkpt>
      <trkpt lat="45.84288" lon="4.24845">
        <ele>563.959</ele>
        <time>2019-04-08T13:22:04Z</time>
      </trkpt>
      <trkpt lat="45.84289" lon="4.24836">
        <ele>562.675</ele>
        <time>2019-04-08T13:22:10Z</time>
      </trkpt>
      <trkpt lat="45.84293" lon="4.24828">
        <ele>561.633</ele>
        <time>2019-04-08T13:22:15Z</time>
      </trkpt>
      <trkpt lat="45.84295" lon="4.24822">
        <ele>560.401</ele>
        <time>2019-04-08T13:22:20Z</time>
      </trkpt>
      <trkpt lat="45.84297" lon="4.24813">
        <ele>559.331</ele>
        <time>2019-04-08T13:22:26Z</time>
      </trkpt>
      <trkpt lat="45.84299" lon="4.2481">
        <ele>558.353</ele>
        <time>2019-04-08T13:22:31Z</time>
      </trkpt>
      <trkpt lat="45.84303" lon="4.24814">
        <ele>557.102</ele>
        <time>2019-04-08T13:22:37Z</time>
      </trkpt>
      <trkpt lat="45.8431" lon="4.2482">
        <ele>556.374</ele>
        <time>2019-04-08T13:22:42Z</time>
      </trkpt>
      <trkpt lat="45.8431" lon="4.24824">
        <ele>555.306</ele>
        <time>2019-04-08T13:22:48Z</time>
      </trkpt>
      <trkpt lat="45.84311" lon="4.24831">
        <ele>554.738</ele>
        <time>2019-04-08T13:22:54Z</time>
      </trkpt>
      <trkpt lat="45.84312" lon="4.2484">
        <ele>554.331</ele>
        <time>2019-04-08T13:23:00Z</time>
      </trkpt>
      <trkpt lat="45.8431" lon="4.2484">
        <ele>553.836</ele>
        <time>2019-04-08T13:23:06Z</time>
      </trkpt>
      <trkpt lat="45.8431" lon="4.24838">
        <ele>553.433</ele>
        <time>2019-04-08T13:23:11Z</time>
      </trkpt>
      <trkpt lat="45.84309" lon="4.24838">
        <ele>553.092</ele>
        <time>2019-04-08T13:23:17Z</time>
      </trkpt>
      <trkpt lat="45.8431" lon="4.24838">
        <ele>553.186</ele>
        <time>2019-04-08T13:23:23Z</time>
      </trkpt>
      <trkpt lat="45.84309" lon="4.24837">
        <ele>553.588</ele>
        <time>2019-04-08T13:23:28Z</time>
      </trkpt>
      <trkpt lat="45.84309" lon="4.24834">
        <ele>555.2</ele>
        <time>2019-04-08T13:23:34Z</time>
      </trkpt>
      <trkpt lat="45.84308" lon="4.24832">
        <ele>555.393</ele>
        <time>2019-04-08T13:23:40Z</time>
      </trkpt>
      <trkpt lat="45.84308" lon="4.24831">
        <ele>555.811</ele>
        <time>2019-04-08T13:23:46Z</time>
      </trkpt>
      <trkpt lat="45.84309" lon="4.24833">
        <ele>556.076</ele>
        <time>2019-04-08T13:23:51Z</time>
      </trkpt>
      <trkpt lat="45.84311" lon="4.24836">
        <ele>556.317</ele>
        <time>2019-04-08T13:23:56Z</time>
      </trkpt>
      <trkpt lat="45.84314" lon="4.24836">
        <ele>556.689</ele>
        <time>2019-04-08T13:24:02Z</time>
      </trkpt>
      <trkpt lat="45.84313" lon="4.24837">
        <ele>556.903</ele>
        <time>2019-04-08T13:24:07Z</time>
      </trkpt>
      <trkpt lat="45.84313" lon="4.24838">
        <ele>556.874</ele>
        <time>2019-04-08T13:24:12Z</time>
      </trkpt>
      <trkpt lat="45.84311" lon="4.2484">
        <ele>556.279</ele>
        <time>2019-04-08T13:24:18Z</time>
      </trkpt>
      <trkpt lat="45.8431" lon="4.24839">
        <ele>555.61</ele>
        <time>2019-04-08T13:24:23Z</time>
      </trkpt>
      <trkpt lat="45.84309" lon="4.24838">
        <ele>554.58</ele>
        <time>2019-04-08T13:24:28Z</time>
      </trkpt>
      <trkpt lat="45.84309" lon="4.24839">
        <ele>553.875</ele>
        <time>2019-04-08T13:24:34Z</time>
      </trkpt>
      <trkpt lat="45.84309" lon="4.24839">
        <ele>553.539</ele>
        <time>2019-04-08T13:24:39Z</time>
      </trkpt>
      <trkpt lat="45.84308" lon="4.2484">
        <ele>552.931</ele>
        <time>2019-04-08T13:24:45Z</time>
      </trkpt>
      <trkpt lat="45.84309" lon="4.2484">
        <ele>552.669</ele>
        <time>2019-04-08T13:24:50Z</time>
      </trkpt>
      <trkpt lat="45.84311" lon="4.24838">
        <ele>552.584</ele>
        <time>2019-04-08T13:24:56Z</time>
      </trkpt>
      <trkpt lat="45.84312" lon="4.24838">
        <ele>552.402</ele>
        <time>2019-04-08T13:25:01Z</time>
      </trkpt>
      <trkpt lat="45.84313" lon="4.24839">
        <ele>552.597</ele>
        <time>2019-04-08T13:25:07Z</time>
      </trkpt>
      <trkpt lat="45.84313" lon="4.24838">
        <ele>552.201</ele>
        <time>2019-04-08T13:25:12Z</time>
      </trkpt>
      <trkpt lat="45.84312" lon="4.24837">
        <ele>551.713</ele>
        <time>2019-04-08T13:25:18Z</time>
      </trkpt>
      <trkpt lat="45.8431" lon="4.24834">
        <ele>551.611</ele>
        <time>2019-04-08T13:25:23Z</time>
      </trkpt>
      <trkpt lat="45.84309" lon="4.24831">
        <ele>551.676</ele>
        <time>2019-04-08T13:25:28Z</time>
      </trkpt>
      <trkpt lat="45.8431" lon="4.24831">
        <ele>551.681</ele>
        <time>2019-04-08T13:25:34Z</time>
      </trkpt>
      <trkpt lat="45.8431" lon="4.2483">
        <ele>551.784</ele>
        <time>2019-04-08T13:25:39Z</time>
      </trkpt>
      <trkpt lat="45.84311" lon="4.2483">
        <ele>552.209</ele>
        <time>2019-04-08T13:25:45Z</time>
      </trkpt>
      <trkpt lat="45.84312" lon="4.24825">
        <ele>552.541</ele>
        <time>2019-04-08T13:25:50Z</time>
      </trkpt>
      <trkpt lat="45.84311" lon="4.24816">
        <ele>552.797</ele>
        <time>2019-04-08T13:25:56Z</time>
      </trkpt>
      <trkpt lat="45.84308" lon="4.24809">
        <ele>553.047</ele>
        <time>2019-04-08T13:26:02Z</time>
      </trkpt>
      <trkpt lat="45.84307" lon="4.24804">
        <ele>552.961</ele>
        <time>2019-04-08T13:26:07Z</time>
      </trkpt>
      <trkpt lat="45.84308" lon="4.24797">
        <ele>552.957</ele>
        <time>2019-04-08T13:26:13Z</time>
      </trkpt>
      <trkpt lat="45.84308" lon="4.24788">
        <ele>552.531</ele>
        <time>2019-04-08T13:26:19Z</time>
      </trkpt>
      <trkpt lat="45.84307" lon="4.24787">
        <ele>552.243</ele>
        <time>2019-04-08T13:26:24Z</time>
      </trkpt>
      <trkpt lat="45.84308" lon="4.24785">
        <ele>552.16</ele>
        <time>2019-04-08T13:26:29Z</time>
      </trkpt>
      <trkpt lat="45.84308" lon="4.24785">
        <ele>551.817</ele>
        <time>2019-04-08T13:26:35Z</time>
      </trkpt>
      <trkpt lat="45.84309" lon="4.24783">
        <ele>551.262</ele>
        <time>2019-04-08T13:26:40Z</time>
      </trkpt>
      <trkpt lat="45.84308" lon="4.24781">
        <ele>551.52</ele>
        <time>2019-04-08T13:26:46Z</time>
      </trkpt>
      <trkpt lat="45.84309" lon="4.2478">
        <ele>551.801</ele>
        <time>2019-04-08T13:26:52Z</time>
      </trkpt>
      <trkpt lat="45.84312" lon="4.2478">
        <ele>551.988</ele>
        <time>2019-04-08T13:26:57Z</time>
      </trkpt>
      <trkpt lat="45.84314" lon="4.24781">
        <ele>551.797</ele>
        <time>2019-04-08T13:27:03Z</time>
      </trkpt>
      <trkpt lat="45.84312" lon="4.24782">
        <ele>551.176</ele>
        <time>2019-04-08T13:27:09Z</time>
      </trkpt>
      <trkpt lat="45.84309" lon="4.24781">
        <ele>551.82</ele>
        <time>2019-04-08T13:27:14Z</time>
      </trkpt>
      <trkpt lat="45.84307" lon="4.24776">
        <ele>552.005</ele>
        <time>2019-04-08T13:27:20Z</time>
      </trkpt>
      <trkpt lat="45.84308" lon="4.24767">
        <ele>551.684</ele>
        <time>2019-04-08T13:27:26Z</time>
      </trkpt>
      <trkpt lat="45.84309" lon="4.2476">
        <ele>551.331</ele>
        <time>2019-04-08T13:27:31Z</time>
      </trkpt>
      <trkpt lat="45.84312" lon="4.24754">
        <ele>551.083</ele>
        <time>2019-04-08T13:27:37Z</time>
      </trkpt>
      <trkpt lat="45.84313" lon="4.2475">
        <ele>550.989</ele>
        <time>2019-04-08T13:27:42Z</time>
      </trkpt>
      <trkpt lat="45.84314" lon="4.24745">
        <ele>550.735</ele>
        <time>2019-04-08T13:27:47Z</time>
      </trkpt>
      <trkpt lat="45.84318" lon="4.24737">
        <ele>550.362</ele>
        <time>2019-04-08T13:27:53Z</time>
      </trkpt>
      <trkpt lat="45.8432" lon="4.24734">
        <ele>550.107</ele>
        <time>2019-04-08T13:27:58Z</time>
      </trkpt>
      <trkpt lat="45.84321" lon="4.24732">
        <ele>549.218</ele>
        <time>2019-04-08T13:28:04Z</time>
      </trkpt>
      <trkpt lat="45.84323" lon="4.24728">
        <ele>548.196</ele>
        <time>2019-04-08T13:28:10Z</time>
      </trkpt>
      <trkpt lat="45.84325" lon="4.24726">
        <ele>547.494</ele>
        <time>2019-04-08T13:28:15Z</time>
      </trkpt>
      <trkpt lat="45.84326" lon="4.24722">
        <ele>546.524</ele>
        <time>2019-04-08T13:28:21Z</time>
      </trkpt>
      <trkpt lat="45.84327" lon="4.24719">
        <ele>545.017</ele>
        <time>2019-04-08T13:28:26Z</time>
      </trkpt>
      <trkpt lat="45.8433" lon="4.24716">
        <ele>543.407</ele>
        <time>2019-04-08T13:28:31Z</time>
      </trkpt>
      <trkpt lat="45.84331" lon="4.24711">
        <ele>542.274</ele>
        <time>2019-04-08T13:28:36Z</time>
      </trkpt>
      <trkpt lat="45.84332" lon="4.24704">
        <ele>540.974</ele>
        <time>2019-04-08T13:28:42Z</time>
      </trkpt>
      <trkpt lat="45.84325" lon="4.24694">
        <ele>540.777</ele>
        <time>2019-04-08T13:28:48Z</time>
      </trkpt>
      <trkpt lat="45.84324" lon="4.24686">
        <ele>540.528</ele>
        <time>2019-04-08T13:28:53Z</time>
      </trkpt>
      <trkpt lat="45.84325" lon="4.24677">
        <ele>539.487</ele>
        <time>2019-04-08T13:28:59Z</time>
      </trkpt>
      <trkpt lat="45.84326" lon="4.24674">
        <ele>538.843</ele>
        <time>2019-04-08T13:29:04Z</time>
      </trkpt>
      <trkpt lat="45.84325" lon="4.24669">
        <ele>538.358</ele>
        <time>2019-04-08T13:29:09Z</time>
      </trkpt>
      <trkpt lat="45.84324" lon="4.24658">
        <ele>538.201</ele>
        <time>2019-04-08T13:29:15Z</time>
      </trkpt>
      <trkpt lat="45.84321" lon="4.24651">
        <ele>538.14</ele>
        <time>2019-04-08T13:29:20Z</time>
      </trkpt>
      <trkpt lat="45.84318" lon="4.24644">
        <ele>537.841</ele>
        <time>2019-04-08T13:29:26Z</time>
      </trkpt>
      <trkpt lat="45.84312" lon="4.24632">
        <ele>537.969</ele>
        <time>2019-04-08T13:29:32Z</time>
      </trkpt>
      <trkpt lat="45.84311" lon="4.24624">
        <ele>538.302</ele>
        <time>2019-04-08T13:29:37Z</time>
      </trkpt>
      <trkpt lat="45.84312" lon="4.24615">
        <ele>538.296</ele>
        <time>2019-04-08T13:29:43Z</time>
      </trkpt>
      <trkpt lat="45.84312" lon="4.24607">
        <ele>537.951</ele>
        <time>2019-04-08T13:29:49Z</time>
      </trkpt>
      <trkpt lat="45.8431" lon="4.24597">
        <ele>537.517</ele>
        <time>2019-04-08T13:29:55Z</time>
      </trkpt>
      <trkpt lat="45.84308" lon="4.2459">
        <ele>537.08</ele>
        <time>2019-04-08T13:30:00Z</time>
      </trkpt>
      <trkpt lat="45.84309" lon="4.24579">
        <ele>536.75</ele>
        <time>2019-04-08T13:30:06Z</time>
      </trkpt>
      <trkpt lat="45.84309" lon="4.2457">
        <ele>536.287</ele>
        <time>2019-04-08T13:30:12Z</time>
      </trkpt>
      <trkpt lat="45.84311" lon="4.24562">
        <ele>535.915</ele>
        <time>2019-04-08T13:30:17Z</time>
      </trkpt>
      <trkpt lat="45.84309" lon="4.24554">
        <ele>535.939</ele>
        <time>2019-04-08T13:30:23Z</time>
      </trkpt>
      <trkpt lat="45.84309" lon="4.24543">
        <ele>535.97</ele>
        <time>2019-04-08T13:30:29Z</time>
      </trkpt>
      <trkpt lat="45.84307" lon="4.24532">
        <ele>535.344</ele>
        <time>2019-04-08T13:30:35Z</time>
      </trkpt>
      <trkpt lat="45.84307" lon="4.24525">
        <ele>534.615</ele>
        <time>2019-04-08T13:30:40Z</time>
      </trkpt>
      <trkpt lat="45.84306" lon="4.24515">
        <ele>534.272</ele>
        <time>2019-04-08T13:30:46Z</time>
      </trkpt>
      <trkpt lat="45.84306" lon="4.24505">
        <ele>533.871</ele>
        <time>2019-04-08T13:30:52Z</time>
      </trkpt>
      <trkpt lat="45.84306" lon="4.24496">
        <ele>533.491</ele>
        <time>2019-04-08T13:30:58Z</time>
      </trkpt>
      <trkpt lat="45.84306" lon="4.24488">
        <ele>532.768</ele>
        <time>2019-04-08T13:31:04Z</time>
      </trkpt>
      <trkpt lat="45.84303" lon="4.24481">
        <ele>532.516</ele>
        <time>2019-04-08T13:31:09Z</time>
      </trkpt>
      <trkpt lat="45.84302" lon="4.24473">
        <ele>532.104</ele>
        <time>2019-04-08T13:31:15Z</time>
      </trkpt>
      <trkpt lat="45.84302" lon="4.24464">
        <ele>531.381</ele>
        <time>2019-04-08T13:31:20Z</time>
      </trkpt>
      <trkpt lat="45.843" lon="4.24455">
        <ele>530.762</ele>
        <time>2019-04-08T13:31:26Z</time>
      </trkpt>
      <trkpt lat="45.843" lon="4.24449">
        <ele>530.303</ele>
        <time>2019-04-08T13:31:31Z</time>
      </trkpt>
      <trkpt lat="45.843" lon="4.2444">
        <ele>529.532</ele>
        <time>2019-04-08T13:31:37Z</time>
      </trkpt>
      <trkpt lat="45.843" lon="4.2443">
        <ele>529.439</ele>
        <time>2019-04-08T13:31:43Z</time>
      </trkpt>
      <trkpt lat="45.84301" lon="4.24421">
        <ele>529.183</ele>
        <time>2019-04-08T13:31:49Z</time>
      </trkpt>
      <trkpt lat="45.84301" lon="4.2441">
        <ele>528.421</ele>
        <time>2019-04-08T13:31:54Z</time>
      </trkpt>
      <trkpt lat="45.84302" lon="4.24403">
        <ele>527.973</ele>
        <time>2019-04-08T13:31:59Z</time>
      </trkpt>
      <trkpt lat="45.84303" lon="4.24393">
        <ele>527.318</ele>
        <time>2019-04-08T13:32:05Z</time>
      </trkpt>
      <trkpt lat="45.84304" lon="4.24384">
        <ele>526.504</ele>
        <time>2019-04-08T13:32:11Z</time>
      </trkpt>
      <trkpt lat="45.84304" lon="4.24375">
        <ele>525.71</ele>
        <time>2019-04-08T13:32:16Z</time>
      </trkpt>
      <trkpt lat="45.84305" lon="4.24367">
        <ele>524.718</ele>
        <time>2019-04-08T13:32:22Z</time>
      </trkpt>
      <trkpt lat="45.84303" lon="4.2436">
        <ele>523.955</ele>
        <time>2019-04-08T13:32:27Z</time>
      </trkpt>
      <trkpt lat="45.843" lon="4.24349">
        <ele>523.211</ele>
        <time>2019-04-08T13:32:33Z</time>
      </trkpt>
      <trkpt lat="45.84298" lon="4.24341">
        <ele>522.781</ele>
        <time>2019-04-08T13:32:38Z</time>
      </trkpt>
      <trkpt lat="45.84298" lon="4.24335">
        <ele>523.42</ele>
        <time>2019-04-08T13:32:44Z</time>
      </trkpt>
      <trkpt lat="45.84298" lon="4.24325">
        <ele>523.459</ele>
        <time>2019-04-08T13:32:50Z</time>
      </trkpt>
      <trkpt lat="45.84299" lon="4.24316">
        <ele>523.372</ele>
        <time>2019-04-08T13:32:55Z</time>
      </trkpt>
      <trkpt lat="45.84298" lon="4.2431">
        <ele>523.799</ele>
        <time>2019-04-08T13:33:00Z</time>
      </trkpt>
      <trkpt lat="45.84297" lon="4.24305">
        <ele>523.7</ele>
        <time>2019-04-08T13:33:06Z</time>
      </trkpt>
      <trkpt lat="45.84295" lon="4.24298">
        <ele>523.289</ele>
        <time>2019-04-08T13:33:11Z</time>
      </trkpt>
      <trkpt lat="45.84294" lon="4.24291">
        <ele>522.47</ele>
        <time>2019-04-08T13:33:17Z</time>
      </trkpt>
      <trkpt lat="45.84294" lon="4.24285">
        <ele>521.86</ele>
        <time>2019-04-08T13:33:22Z</time>
      </trkpt>
      <trkpt lat="45.84293" lon="4.2428">
        <ele>521.452</ele>
        <time>2019-04-08T13:33:27Z</time>
      </trkpt>
      <trkpt lat="45.84293" lon="4.24275">
        <ele>520.356</ele>
        <time>2019-04-08T13:33:33Z</time>
      </trkpt>
      <trkpt lat="45.84293" lon="4.24268">
        <ele>519.887</ele>
        <time>2019-04-08T13:33:38Z</time>
      </trkpt>
      <trkpt lat="45.84293" lon="4.24263">
        <ele>518.641</ele>
        <time>2019-04-08T13:33:44Z</time>
      </trkpt>
      <trkpt lat="45.84295" lon="4.24258">
        <ele>517.215</ele>
        <time>2019-04-08T13:33:50Z</time>
      </trkpt>
      <trkpt lat="45.84294" lon="4.24254">
        <ele>516.184</ele>
        <time>2019-04-08T13:33:56Z</time>
      </trkpt>
      <trkpt lat="45.84294" lon="4.24253">
        <ele>515.897</ele>
        <time>2019-04-08T13:34:02Z</time>
      </trkpt>
      <trkpt lat="45.84292" lon="4.24254">
        <ele>515.837</ele>
        <time>2019-04-08T13:34:07Z</time>
      </trkpt>
      <trkpt lat="45.84292" lon="4.24254">
        <ele>515.586</ele>
        <time>2019-04-08T13:34:12Z</time>
      </trkpt>
      <trkpt lat="45.84292" lon="4.24254">
        <ele>515.208</ele>
        <time>2019-04-08T13:34:18Z</time>
      </trkpt>
      <trkpt lat="45.84292" lon="4.24254">
        <ele>515.282</ele>
        <time>2019-04-08T13:34:23Z</time>
      </trkpt>
      <trkpt lat="45.84292" lon="4.24254">
        <ele>515.351</ele>
        <time>2019-04-08T13:34:29Z</time>
      </trkpt>
      <trkpt lat="45.84292" lon="4.24254">
        <ele>515.351</ele>
        <time>2019-04-08T13:34:34Z</time>
      </trkpt>
      <trkpt lat="45.84292" lon="4.24254">
        <ele>515.364</ele>
        <time>2019-04-08T13:34:40Z</time>
      </trkpt>
      <trkpt lat="45.84292" lon="4.24254">
        <ele>515.31</ele>
        <time>2019-04-08T13:34:45Z</time>
      </trkpt>
      <trkpt lat="45.84292" lon="4.24254">
        <ele>515.205</ele>
        <time>2019-04-08T13:34:51Z</time>
      </trkpt>
      <trkpt lat="45.84292" lon="4.24254">
        <ele>515.134</ele>
        <time>2019-04-08T13:34:57Z</time>
      </trkpt>
      <trkpt lat="45.84291" lon="4.24254">
        <ele>514.931</ele>
        <time>2019-04-08T13:35:03Z</time>
      </trkpt>
      <trkpt lat="45.8429" lon="4.24255">
        <ele>514.324</ele>
        <time>2019-04-08T13:35:09Z</time>
      </trkpt>
      <trkpt lat="45.84288" lon="4.24254">
        <ele>513.555</ele>
        <time>2019-04-08T13:35:15Z</time>
      </trkpt>
      <trkpt lat="45.84288" lon="4.24254">
        <ele>513.513</ele>
        <time>2019-04-08T13:35:20Z</time>
      </trkpt>
      <trkpt lat="45.84284" lon="4.24248">
        <ele>513.195</ele>
        <time>2019-04-08T13:35:26Z</time>
      </trkpt>
      <trkpt lat="45.84275" lon="4.24239">
        <ele>513.192</ele>
        <time>2019-04-08T13:35:31Z</time>
      </trkpt>
      <trkpt lat="45.8427" lon="4.24234">
        <ele>512.923</ele>
        <time>2019-04-08T13:35:37Z</time>
      </trkpt>
      <trkpt lat="45.84266" lon="4.24227">
        <ele>511.892</ele>
        <time>2019-04-08T13:35:43Z</time>
      </trkpt>
      <trkpt lat="45.84262" lon="4.24222">
        <ele>511.373</ele>
        <time>2019-04-08T13:35:49Z</time>
      </trkpt>
      <trkpt lat="45.84258" lon="4.24217">
        <ele>510.796</ele>
        <time>2019-04-08T13:35:54Z</time>
      </trkpt>
      <trkpt lat="45.84256" lon="4.24209">
        <ele>510.449</ele>
        <time>2019-04-08T13:36:00Z</time>
      </trkpt>
      <trkpt lat="45.84252" lon="4.24201">
        <ele>510.349</ele>
        <time>2019-04-08T13:36:06Z</time>
      </trkpt>
      <trkpt lat="45.84248" lon="4.24192">
        <ele>510.481</ele>
        <time>2019-04-08T13:36:12Z</time>
      </trkpt>
      <trkpt lat="45.84245" lon="4.24188">
        <ele>510.192</ele>
        <time>2019-04-08T13:36:17Z</time>
      </trkpt>
      <trkpt lat="45.84242" lon="4.2418">
        <ele>509.68</ele>
        <time>2019-04-08T13:36:23Z</time>
      </trkpt>
      <trkpt lat="45.84239" lon="4.24171">
        <ele>509.201</ele>
        <time>2019-04-08T13:36:28Z</time>
      </trkpt>
      <trkpt lat="45.84237" lon="4.24165">
        <ele>509.285</ele>
        <time>2019-04-08T13:36:34Z</time>
      </trkpt>
      <trkpt lat="45.84233" lon="4.24155">
        <ele>508.607</ele>
        <time>2019-04-08T13:36:40Z</time>
      </trkpt>
      <trkpt lat="45.84229" lon="4.24147">
        <ele>507.754</ele>
        <time>2019-04-08T13:36:46Z</time>
      </trkpt>
      <trkpt lat="45.84227" lon="4.24138">
        <ele>507.534</ele>
        <time>2019-04-08T13:36:51Z</time>
      </trkpt>
      <trkpt lat="45.84222" lon="4.24129">
        <ele>507.273</ele>
        <time>2019-04-08T13:36:57Z</time>
      </trkpt>
      <trkpt lat="45.84219" lon="4.24118">
        <ele>507.155</ele>
        <time>2019-04-08T13:37:03Z</time>
      </trkpt>
      <trkpt lat="45.84214" lon="4.24111">
        <ele>506.988</ele>
        <time>2019-04-08T13:37:09Z</time>
      </trkpt>
      <trkpt lat="45.84206" lon="4.24105">
        <ele>506.789</ele>
        <time>2019-04-08T13:37:15Z</time>
      </trkpt>
      <trkpt lat="45.84202" lon="4.241">
        <ele>506.622</ele>
        <time>2019-04-08T13:37:20Z</time>
      </trkpt>
      <trkpt lat="45.84197" lon="4.24092">
        <ele>506.095</ele>
        <time>2019-04-08T13:37:26Z</time>
      </trkpt>
      <trkpt lat="45.84193" lon="4.24088">
        <ele>505.627</ele>
        <time>2019-04-08T13:37:31Z</time>
      </trkpt>
      <trkpt lat="45.84189" lon="4.24084">
        <ele>505.476</ele>
        <time>2019-04-08T13:37:37Z</time>
      </trkpt>
      <trkpt lat="45.84186" lon="4.24079">
        <ele>505.765</ele>
        <time>2019-04-08T13:37:43Z</time>
      </trkpt>
      <trkpt lat="45.84184" lon="4.24075">
        <ele>505.832</ele>
        <time>2019-04-08T13:37:48Z</time>
      </trkpt>
      <trkpt lat="45.84179" lon="4.24065">
        <ele>504.643</ele>
        <time>2019-04-08T13:37:54Z</time>
      </trkpt>
      <trkpt lat="45.84177" lon="4.24058">
        <ele>504.02</ele>
        <time>2019-04-08T13:38:00Z</time>
      </trkpt>
      <trkpt lat="45.84175" lon="4.24048">
        <ele>503.225</ele>
        <time>2019-04-08T13:38:06Z</time>
      </trkpt>
      <trkpt lat="45.84173" lon="4.24044">
        <ele>502.853</ele>
        <time>2019-04-08T13:38:12Z</time>
      </trkpt>
      <trkpt lat="45.8417" lon="4.2404">
        <ele>502.358</ele>
        <time>2019-04-08T13:38:17Z</time>
      </trkpt>
      <trkpt lat="45.84166" lon="4.24032">
        <ele>502.085</ele>
        <time>2019-04-08T13:38:23Z</time>
      </trkpt>
      <trkpt lat="45.84161" lon="4.24029">
        <ele>501.66</ele>
        <time>2019-04-08T13:38:28Z</time>
      </trkpt>
      <trkpt lat="45.84157" lon="4.24019">
        <ele>500.793</ele>
        <time>2019-04-08T13:38:35Z</time>
      </trkpt>
      <trkpt lat="45.84154" lon="4.24012">
        <ele>499.972</ele>
        <time>2019-04-08T13:38:40Z</time>
      </trkpt>
      <trkpt lat="45.84152" lon="4.24007">
        <ele>498.893</ele>
        <time>2019-04-08T13:38:45Z</time>
      </trkpt>
      <trkpt lat="45.84149" lon="4.23997">
        <ele>497.662</ele>
        <time>2019-04-08T13:38:50Z</time>
      </trkpt>
      <trkpt lat="45.84147" lon="4.23991">
        <ele>496.561</ele>
        <time>2019-04-08T13:38:55Z</time>
      </trkpt>
      <trkpt lat="45.84146" lon="4.23984">
        <ele>495.817</ele>
        <time>2019-04-08T13:39:00Z</time>
      </trkpt>
      <trkpt lat="45.84143" lon="4.23978">
        <ele>494.863</ele>
        <time>2019-04-08T13:39:06Z</time>
      </trkpt>
      <trkpt lat="45.84142" lon="4.23975">
        <ele>493.985</ele>
        <time>2019-04-08T13:39:11Z</time>
      </trkpt>
      <trkpt lat="45.8414" lon="4.23974">
        <ele>493.76</ele>
        <time>2019-04-08T13:39:17Z</time>
      </trkpt>
      <trkpt lat="45.84138" lon="4.23977">
        <ele>491.86</ele>
        <time>2019-04-08T13:39:23Z</time>
      </trkpt>
      <trkpt lat="45.84143" lon="4.23978">
        <ele>491.703</ele>
        <time>2019-04-08T13:39:28Z</time>
      </trkpt>
      <trkpt lat="45.84145" lon="4.23983">
        <ele>491.847</ele>
        <time>2019-04-08T13:39:34Z</time>
      </trkpt>
      <trkpt lat="45.84147" lon="4.23983">
        <ele>492.063</ele>
        <time>2019-04-08T13:39:40Z</time>
      </trkpt>
      <trkpt lat="45.84148" lon="4.23984">
        <ele>492.199</ele>
        <time>2019-04-08T13:39:46Z</time>
      </trkpt>
      <trkpt lat="45.84148" lon="4.23984">
        <ele>492.259</ele>
        <time>2019-04-08T13:39:51Z</time>
      </trkpt>
      <trkpt lat="45.84148" lon="4.23984">
        <ele>492.249</ele>
        <time>2019-04-08T13:39:57Z</time>
      </trkpt>
      <trkpt lat="45.84148" lon="4.23984">
        <ele>492.168</ele>
        <time>2019-04-08T13:40:03Z</time>
      </trkpt>
      <trkpt lat="45.84148" lon="4.23984">
        <ele>492.144</ele>
        <time>2019-04-08T13:40:08Z</time>
      </trkpt>
      <trkpt lat="45.84148" lon="4.23984">
        <ele>491.894</ele>
        <time>2019-04-08T13:40:13Z</time>
      </trkpt>
      <trkpt lat="45.84146" lon="4.23979">
        <ele>491.607</ele>
        <time>2019-04-08T13:40:19Z</time>
      </trkpt>
      <trkpt lat="45.84143" lon="4.23974">
        <ele>490.308</ele>
        <time>2019-04-08T13:40:25Z</time>
      </trkpt>
      <trkpt lat="45.84139" lon="4.23965">
        <ele>488.73</ele>
        <time>2019-04-08T13:40:31Z</time>
      </trkpt>
      <trkpt lat="45.84133" lon="4.23958">
        <ele>488.133</ele>
        <time>2019-04-08T13:40:36Z</time>
      </trkpt>
      <trkpt lat="45.84135" lon="4.23953">
        <ele>488.639</ele>
        <time>2019-04-08T13:40:42Z</time>
      </trkpt>
      <trkpt lat="45.84135" lon="4.23953">
        <ele>488.937</ele>
        <time>2019-04-08T13:40:47Z</time>
      </trkpt>
      <trkpt lat="45.84135" lon="4.23953">
        <ele>488.905</ele>
        <time>2019-04-08T13:40:53Z</time>
      </trkpt>
      <trkpt lat="45.84135" lon="4.23953">
        <ele>489.158</ele>
        <time>2019-04-08T13:40:59Z</time>
      </trkpt>
      <trkpt lat="45.84135" lon="4.23952">
        <ele>489.892</ele>
        <time>2019-04-08T13:41:05Z</time>
      </trkpt>
      <trkpt lat="45.8413" lon="4.23946">
        <ele>490.189</ele>
        <time>2019-04-08T13:41:11Z</time>
      </trkpt>
      <trkpt lat="45.84129" lon="4.23944">
        <ele>490.35</ele>
        <time>2019-04-08T13:41:17Z</time>
      </trkpt>
      <trkpt lat="45.84125" lon="4.23938">
        <ele>490.332</ele>
        <time>2019-04-08T13:41:23Z</time>
      </trkpt>
      <trkpt lat="45.84124" lon="4.23928">
        <ele>490.147</ele>
        <time>2019-04-08T13:41:29Z</time>
      </trkpt>
      <trkpt lat="45.84123" lon="4.23924">
        <ele>490.06</ele>
        <time>2019-04-08T13:41:35Z</time>
      </trkpt>
      <trkpt lat="45.84123" lon="4.23921">
        <ele>490.294</ele>
        <time>2019-04-08T13:41:40Z</time>
      </trkpt>
      <trkpt lat="45.84122" lon="4.23911">
        <ele>490.311</ele>
        <time>2019-04-08T13:41:46Z</time>
      </trkpt>
      <trkpt lat="45.8412" lon="4.23895">
        <ele>492.035</ele>
        <time>2019-04-08T13:41:52Z</time>
      </trkpt>
      <trkpt lat="45.84122" lon="4.23887">
        <ele>494.193</ele>
        <time>2019-04-08T13:41:57Z</time>
      </trkpt>
      <trkpt lat="45.84122" lon="4.23885">
        <ele>494.941</ele>
        <time>2019-04-08T13:42:03Z</time>
      </trkpt>
      <trkpt lat="45.84122" lon="4.23884">
        <ele>494.743</ele>
        <time>2019-04-08T13:42:08Z</time>
      </trkpt>
      <trkpt lat="45.84123" lon="4.23877">
        <ele>494.324</ele>
        <time>2019-04-08T13:42:14Z</time>
      </trkpt>
      <trkpt lat="45.84123" lon="4.2387">
        <ele>494.326</ele>
        <time>2019-04-08T13:42:19Z</time>
      </trkpt>
      <trkpt lat="45.84123" lon="4.23862">
        <ele>494.891</ele>
        <time>2019-04-08T13:42:25Z</time>
      </trkpt>
      <trkpt lat="45.84125" lon="4.23854">
        <ele>494.848</ele>
        <time>2019-04-08T13:42:30Z</time>
      </trkpt>
      <trkpt lat="45.84128" lon="4.23845">
        <ele>494.907</ele>
        <time>2019-04-08T13:42:36Z</time>
      </trkpt>
      <trkpt lat="45.84129" lon="4.23837">
        <ele>495.235</ele>
        <time>2019-04-08T13:42:41Z</time>
      </trkpt>
      <trkpt lat="45.84129" lon="4.23828">
        <ele>495.196</ele>
        <time>2019-04-08T13:42:47Z</time>
      </trkpt>
      <trkpt lat="45.84131" lon="4.23821">
        <ele>495.393</ele>
        <time>2019-04-08T13:42:53Z</time>
      </trkpt>
      <trkpt lat="45.84132" lon="4.23813">
        <ele>495.527</ele>
        <time>2019-04-08T13:42:58Z</time>
      </trkpt>
      <trkpt lat="45.84133" lon="4.23804">
        <ele>495.215</ele>
        <time>2019-04-08T13:43:04Z</time>
      </trkpt>
      <trkpt lat="45.84132" lon="4.23796">
        <ele>495.094</ele>
        <time>2019-04-08T13:43:10Z</time>
      </trkpt>
      <trkpt lat="45.84131" lon="4.2379">
        <ele>495.115</ele>
        <time>2019-04-08T13:43:16Z</time>
      </trkpt>
      <trkpt lat="45.84129" lon="4.23785">
        <ele>495.527</ele>
        <time>2019-04-08T13:43:22Z</time>
      </trkpt>
      <trkpt lat="45.84125" lon="4.23781">
        <ele>495.405</ele>
        <time>2019-04-08T13:43:27Z</time>
      </trkpt>
      <trkpt lat="45.84119" lon="4.23775">
        <ele>494.83</ele>
        <time>2019-04-08T13:43:32Z</time>
      </trkpt>
      <trkpt lat="45.84115" lon="4.23771">
        <ele>494.378</ele>
        <time>2019-04-08T13:43:37Z</time>
      </trkpt>
      <trkpt lat="45.8411" lon="4.23774">
        <ele>493.706</ele>
        <time>2019-04-08T13:43:43Z</time>
      </trkpt>
      <trkpt lat="45.84103" lon="4.23776">
        <ele>492.951</ele>
        <time>2019-04-08T13:43:49Z</time>
      </trkpt>
      <trkpt lat="45.84096" lon="4.23773">
        <ele>492.231</ele>
        <time>2019-04-08T13:43:55Z</time>
      </trkpt>
      <trkpt lat="45.84095" lon="4.23767">
        <ele>491.719</ele>
        <time>2019-04-08T13:44:00Z</time>
      </trkpt>
      <trkpt lat="45.84099" lon="4.23762">
        <ele>491.3</ele>
        <time>2019-04-08T13:44:06Z</time>
      </trkpt>
      <trkpt lat="45.84104" lon="4.23759">
        <ele>490.664</ele>
        <time>2019-04-08T13:44:12Z</time>
      </trkpt>
      <trkpt lat="45.84109" lon="4.23756">
        <ele>490.256</ele>
        <time>2019-04-08T13:44:18Z</time>
      </trkpt>
      <trkpt lat="45.84114" lon="4.23746">
        <ele>489.887</ele>
        <time>2019-04-08T13:44:24Z</time>
      </trkpt>
      <trkpt lat="45.84119" lon="4.23738">
        <ele>489.619</ele>
        <time>2019-04-08T13:44:30Z</time>
      </trkpt>
      <trkpt lat="45.84121" lon="4.2373">
        <ele>489.164</ele>
        <time>2019-04-08T13:44:36Z</time>
      </trkpt>
      <trkpt lat="45.84123" lon="4.23719">
        <ele>488.777</ele>
        <time>2019-04-08T13:44:42Z</time>
      </trkpt>
      <trkpt lat="45.84124" lon="4.23709">
        <ele>488.344</ele>
        <time>2019-04-08T13:44:47Z</time>
      </trkpt>
      <trkpt lat="45.84124" lon="4.23699">
        <ele>487.944</ele>
        <time>2019-04-08T13:44:53Z</time>
      </trkpt>
      <trkpt lat="45.84125" lon="4.2369">
        <ele>487.562</ele>
        <time>2019-04-08T13:44:59Z</time>
      </trkpt>
      <trkpt lat="45.84125" lon="4.23681">
        <ele>486.805</ele>
        <time>2019-04-08T13:45:05Z</time>
      </trkpt>
      <trkpt lat="45.84124" lon="4.2367">
        <ele>485.992</ele>
        <time>2019-04-08T13:45:11Z</time>
      </trkpt>
      <trkpt lat="45.84125" lon="4.23658">
        <ele>485.83</ele>
        <time>2019-04-08T13:45:17Z</time>
      </trkpt>
      <trkpt lat="45.84123" lon="4.23652">
        <ele>485.952</ele>
        <time>2019-04-08T13:45:23Z</time>
      </trkpt>
      <trkpt lat="45.84123" lon="4.23644">
        <ele>485.906</ele>
        <time>2019-04-08T13:45:29Z</time>
      </trkpt>
      <trkpt lat="45.84125" lon="4.23632">
        <ele>486.026</ele>
        <time>2019-04-08T13:45:34Z</time>
      </trkpt>
      <trkpt lat="45.84124" lon="4.23622">
        <ele>486.213</ele>
        <time>2019-04-08T13:45:40Z</time>
      </trkpt>
      <trkpt lat="45.84124" lon="4.23612">
        <ele>486.563</ele>
        <time>2019-04-08T13:45:46Z</time>
      </trkpt>
      <trkpt lat="45.84125" lon="4.23603">
        <ele>486.467</ele>
        <time>2019-04-08T13:45:52Z</time>
      </trkpt>
      <trkpt lat="45.84125" lon="4.23595">
        <ele>486.011</ele>
        <time>2019-04-08T13:45:57Z</time>
      </trkpt>
      <trkpt lat="45.84125" lon="4.23586">
        <ele>485.563</ele>
        <time>2019-04-08T13:46:03Z</time>
      </trkpt>
      <trkpt lat="45.84124" lon="4.23577">
        <ele>485.288</ele>
        <time>2019-04-08T13:46:08Z</time>
      </trkpt>
      <trkpt lat="45.84123" lon="4.23565">
        <ele>485.136</ele>
        <time>2019-04-08T13:46:14Z</time>
      </trkpt>
      <trkpt lat="45.84124" lon="4.23559">
        <ele>484.963</ele>
        <time>2019-04-08T13:46:19Z</time>
      </trkpt>
      <trkpt lat="45.84125" lon="4.23547">
        <ele>484.574</ele>
        <time>2019-04-08T13:46:25Z</time>
      </trkpt>
      <trkpt lat="45.84125" lon="4.23541">
        <ele>484.779</ele>
        <time>2019-04-08T13:46:30Z</time>
      </trkpt>
      <trkpt lat="45.84127" lon="4.23535">
        <ele>485.248</ele>
        <time>2019-04-08T13:46:36Z</time>
      </trkpt>
      <trkpt lat="45.84127" lon="4.23527">
        <ele>484.792</ele>
        <time>2019-04-08T13:46:42Z</time>
      </trkpt>
      <trkpt lat="45.84126" lon="4.23519">
        <ele>484.053</ele>
        <time>2019-04-08T13:46:47Z</time>
      </trkpt>
      <trkpt lat="45.84126" lon="4.23505">
        <ele>483.61</ele>
        <time>2019-04-08T13:46:53Z</time>
      </trkpt>
      <trkpt lat="45.84125" lon="4.23493">
        <ele>483.472</ele>
        <time>2019-04-08T13:46:59Z</time>
      </trkpt>
      <trkpt lat="45.84122" lon="4.23488">
        <ele>483.154</ele>
        <time>2019-04-08T13:47:05Z</time>
      </trkpt>
      <trkpt lat="45.8412" lon="4.23482">
        <ele>482.465</ele>
        <time>2019-04-08T13:47:11Z</time>
      </trkpt>
      <trkpt lat="45.84118" lon="4.23472">
        <ele>482.042</ele>
        <time>2019-04-08T13:47:17Z</time>
      </trkpt>
      <trkpt lat="45.84118" lon="4.23461">
        <ele>481.667</ele>
        <time>2019-04-08T13:47:23Z</time>
      </trkpt>
      <trkpt lat="45.84116" lon="4.2345">
        <ele>480.965</ele>
        <time>2019-04-08T13:47:29Z</time>
      </trkpt>
      <trkpt lat="45.84114" lon="4.23441">
        <ele>480.156</ele>
        <time>2019-04-08T13:47:35Z</time>
      </trkpt>
      <trkpt lat="45.84112" lon="4.23432">
        <ele>479.556</ele>
        <time>2019-04-08T13:47:40Z</time>
      </trkpt>
      <trkpt lat="45.84109" lon="4.23422">
        <ele>479.293</ele>
        <time>2019-04-08T13:47:46Z</time>
      </trkpt>
      <trkpt lat="45.84108" lon="4.23414">
        <ele>478.86</ele>
        <time>2019-04-08T13:47:51Z</time>
      </trkpt>
      <trkpt lat="45.84108" lon="4.23407">
        <ele>478.267</ele>
        <time>2019-04-08T13:47:56Z</time>
      </trkpt>
      <trkpt lat="45.84108" lon="4.23399">
        <ele>477.553</ele>
        <time>2019-04-08T13:48:02Z</time>
      </trkpt>
      <trkpt lat="45.84106" lon="4.2339">
        <ele>476.883</ele>
        <time>2019-04-08T13:48:07Z</time>
      </trkpt>
      <trkpt lat="45.84102" lon="4.23381">
        <ele>475.839</ele>
        <time>2019-04-08T13:48:13Z</time>
      </trkpt>
      <trkpt lat="45.84098" lon="4.23381">
        <ele>475.02</ele>
        <time>2019-04-08T13:48:19Z</time>
      </trkpt>
      <trkpt lat="45.84097" lon="4.23386">
        <ele>474.339</ele>
        <time>2019-04-08T13:48:25Z</time>
      </trkpt>
      <trkpt lat="45.84089" lon="4.23389">
        <ele>473.723</ele>
        <time>2019-04-08T13:48:31Z</time>
      </trkpt>
      <trkpt lat="45.84086" lon="4.23389">
        <ele>473.201</ele>
        <time>2019-04-08T13:48:37Z</time>
      </trkpt>
      <trkpt lat="45.84088" lon="4.23391">
        <ele>472.262</ele>
        <time>2019-04-08T13:48:43Z</time>
      </trkpt>
      <trkpt lat="45.84088" lon="4.23393">
        <ele>471.515</ele>
        <time>2019-04-08T13:48:48Z</time>
      </trkpt>
      <trkpt lat="45.84088" lon="4.23394">
        <ele>470.688</ele>
        <time>2019-04-08T13:48:54Z</time>
      </trkpt>
      <trkpt lat="45.84087" lon="4.23392">
        <ele>469.958</ele>
        <time>2019-04-08T13:48:59Z</time>
      </trkpt>
      <trkpt lat="45.84087" lon="4.23392">
        <ele>470.008</ele>
        <time>2019-04-08T13:49:06Z</time>
      </trkpt>
      <trkpt lat="45.84087" lon="4.23392">
        <ele>470.102</ele>
        <time>2019-04-08T13:49:11Z</time>
      </trkpt>
      <trkpt lat="45.84087" lon="4.23392">
        <ele>470.127</ele>
        <time>2019-04-08T13:49:17Z</time>
      </trkpt>
      <trkpt lat="45.84086" lon="4.23391">
        <ele>470.197</ele>
        <time>2019-04-08T13:49:22Z</time>
      </trkpt>
      <trkpt lat="45.84085" lon="4.23387">
        <ele>470.365</ele>
        <time>2019-04-08T13:49:27Z</time>
      </trkpt>
      <trkpt lat="45.84081" lon="4.23379">
        <ele>470.453</ele>
        <time>2019-04-08T13:49:33Z</time>
      </trkpt>
      <trkpt lat="45.84079" lon="4.23371">
        <ele>470.483</ele>
        <time>2019-04-08T13:49:38Z</time>
      </trkpt>
      <trkpt lat="45.84074" lon="4.23361">
        <ele>470.729</ele>
        <time>2019-04-08T13:49:44Z</time>
      </trkpt>
      <trkpt lat="45.8407" lon="4.23354">
        <ele>471.098</ele>
        <time>2019-04-08T13:49:49Z</time>
      </trkpt>
      <trkpt lat="45.84067" lon="4.23347">
        <ele>471.434</ele>
        <time>2019-04-08T13:49:55Z</time>
      </trkpt>
      <trkpt lat="45.84066" lon="4.23345">
        <ele>471.758</ele>
        <time>2019-04-08T13:50:00Z</time>
      </trkpt>
      <trkpt lat="45.84064" lon="4.23341">
        <ele>471.97</ele>
        <time>2019-04-08T13:50:06Z</time>
      </trkpt>
      <trkpt lat="45.84061" lon="4.23336">
        <ele>472.052</ele>
        <time>2019-04-08T13:50:11Z</time>
      </trkpt>
      <trkpt lat="45.84057" lon="4.23331">
        <ele>471.329</ele>
        <time>2019-04-08T13:50:17Z</time>
      </trkpt>
      <trkpt lat="45.84056" lon="4.23324">
        <ele>470.986</ele>
        <time>2019-04-08T13:50:22Z</time>
      </trkpt>
      <trkpt lat="45.84057" lon="4.23315">
        <ele>471.081</ele>
        <time>2019-04-08T13:50:28Z</time>
      </trkpt>
      <trkpt lat="45.84056" lon="4.23305">
        <ele>471.17</ele>
        <time>2019-04-08T13:50:33Z</time>
      </trkpt>
      <trkpt lat="45.84057" lon="4.23296">
        <ele>471.46</ele>
        <time>2019-04-08T13:50:39Z</time>
      </trkpt>
      <trkpt lat="45.84058" lon="4.2329">
        <ele>471.31</ele>
        <time>2019-04-08T13:50:45Z</time>
      </trkpt>
      <trkpt lat="45.8406" lon="4.23283">
        <ele>471.266</ele>
        <time>2019-04-08T13:50:51Z</time>
      </trkpt>
      <trkpt lat="45.84061" lon="4.23276">
        <ele>471.282</ele>
        <time>2019-04-08T13:50:57Z</time>
      </trkpt>
      <trkpt lat="45.84064" lon="4.23265">
        <ele>471.041</ele>
        <time>2019-04-08T13:51:03Z</time>
      </trkpt>
      <trkpt lat="45.84066" lon="4.23259">
        <ele>471.272</ele>
        <time>2019-04-08T13:51:08Z</time>
      </trkpt>
      <trkpt lat="45.8407" lon="4.23255">
        <ele>471.548</ele>
        <time>2019-04-08T13:51:13Z</time>
      </trkpt>
      <trkpt lat="45.84071" lon="4.23249">
        <ele>471.62</ele>
        <time>2019-04-08T13:51:18Z</time>
      </trkpt>
      <trkpt lat="45.84073" lon="4.23243">
        <ele>471.631</ele>
        <time>2019-04-08T13:51:24Z</time>
      </trkpt>
      <trkpt lat="45.84075" lon="4.23238">
        <ele>471.507</ele>
        <time>2019-04-08T13:51:29Z</time>
      </trkpt>
      <trkpt lat="45.84077" lon="4.2323">
        <ele>471.47</ele>
        <time>2019-04-08T13:51:35Z</time>
      </trkpt>
      <trkpt lat="45.84079" lon="4.23225">
        <ele>471.932</ele>
        <time>2019-04-08T13:51:40Z</time>
      </trkpt>
      <trkpt lat="45.8408" lon="4.23217">
        <ele>472.392</ele>
        <time>2019-04-08T13:51:46Z</time>
      </trkpt>
      <trkpt lat="45.84081" lon="4.23208">
        <ele>473.093</ele>
        <time>2019-04-08T13:51:52Z</time>
      </trkpt>
      <trkpt lat="45.84083" lon="4.23209">
        <ele>473.133</ele>
        <time>2019-04-08T13:51:58Z</time>
      </trkpt>
      <trkpt lat="45.84088" lon="4.23202">
        <ele>473.229</ele>
        <time>2019-04-08T13:52:04Z</time>
      </trkpt>
      <trkpt lat="45.84091" lon="4.23197">
        <ele>473.64</ele>
        <time>2019-04-08T13:52:09Z</time>
      </trkpt>
      <trkpt lat="45.84094" lon="4.23189">
        <ele>474.723</ele>
        <time>2019-04-08T13:52:15Z</time>
      </trkpt>
      <trkpt lat="45.84096" lon="4.23183">
        <ele>475.404</ele>
        <time>2019-04-08T13:52:20Z</time>
      </trkpt>
      <trkpt lat="45.84098" lon="4.23177">
        <ele>475.85</ele>
        <time>2019-04-08T13:52:26Z</time>
      </trkpt>
      <trkpt lat="45.841" lon="4.23173">
        <ele>476.099</ele>
        <time>2019-04-08T13:52:31Z</time>
      </trkpt>
      <trkpt lat="45.84102" lon="4.23166">
        <ele>476.621</ele>
        <time>2019-04-08T13:52:37Z</time>
      </trkpt>
      <trkpt lat="45.84105" lon="4.23159">
        <ele>477.135</ele>
        <time>2019-04-08T13:52:43Z</time>
      </trkpt>
      <trkpt lat="45.84107" lon="4.23156">
        <ele>477.425</ele>
        <time>2019-04-08T13:52:48Z</time>
      </trkpt>
      <trkpt lat="45.84108" lon="4.23151">
        <ele>477.381</ele>
        <time>2019-04-08T13:52:54Z</time>
      </trkpt>
      <trkpt lat="45.8411" lon="4.23143">
        <ele>477.826</ele>
        <time>2019-04-08T13:53:00Z</time>
      </trkpt>
      <trkpt lat="45.84111" lon="4.23133">
        <ele>478.471</ele>
        <time>2019-04-08T13:53:06Z</time>
      </trkpt>
      <trkpt lat="45.84113" lon="4.23129">
        <ele>478.645</ele>
        <time>2019-04-08T13:53:11Z</time>
      </trkpt>
      <trkpt lat="45.84115" lon="4.23124">
        <ele>478.993</ele>
        <time>2019-04-08T13:53:16Z</time>
      </trkpt>
      <trkpt lat="45.84116" lon="4.23116">
        <ele>479.211</ele>
        <time>2019-04-08T13:53:22Z</time>
      </trkpt>
      <trkpt lat="45.84119" lon="4.2311">
        <ele>479.512</ele>
        <time>2019-04-08T13:53:28Z</time>
      </trkpt>
      <trkpt lat="45.84122" lon="4.23103">
        <ele>479.935</ele>
        <time>2019-04-08T13:53:34Z</time>
      </trkpt>
      <trkpt lat="45.84122" lon="4.23094">
        <ele>480.242</ele>
        <time>2019-04-08T13:53:40Z</time>
      </trkpt>
      <trkpt lat="45.84124" lon="4.23084">
        <ele>480.635</ele>
        <time>2019-04-08T13:53:45Z</time>
      </trkpt>
      <trkpt lat="45.84124" lon="4.23075">
        <ele>481.059</ele>
        <time>2019-04-08T13:53:50Z</time>
      </trkpt>
      <trkpt lat="45.84124" lon="4.23064">
        <ele>481.697</ele>
        <time>2019-04-08T13:53:56Z</time>
      </trkpt>
      <trkpt lat="45.84127" lon="4.23058">
        <ele>482.519</ele>
        <time>2019-04-08T13:54:02Z</time>
      </trkpt>
      <trkpt lat="45.8413" lon="4.23052">
        <ele>483.083</ele>
        <time>2019-04-08T13:54:07Z</time>
      </trkpt>
      <trkpt lat="45.84133" lon="4.23047">
        <ele>483.614</ele>
        <time>2019-04-08T13:54:12Z</time>
      </trkpt>
      <trkpt lat="45.84137" lon="4.2304">
        <ele>484.324</ele>
        <time>2019-04-08T13:54:18Z</time>
      </trkpt>
      <trkpt lat="45.84138" lon="4.23035">
        <ele>484.822</ele>
        <time>2019-04-08T13:54:23Z</time>
      </trkpt>
      <trkpt lat="45.84142" lon="4.23028">
        <ele>485.057</ele>
        <time>2019-04-08T13:54:28Z</time>
      </trkpt>
      <trkpt lat="45.84145" lon="4.23025">
        <ele>485.431</ele>
        <time>2019-04-08T13:54:34Z</time>
      </trkpt>
      <trkpt lat="45.8415" lon="4.23019">
        <ele>485.641</ele>
        <time>2019-04-08T13:54:40Z</time>
      </trkpt>
      <trkpt lat="45.84153" lon="4.23016">
        <ele>485.83</ele>
        <time>2019-04-08T13:54:46Z</time>
      </trkpt>
      <trkpt lat="45.84158" lon="4.23015">
        <ele>486.401</ele>
        <time>2019-04-08T13:54:51Z</time>
      </trkpt>
      <trkpt lat="45.84163" lon="4.23012">
        <ele>487.248</ele>
        <time>2019-04-08T13:54:57Z</time>
      </trkpt>
      <trkpt lat="45.84169" lon="4.23008">
        <ele>487.892</ele>
        <time>2019-04-08T13:55:02Z</time>
      </trkpt>
      <trkpt lat="45.84173" lon="4.23004">
        <ele>489.102</ele>
        <time>2019-04-08T13:55:08Z</time>
      </trkpt>
      <trkpt lat="45.84178" lon="4.22999">
        <ele>489.97</ele>
        <time>2019-04-08T13:55:13Z</time>
      </trkpt>
      <trkpt lat="45.84186" lon="4.22995">
        <ele>491.201</ele>
        <time>2019-04-08T13:55:19Z</time>
      </trkpt>
      <trkpt lat="45.84191" lon="4.22992">
        <ele>492.64</ele>
        <time>2019-04-08T13:55:24Z</time>
      </trkpt>
      <trkpt lat="45.84199" lon="4.2299">
        <ele>494.098</ele>
        <time>2019-04-08T13:55:30Z</time>
      </trkpt>
      <trkpt lat="45.84203" lon="4.22987">
        <ele>495.179</ele>
        <time>2019-04-08T13:55:35Z</time>
      </trkpt>
      <trkpt lat="45.84208" lon="4.22985">
        <ele>496.096</ele>
        <time>2019-04-08T13:55:41Z</time>
      </trkpt>
      <trkpt lat="45.84212" lon="4.22983">
        <ele>497.346</ele>
        <time>2019-04-08T13:55:46Z</time>
      </trkpt>
      <trkpt lat="45.84219" lon="4.22984">
        <ele>498.283</ele>
        <time>2019-04-08T13:55:51Z</time>
      </trkpt>
      <trkpt lat="45.84223" lon="4.22987">
        <ele>499.084</ele>
        <time>2019-04-08T13:55:57Z</time>
      </trkpt>
      <trkpt lat="45.84227" lon="4.22989">
        <ele>499.384</ele>
        <time>2019-04-08T13:56:02Z</time>
      </trkpt>
      <trkpt lat="45.84234" lon="4.22991">
        <ele>499.973</ele>
        <time>2019-04-08T13:56:08Z</time>
      </trkpt>
      <trkpt lat="45.84237" lon="4.22993">
        <ele>500.386</ele>
        <time>2019-04-08T13:56:13Z</time>
      </trkpt>
      <trkpt lat="45.84245" lon="4.22996">
        <ele>500.785</ele>
        <time>2019-04-08T13:56:19Z</time>
      </trkpt>
      <trkpt lat="45.8425" lon="4.22997">
        <ele>501.533</ele>
        <time>2019-04-08T13:56:25Z</time>
      </trkpt>
      <trkpt lat="45.84255" lon="4.23">
        <ele>501.961</ele>
        <time>2019-04-08T13:56:30Z</time>
      </trkpt>
      <trkpt lat="45.84263" lon="4.23001">
        <ele>502.348</ele>
        <time>2019-04-08T13:56:35Z</time>
      </trkpt>
      <trkpt lat="45.84269" lon="4.23002">
        <ele>502.525</ele>
        <time>2019-04-08T13:56:41Z</time>
      </trkpt>
      <trkpt lat="45.84275" lon="4.23007">
        <ele>503.203</ele>
        <time>2019-04-08T13:56:47Z</time>
      </trkpt>
      <trkpt lat="45.8428" lon="4.2301">
        <ele>503.876</ele>
        <time>2019-04-08T13:56:52Z</time>
      </trkpt>
      <trkpt lat="45.84287" lon="4.23014">
        <ele>504.305</ele>
        <time>2019-04-08T13:56:58Z</time>
      </trkpt>
      <trkpt lat="45.84291" lon="4.23018">
        <ele>504.63</ele>
        <time>2019-04-08T13:57:03Z</time>
      </trkpt>
      <trkpt lat="45.84296" lon="4.23022">
        <ele>504.819</ele>
        <time>2019-04-08T13:57:09Z</time>
      </trkpt>
      <trkpt lat="45.84299" lon="4.23026">
        <ele>505.179</ele>
        <time>2019-04-08T13:57:14Z</time>
      </trkpt>
      <trkpt lat="45.84304" lon="4.23032">
        <ele>505.808</ele>
        <time>2019-04-08T13:57:20Z</time>
      </trkpt>
      <trkpt lat="45.84313" lon="4.23034">
        <ele>506.323</ele>
        <time>2019-04-08T13:57:26Z</time>
      </trkpt>
      <trkpt lat="45.84316" lon="4.23036">
        <ele>506.695</ele>
        <time>2019-04-08T13:57:31Z</time>
      </trkpt>
      <trkpt lat="45.84319" lon="4.2304">
        <ele>507.035</ele>
        <time>2019-04-08T13:57:36Z</time>
      </trkpt>
      <trkpt lat="45.84326" lon="4.23046">
        <ele>506.933</ele>
        <time>2019-04-08T13:57:42Z</time>
      </trkpt>
      <trkpt lat="45.84329" lon="4.23051">
        <ele>506.657</ele>
        <time>2019-04-08T13:57:48Z</time>
      </trkpt>
      <trkpt lat="45.84334" lon="4.23058">
        <ele>506.408</ele>
        <time>2019-04-08T13:57:53Z</time>
      </trkpt>
      <trkpt lat="45.84338" lon="4.23063">
        <ele>506.45</ele>
        <time>2019-04-08T13:57:59Z</time>
      </trkpt>
      <trkpt lat="45.84344" lon="4.23068">
        <ele>506.406</ele>
        <time>2019-04-08T13:58:04Z</time>
      </trkpt>
      <trkpt lat="45.8435" lon="4.23074">
        <ele>506.24</ele>
        <time>2019-04-08T13:58:10Z</time>
      </trkpt>
      <trkpt lat="45.84355" lon="4.23077">
        <ele>506.382</ele>
        <time>2019-04-08T13:58:16Z</time>
      </trkpt>
      <trkpt lat="45.84361" lon="4.2308">
        <ele>506.85</ele>
        <time>2019-04-08T13:58:21Z</time>
      </trkpt>
      <trkpt lat="45.84366" lon="4.23084">
        <ele>507.193</ele>
        <time>2019-04-08T13:58:27Z</time>
      </trkpt>
      <trkpt lat="45.84372" lon="4.23088">
        <ele>507.254</ele>
        <time>2019-04-08T13:58:33Z</time>
      </trkpt>
      <trkpt lat="45.84379" lon="4.23092">
        <ele>507.321</ele>
        <time>2019-04-08T13:58:39Z</time>
      </trkpt>
      <trkpt lat="45.84384" lon="4.23094">
        <ele>506.943</ele>
        <time>2019-04-08T13:58:44Z</time>
      </trkpt>
      <trkpt lat="45.84387" lon="4.23097">
        <ele>506.64</ele>
        <time>2019-04-08T13:58:49Z</time>
      </trkpt>
      <trkpt lat="45.84393" lon="4.23102">
        <ele>506.456</ele>
        <time>2019-04-08T13:58:55Z</time>
      </trkpt>
      <trkpt lat="45.84397" lon="4.23106">
        <ele>506.064</ele>
        <time>2019-04-08T13:59:00Z</time>
      </trkpt>
      <trkpt lat="45.84403" lon="4.23112">
        <ele>506.268</ele>
        <time>2019-04-08T13:59:06Z</time>
      </trkpt>
      <trkpt lat="45.84407" lon="4.23116">
        <ele>506.635</ele>
        <time>2019-04-08T13:59:12Z</time>
      </trkpt>
      <trkpt lat="45.84414" lon="4.23122">
        <ele>506.233</ele>
        <time>2019-04-08T13:59:18Z</time>
      </trkpt>
      <trkpt lat="45.84423" lon="4.23126">
        <ele>506.051</ele>
        <time>2019-04-08T13:59:24Z</time>
      </trkpt>
      <trkpt lat="45.8443" lon="4.23132">
        <ele>506.025</ele>
        <time>2019-04-08T13:59:30Z</time>
      </trkpt>
      <trkpt lat="45.84435" lon="4.23136">
        <ele>506.25</ele>
        <time>2019-04-08T13:59:35Z</time>
      </trkpt>
      <trkpt lat="45.84442" lon="4.23142">
        <ele>506.828</ele>
        <time>2019-04-08T13:59:41Z</time>
      </trkpt>
      <trkpt lat="45.84446" lon="4.23146">
        <ele>507.223</ele>
        <time>2019-04-08T13:59:47Z</time>
      </trkpt>
      <trkpt lat="45.84452" lon="4.23151">
        <ele>507.332</ele>
        <time>2019-04-08T13:59:52Z</time>
      </trkpt>
      <trkpt lat="45.84456" lon="4.23157">
        <ele>507.199</ele>
        <time>2019-04-08T13:59:58Z</time>
      </trkpt>
      <trkpt lat="45.8446" lon="4.23162">
        <ele>507.601</ele>
        <time>2019-04-08T14:00:04Z</time>
      </trkpt>
      <trkpt lat="45.84466" lon="4.23167">
        <ele>507.69</ele>
        <time>2019-04-08T14:00:10Z</time>
      </trkpt>
      <trkpt lat="45.84471" lon="4.23172">
        <ele>507.946</ele>
        <time>2019-04-08T14:00:15Z</time>
      </trkpt>
      <trkpt lat="45.84477" lon="4.23177">
        <ele>508.263</ele>
        <time>2019-04-08T14:00:20Z</time>
      </trkpt>
      <trkpt lat="45.84481" lon="4.23181">
        <ele>508.601</ele>
        <time>2019-04-08T14:00:25Z</time>
      </trkpt>
      <trkpt lat="45.84488" lon="4.23187">
        <ele>508.907</ele>
        <time>2019-04-08T14:00:31Z</time>
      </trkpt>
      <trkpt lat="45.84492" lon="4.23193">
        <ele>508.865</ele>
        <time>2019-04-08T14:00:37Z</time>
      </trkpt>
      <trkpt lat="45.84498" lon="4.23197">
        <ele>508.77</ele>
        <time>2019-04-08T14:00:43Z</time>
      </trkpt>
      <trkpt lat="45.845" lon="4.23197">
        <ele>508.35</ele>
        <time>2019-04-08T14:00:48Z</time>
      </trkpt>
      <trkpt lat="45.84502" lon="4.23196">
        <ele>508.189</ele>
        <time>2019-04-08T14:00:54Z</time>
      </trkpt>
      <trkpt lat="45.84504" lon="4.23199">
        <ele>507.858</ele>
        <time>2019-04-08T14:00:59Z</time>
      </trkpt>
      <trkpt lat="45.84505" lon="4.23197">
        <ele>507.809</ele>
        <time>2019-04-08T14:01:05Z</time>
      </trkpt>
      <trkpt lat="45.84504" lon="4.23197">
        <ele>507.8</ele>
        <time>2019-04-08T14:01:10Z</time>
      </trkpt>
      <trkpt lat="45.84502" lon="4.23198">
        <ele>507.785</ele>
        <time>2019-04-08T14:01:16Z</time>
      </trkpt>
      <trkpt lat="45.84503" lon="4.23198">
        <ele>507.757</ele>
        <time>2019-04-08T14:01:21Z</time>
      </trkpt>
      <trkpt lat="45.84502" lon="4.23197">
        <ele>507.638</ele>
        <time>2019-04-08T14:01:27Z</time>
      </trkpt>
      <trkpt lat="45.845" lon="4.23196">
        <ele>507.597</ele>
        <time>2019-04-08T14:01:33Z</time>
      </trkpt>
      <trkpt lat="45.845" lon="4.23195">
        <ele>507.489</ele>
        <time>2019-04-08T14:01:38Z</time>
      </trkpt>
      <trkpt lat="45.845" lon="4.23195">
        <ele>507.448</ele>
        <time>2019-04-08T14:01:43Z</time>
      </trkpt>
      <trkpt lat="45.84501" lon="4.23196">
        <ele>507.387</ele>
        <time>2019-04-08T14:01:49Z</time>
      </trkpt>
      <trkpt lat="45.84501" lon="4.23196">
        <ele>507.327</ele>
        <time>2019-04-08T14:01:55Z</time>
      </trkpt>
      <trkpt lat="45.84501" lon="4.23196">
        <ele>507.392</ele>
        <time>2019-04-08T14:02:00Z</time>
      </trkpt>
      <trkpt lat="45.84501" lon="4.23196">
        <ele>507.474</ele>
        <time>2019-04-08T14:02:06Z</time>
      </trkpt>
      <trkpt lat="45.84501" lon="4.23196">
        <ele>507.451</ele>
        <time>2019-04-08T14:02:12Z</time>
      </trkpt>
      <trkpt lat="45.84501" lon="4.23196">
        <ele>507.488</ele>
        <time>2019-04-08T14:02:17Z</time>
      </trkpt>
      <trkpt lat="45.84501" lon="4.23196">
        <ele>507.52</ele>
        <time>2019-04-08T14:02:23Z</time>
      </trkpt>
      <trkpt lat="45.84501" lon="4.23196">
        <ele>507.58</ele>
        <time>2019-04-08T14:02:29Z</time>
      </trkpt>
      <trkpt lat="45.84502" lon="4.23197">
        <ele>507.637</ele>
        <time>2019-04-08T14:02:34Z</time>
      </trkpt>
      <trkpt lat="45.84503" lon="4.23196">
        <ele>508.138</ele>
        <time>2019-04-08T14:02:40Z</time>
      </trkpt>
      <trkpt lat="45.84502" lon="4.23196">
        <ele>508.532</ele>
        <time>2019-04-08T14:02:46Z</time>
      </trkpt>
      <trkpt lat="45.84502" lon="4.23196">
        <ele>509.182</ele>
        <time>2019-04-08T14:02:51Z</time>
      </trkpt>
      <trkpt lat="45.84502" lon="4.23195">
        <ele>509.406</ele>
        <time>2019-04-08T14:02:57Z</time>
      </trkpt>
      <trkpt lat="45.84502" lon="4.23195">
        <ele>509.819</ele>
        <time>2019-04-08T14:03:02Z</time>
      </trkpt>
      <trkpt lat="45.84502" lon="4.23195">
        <ele>509.964</ele>
        <time>2019-04-08T14:03:08Z</time>
      </trkpt>
      <trkpt lat="45.84502" lon="4.23195">
        <ele>509.959</ele>
        <time>2019-04-08T14:03:13Z</time>
      </trkpt>
      <trkpt lat="45.84502" lon="4.23195">
        <ele>509.917</ele>
        <time>2019-04-08T14:03:18Z</time>
      </trkpt>
      <trkpt lat="45.84502" lon="4.23195">
        <ele>509.864</ele>
        <time>2019-04-08T14:03:24Z</time>
      </trkpt>
      <trkpt lat="45.84502" lon="4.23195">
        <ele>509.793</ele>
        <time>2019-04-08T14:03:30Z</time>
      </trkpt>
      <trkpt lat="45.84502" lon="4.23195">
        <ele>509.729</ele>
        <time>2019-04-08T14:03:35Z</time>
      </trkpt>
      <trkpt lat="45.84502" lon="4.23195">
        <ele>509.623</ele>
        <time>2019-04-08T14:03:41Z</time>
      </trkpt>
      <trkpt lat="45.84502" lon="4.23195">
        <ele>509.499</ele>
        <time>2019-04-08T14:03:47Z</time>
      </trkpt>
      <trkpt lat="45.84502" lon="4.23195">
        <ele>509.4</ele>
        <time>2019-04-08T14:03:52Z</time>
      </trkpt>
      <trkpt lat="45.84501" lon="4.23196">
        <ele>509.33</ele>
        <time>2019-04-08T14:03:57Z</time>
      </trkpt>
      <trkpt lat="45.84501" lon="4.23196">
        <ele>509.298</ele>
        <time>2019-04-08T14:04:02Z</time>
      </trkpt>
      <trkpt lat="45.84501" lon="4.23196">
        <ele>509.258</ele>
        <time>2019-04-08T14:04:08Z</time>
      </trkpt>
      <trkpt lat="45.84501" lon="4.23196">
        <ele>509.22</ele>
        <time>2019-04-08T14:04:13Z</time>
      </trkpt>
      <trkpt lat="45.84501" lon="4.23196">
        <ele>509.172</ele>
        <time>2019-04-08T14:04:18Z</time>
      </trkpt>
      <trkpt lat="45.84501" lon="4.23196">
        <ele>509.111</ele>
        <time>2019-04-08T14:04:23Z</time>
      </trkpt>
      <trkpt lat="45.84501" lon="4.23196">
        <ele>509.07</ele>
        <time>2019-04-08T14:04:29Z</time>
      </trkpt>
      <trkpt lat="45.84501" lon="4.23196">
        <ele>509.041</ele>
        <time>2019-04-08T14:04:34Z</time>
      </trkpt>
      <trkpt lat="45.84502" lon="4.23197">
        <ele>508.831</ele>
        <time>2019-04-08T14:04:40Z</time>
      </trkpt>
      <trkpt lat="45.84501" lon="4.23196">
        <ele>508.717</ele>
        <time>2019-04-08T14:04:46Z</time>
      </trkpt>
      <trkpt lat="45.84501" lon="4.23196">
        <ele>508.744</ele>
        <time>2019-04-08T14:04:51Z</time>
      </trkpt>
      <trkpt lat="45.84502" lon="4.23196">
        <ele>508.801</ele>
        <time>2019-04-08T14:04:56Z</time>
      </trkpt>
      <trkpt lat="45.84503" lon="4.23195">
        <ele>508.871</ele>
        <time>2019-04-08T14:05:02Z</time>
      </trkpt>
      <trkpt lat="45.84503" lon="4.23195">
        <ele>508.879</ele>
        <time>2019-04-08T14:05:08Z</time>
      </trkpt>
      <trkpt lat="45.84503" lon="4.23195">
        <ele>508.884</ele>
        <time>2019-04-08T14:05:13Z</time>
      </trkpt>
      <trkpt lat="45.84503" lon="4.23195">
        <ele>508.875</ele>
        <time>2019-04-08T14:05:18Z</time>
      </trkpt>
      <trkpt lat="45.84503" lon="4.23195">
        <ele>508.829</ele>
        <time>2019-04-08T14:05:23Z</time>
      </trkpt>
      <trkpt lat="45.84503" lon="4.23195">
        <ele>508.765</ele>
        <time>2019-04-08T14:05:29Z</time>
      </trkpt>
      <trkpt lat="45.84503" lon="4.23195">
        <ele>508.703</ele>
        <time>2019-04-08T14:05:35Z</time>
      </trkpt>
      <trkpt lat="45.84503" lon="4.23195">
        <ele>508.583</ele>
        <time>2019-04-08T14:05:40Z</time>
      </trkpt>
      <trkpt lat="45.84505" lon="4.23196">
        <ele>508.288</ele>
        <time>2019-04-08T14:05:46Z</time>
      </trkpt>
      <trkpt lat="45.84505" lon="4.23196">
        <ele>507.853</ele>
        <time>2019-04-08T14:05:51Z</time>
      </trkpt>
      <trkpt lat="45.84507" lon="4.23194">
        <ele>507.157</ele>
        <time>2019-04-08T14:05:56Z</time>
      </trkpt>
      <trkpt lat="45.84508" lon="4.23194">
        <ele>506.576</ele>
        <time>2019-04-08T14:06:02Z</time>
      </trkpt>
      <trkpt lat="45.8451" lon="4.23192">
        <ele>505.408</ele>
        <time>2019-04-08T14:06:08Z</time>
      </trkpt>
      <trkpt lat="45.84516" lon="4.23191">
        <ele>504.782</ele>
        <time>2019-04-08T14:06:13Z</time>
      </trkpt>
      <trkpt lat="45.84517" lon="4.23191">
        <ele>504.433</ele>
        <time>2019-04-08T14:06:19Z</time>
      </trkpt>
      <trkpt lat="45.84519" lon="4.2319">
        <ele>504.197</ele>
        <time>2019-04-08T14:06:25Z</time>
      </trkpt>
      <trkpt lat="45.8452" lon="4.23189">
        <ele>503.723</ele>
        <time>2019-04-08T14:06:30Z</time>
      </trkpt>
      <trkpt lat="45.84528" lon="4.23186">
        <ele>503.191</ele>
        <time>2019-04-08T14:06:36Z</time>
      </trkpt>
      <trkpt lat="45.84533" lon="4.23184">
        <ele>503.213</ele>
        <time>2019-04-08T14:06:42Z</time>
      </trkpt>
      <trkpt lat="45.84535" lon="4.23182">
        <ele>503.05</ele>
        <time>2019-04-08T14:06:47Z</time>
      </trkpt>
      <trkpt lat="45.8454" lon="4.23181">
        <ele>502.437</ele>
        <time>2019-04-08T14:06:53Z</time>
      </trkpt>
      <trkpt lat="45.84544" lon="4.23178">
        <ele>502.354</ele>
        <time>2019-04-08T14:06:58Z</time>
      </trkpt>
      <trkpt lat="45.84552" lon="4.23171">
        <ele>502.372</ele>
        <time>2019-04-08T14:07:04Z</time>
      </trkpt>
      <trkpt lat="45.84553" lon="4.2317">
        <ele>502.006</ele>
        <time>2019-04-08T14:07:09Z</time>
      </trkpt>
      <trkpt lat="45.84558" lon="4.23166">
        <ele>501.592</ele>
        <time>2019-04-08T14:07:15Z</time>
      </trkpt>
      <trkpt lat="45.84564" lon="4.23162">
        <ele>500.87</ele>
        <time>2019-04-08T14:07:20Z</time>
      </trkpt>
      <trkpt lat="45.84571" lon="4.23158">
        <ele>499.677</ele>
        <time>2019-04-08T14:07:26Z</time>
      </trkpt>
      <trkpt lat="45.84574" lon="4.23157">
        <ele>498.884</ele>
        <time>2019-04-08T14:07:31Z</time>
      </trkpt>
      <trkpt lat="45.84583" lon="4.23154">
        <ele>497.653</ele>
        <time>2019-04-08T14:07:37Z</time>
      </trkpt>
      <trkpt lat="45.84592" lon="4.23153">
        <ele>495.849</ele>
        <time>2019-04-08T14:07:42Z</time>
      </trkpt>
      <trkpt lat="45.846" lon="4.23153">
        <ele>494.477</ele>
        <time>2019-04-08T14:07:47Z</time>
      </trkpt>
      <trkpt lat="45.84609" lon="4.23153">
        <ele>493.749</ele>
        <time>2019-04-08T14:07:52Z</time>
      </trkpt>
      <trkpt lat="45.84614" lon="4.23153">
        <ele>493.414</ele>
        <time>2019-04-08T14:07:58Z</time>
      </trkpt>
      <trkpt lat="45.84619" lon="4.23154">
        <ele>493.127</ele>
        <time>2019-04-08T14:08:03Z</time>
      </trkpt>
      <trkpt lat="45.84626" lon="4.23154">
        <ele>492.251</ele>
        <time>2019-04-08T14:08:08Z</time>
      </trkpt>
      <trkpt lat="45.84631" lon="4.23154">
        <ele>491.21</ele>
        <time>2019-04-08T14:08:14Z</time>
      </trkpt>
      <trkpt lat="45.84635" lon="4.23155">
        <ele>490.681</ele>
        <time>2019-04-08T14:08:20Z</time>
      </trkpt>
      <trkpt lat="45.84646" lon="4.23157">
        <ele>489.584</ele>
        <time>2019-04-08T14:08:26Z</time>
      </trkpt>
      <trkpt lat="45.84653" lon="4.23157">
        <ele>488.468</ele>
        <time>2019-04-08T14:08:32Z</time>
      </trkpt>
      <trkpt lat="45.84655" lon="4.23156">
        <ele>487.832</ele>
        <time>2019-04-08T14:08:37Z</time>
      </trkpt>
      <trkpt lat="45.84658" lon="4.23157">
        <ele>487.6</ele>
        <time>2019-04-08T14:08:42Z</time>
      </trkpt>
      <trkpt lat="45.84664" lon="4.23156">
        <ele>487.649</ele>
        <time>2019-04-08T14:08:47Z</time>
      </trkpt>
      <trkpt lat="45.84669" lon="4.23156">
        <ele>486.992</ele>
        <time>2019-04-08T14:08:53Z</time>
      </trkpt>
      <trkpt lat="45.84674" lon="4.23156">
        <ele>486.378</ele>
        <time>2019-04-08T14:08:58Z</time>
      </trkpt>
      <trkpt lat="45.84685" lon="4.23154">
        <ele>486.468</ele>
        <time>2019-04-08T14:09:04Z</time>
      </trkpt>
      <trkpt lat="45.84695" lon="4.23154">
        <ele>486.959</ele>
        <time>2019-04-08T14:09:10Z</time>
      </trkpt>
      <trkpt lat="45.84701" lon="4.23149">
        <ele>487.277</ele>
        <time>2019-04-08T14:09:16Z</time>
      </trkpt>
      <trkpt lat="45.84704" lon="4.23146">
        <ele>487.769</ele>
        <time>2019-04-08T14:09:21Z</time>
      </trkpt>
      <trkpt lat="45.8471" lon="4.23138">
        <ele>488.447</ele>
        <time>2019-04-08T14:09:27Z</time>
      </trkpt>
      <trkpt lat="45.84714" lon="4.23133">
        <ele>488.502</ele>
        <time>2019-04-08T14:09:33Z</time>
      </trkpt>
      <trkpt lat="45.8472" lon="4.23124">
        <ele>488.96</ele>
        <time>2019-04-08T14:09:39Z</time>
      </trkpt>
      <trkpt lat="45.84726" lon="4.23118">
        <ele>489.458</ele>
        <time>2019-04-08T14:09:44Z</time>
      </trkpt>
      <trkpt lat="45.84729" lon="4.23117">
        <ele>490.351</ele>
        <time>2019-04-08T14:09:49Z</time>
      </trkpt>
      <trkpt lat="45.84731" lon="4.23117">
        <ele>490.578</ele>
        <time>2019-04-08T14:09:55Z</time>
      </trkpt>
      <trkpt lat="45.84733" lon="4.23119">
        <ele>489.926</ele>
        <time>2019-04-08T14:10:01Z</time>
      </trkpt>
      <trkpt lat="45.84735" lon="4.2312">
        <ele>489.84</ele>
        <time>2019-04-08T14:10:06Z</time>
      </trkpt>
      <trkpt lat="45.84737" lon="4.23121">
        <ele>489.883</ele>
        <time>2019-04-08T14:10:12Z</time>
      </trkpt>
      <trkpt lat="45.84739" lon="4.23123">
        <ele>490.327</ele>
        <time>2019-04-08T14:10:17Z</time>
      </trkpt>
      <trkpt lat="45.84743" lon="4.23126">
        <ele>490.621</ele>
        <time>2019-04-08T14:10:23Z</time>
      </trkpt>
      <trkpt lat="45.84746" lon="4.23129">
        <ele>490.737</ele>
        <time>2019-04-08T14:10:28Z</time>
      </trkpt>
      <trkpt lat="45.8475" lon="4.23131">
        <ele>490.881</ele>
        <time>2019-04-08T14:10:34Z</time>
      </trkpt>
      <trkpt lat="45.84752" lon="4.23134">
        <ele>491.193</ele>
        <time>2019-04-08T14:10:39Z</time>
      </trkpt>
      <trkpt lat="45.84758" lon="4.23133">
        <ele>491.818</ele>
        <time>2019-04-08T14:10:45Z</time>
      </trkpt>
      <trkpt lat="45.84763" lon="4.23135">
        <ele>491.943</ele>
        <time>2019-04-08T14:10:50Z</time>
      </trkpt>
      <trkpt lat="45.84769" lon="4.23137">
        <ele>492.476</ele>
        <time>2019-04-08T14:10:56Z</time>
      </trkpt>
      <trkpt lat="45.84772" lon="4.23138">
        <ele>492.823</ele>
        <time>2019-04-08T14:11:01Z</time>
      </trkpt>
      <trkpt lat="45.84777" lon="4.23138">
        <ele>493.446</ele>
        <time>2019-04-08T14:11:07Z</time>
      </trkpt>
      <trkpt lat="45.8478" lon="4.23137">
        <ele>494.325</ele>
        <time>2019-04-08T14:11:13Z</time>
      </trkpt>
      <trkpt lat="45.84784" lon="4.23136">
        <ele>494.272</ele>
        <time>2019-04-08T14:11:19Z</time>
      </trkpt>
      <trkpt lat="45.8479" lon="4.23133">
        <ele>494.992</ele>
        <time>2019-04-08T14:11:25Z</time>
      </trkpt>
      <trkpt lat="45.84794" lon="4.2313">
        <ele>495.941</ele>
        <time>2019-04-08T14:11:31Z</time>
      </trkpt>
      <trkpt lat="45.84797" lon="4.23127">
        <ele>496.618</ele>
        <time>2019-04-08T14:11:36Z</time>
      </trkpt>
      <trkpt lat="45.848" lon="4.23126">
        <ele>497.23</ele>
        <time>2019-04-08T14:11:42Z</time>
      </trkpt>
      <trkpt lat="45.84801" lon="4.23127">
        <ele>497.764</ele>
        <time>2019-04-08T14:11:47Z</time>
      </trkpt>
      <trkpt lat="45.84803" lon="4.23127">
        <ele>498.51</ele>
        <time>2019-04-08T14:11:53Z</time>
      </trkpt>
      <trkpt lat="45.84806" lon="4.23126">
        <ele>498.773</ele>
        <time>2019-04-08T14:11:58Z</time>
      </trkpt>
      <trkpt lat="45.84813" lon="4.23133">
        <ele>500.034</ele>
        <time>2019-04-08T14:12:04Z</time>
      </trkpt>
      <trkpt lat="45.84819" lon="4.2314">
        <ele>501.543</ele>
        <time>2019-04-08T14:12:09Z</time>
      </trkpt>
      <trkpt lat="45.84823" lon="4.23146">
        <ele>503.807</ele>
        <time>2019-04-08T14:12:15Z</time>
      </trkpt>
      <trkpt lat="45.84824" lon="4.23152">
        <ele>505.441</ele>
        <time>2019-04-08T14:12:20Z</time>
      </trkpt>
      <trkpt lat="45.84824" lon="4.2316">
        <ele>506.779</ele>
        <time>2019-04-08T14:12:26Z</time>
      </trkpt>
      <trkpt lat="45.84829" lon="4.23171">
        <ele>507.969</ele>
        <time>2019-04-08T14:12:32Z</time>
      </trkpt>
      <trkpt lat="45.8483" lon="4.23179">
        <ele>509.108</ele>
        <time>2019-04-08T14:12:38Z</time>
      </trkpt>
      <trkpt lat="45.84832" lon="4.23186">
        <ele>509.928</ele>
        <time>2019-04-08T14:12:44Z</time>
      </trkpt>
      <trkpt lat="45.84832" lon="4.2319">
        <ele>510.828</ele>
        <time>2019-04-08T14:12:49Z</time>
      </trkpt>
      <trkpt lat="45.84834" lon="4.23197">
        <ele>511.655</ele>
        <time>2019-04-08T14:12:55Z</time>
      </trkpt>
      <trkpt lat="45.84837" lon="4.23203">
        <ele>512.78</ele>
        <time>2019-04-08T14:13:01Z</time>
      </trkpt>
      <trkpt lat="45.84841" lon="4.23209">
        <ele>514.123</ele>
        <time>2019-04-08T14:13:07Z</time>
      </trkpt>
      <trkpt lat="45.84844" lon="4.23214">
        <ele>515.112</ele>
        <time>2019-04-08T14:13:12Z</time>
      </trkpt>
      <trkpt lat="45.8485" lon="4.23217">
        <ele>516.502</ele>
        <time>2019-04-08T14:13:18Z</time>
      </trkpt>
      <trkpt lat="45.84855" lon="4.2322">
        <ele>517.625</ele>
        <time>2019-04-08T14:13:23Z</time>
      </trkpt>
      <trkpt lat="45.84861" lon="4.23223">
        <ele>518.984</ele>
        <time>2019-04-08T14:13:29Z</time>
      </trkpt>
      <trkpt lat="45.84865" lon="4.23224">
        <ele>519.803</ele>
        <time>2019-04-08T14:13:34Z</time>
      </trkpt>
      <trkpt lat="45.84874" lon="4.23224">
        <ele>520.397</ele>
        <time>2019-04-08T14:13:39Z</time>
      </trkpt>
      <trkpt lat="45.84879" lon="4.23225">
        <ele>520.923</ele>
        <time>2019-04-08T14:13:44Z</time>
      </trkpt>
      <trkpt lat="45.84884" lon="4.23225">
        <ele>521.946</ele>
        <time>2019-04-08T14:13:50Z</time>
      </trkpt>
      <trkpt lat="45.84889" lon="4.23225">
        <ele>522.785</ele>
        <time>2019-04-08T14:13:55Z</time>
      </trkpt>
      <trkpt lat="45.84897" lon="4.23227">
        <ele>523.942</ele>
        <time>2019-04-08T14:14:01Z</time>
      </trkpt>
      <trkpt lat="45.84903" lon="4.23227">
        <ele>525.086</ele>
        <time>2019-04-08T14:14:06Z</time>
      </trkpt>
      <trkpt lat="45.84911" lon="4.23226">
        <ele>526.568</ele>
        <time>2019-04-08T14:14:12Z</time>
      </trkpt>
      <trkpt lat="45.84915" lon="4.23228">
        <ele>527.679</ele>
        <time>2019-04-08T14:14:17Z</time>
      </trkpt>
      <trkpt lat="45.84923" lon="4.23233">
        <ele>528.74</ele>
        <time>2019-04-08T14:14:23Z</time>
      </trkpt>
      <trkpt lat="45.84928" lon="4.23235">
        <ele>529.486</ele>
        <time>2019-04-08T14:14:29Z</time>
      </trkpt>
      <trkpt lat="45.84937" lon="4.23237">
        <ele>530.174</ele>
        <time>2019-04-08T14:14:35Z</time>
      </trkpt>
      <trkpt lat="45.84944" lon="4.23239">
        <ele>530.959</ele>
        <time>2019-04-08T14:14:40Z</time>
      </trkpt>
      <trkpt lat="45.84948" lon="4.23243">
        <ele>531.718</ele>
        <time>2019-04-08T14:14:46Z</time>
      </trkpt>
      <trkpt lat="45.84953" lon="4.23245">
        <ele>532.035</ele>
        <time>2019-04-08T14:14:51Z</time>
      </trkpt>
      <trkpt lat="45.84959" lon="4.23247">
        <ele>532.152</ele>
        <time>2019-04-08T14:14:57Z</time>
      </trkpt>
      <trkpt lat="45.84966" lon="4.23249">
        <ele>532.466</ele>
        <time>2019-04-08T14:15:02Z</time>
      </trkpt>
      <trkpt lat="45.8497" lon="4.2325">
        <ele>533.329</ele>
        <time>2019-04-08T14:15:07Z</time>
      </trkpt>
      <trkpt lat="45.84976" lon="4.23248">
        <ele>534.217</ele>
        <time>2019-04-08T14:15:12Z</time>
      </trkpt>
      <trkpt lat="45.84982" lon="4.2325">
        <ele>534.992</ele>
        <time>2019-04-08T14:15:18Z</time>
      </trkpt>
      <trkpt lat="45.84987" lon="4.23251">
        <ele>535.526</ele>
        <time>2019-04-08T14:15:24Z</time>
      </trkpt>
      <trkpt lat="45.84992" lon="4.23251">
        <ele>535.916</ele>
        <time>2019-04-08T14:15:30Z</time>
      </trkpt>
      <trkpt lat="45.84998" lon="4.2325">
        <ele>536.282</ele>
        <time>2019-04-08T14:15:35Z</time>
      </trkpt>
      <trkpt lat="45.85003" lon="4.2325">
        <ele>536.324</ele>
        <time>2019-04-08T14:15:40Z</time>
      </trkpt>
      <trkpt lat="45.85009" lon="4.23249">
        <ele>536.783</ele>
        <time>2019-04-08T14:15:46Z</time>
      </trkpt>
      <trkpt lat="45.85014" lon="4.23249">
        <ele>537.334</ele>
        <time>2019-04-08T14:15:52Z</time>
      </trkpt>
      <trkpt lat="45.85021" lon="4.23248">
        <ele>537.698</ele>
        <time>2019-04-08T14:15:58Z</time>
      </trkpt>
      <trkpt lat="45.85027" lon="4.23246">
        <ele>538.068</ele>
        <time>2019-04-08T14:16:04Z</time>
      </trkpt>
      <trkpt lat="45.85033" lon="4.23244">
        <ele>538.469</ele>
        <time>2019-04-08T14:16:09Z</time>
      </trkpt>
      <trkpt lat="45.8504" lon="4.23241">
        <ele>538.904</ele>
        <time>2019-04-08T14:16:15Z</time>
      </trkpt>
      <trkpt lat="45.85046" lon="4.23241">
        <ele>539.201</ele>
        <time>2019-04-08T14:16:20Z</time>
      </trkpt>
      <trkpt lat="45.85054" lon="4.23239">
        <ele>539.562</ele>
        <time>2019-04-08T14:16:26Z</time>
      </trkpt>
      <trkpt lat="45.85059" lon="4.23238">
        <ele>539.696</ele>
        <time>2019-04-08T14:16:31Z</time>
      </trkpt>
      <trkpt lat="45.85064" lon="4.23234">
        <ele>539.895</ele>
        <time>2019-04-08T14:16:37Z</time>
      </trkpt>
      <trkpt lat="45.85069" lon="4.23231">
        <ele>540.339</ele>
        <time>2019-04-08T14:16:43Z</time>
      </trkpt>
      <trkpt lat="45.85076" lon="4.23226">
        <ele>540.647</ele>
        <time>2019-04-08T14:16:49Z</time>
      </trkpt>
      <trkpt lat="45.85081" lon="4.23223">
        <ele>541.073</ele>
        <time>2019-04-08T14:16:54Z</time>
      </trkpt>
      <trkpt lat="45.85086" lon="4.2322">
        <ele>541.546</ele>
        <time>2019-04-08T14:17:00Z</time>
      </trkpt>
      <trkpt lat="45.85089" lon="4.23219">
        <ele>541.944</ele>
        <time>2019-04-08T14:17:06Z</time>
      </trkpt>
      <trkpt lat="45.85094" lon="4.23217">
        <ele>542.685</ele>
        <time>2019-04-08T14:17:12Z</time>
      </trkpt>
      <trkpt lat="45.85097" lon="4.23216">
        <ele>543.151</ele>
        <time>2019-04-08T14:17:17Z</time>
      </trkpt>
      <trkpt lat="45.85099" lon="4.23214">
        <ele>544.029</ele>
        <time>2019-04-08T14:17:23Z</time>
      </trkpt>
      <trkpt lat="45.85102" lon="4.23211">
        <ele>544.731</ele>
        <time>2019-04-08T14:17:29Z</time>
      </trkpt>
      <trkpt lat="45.85108" lon="4.23209">
        <ele>544.994</ele>
        <time>2019-04-08T14:17:34Z</time>
      </trkpt>
      <trkpt lat="45.85113" lon="4.23209">
        <ele>544.945</ele>
        <time>2019-04-08T14:17:39Z</time>
      </trkpt>
      <trkpt lat="45.85119" lon="4.23207">
        <ele>545.196</ele>
        <time>2019-04-08T14:17:45Z</time>
      </trkpt>
      <trkpt lat="45.85122" lon="4.23206">
        <ele>545.879</ele>
        <time>2019-04-08T14:17:50Z</time>
      </trkpt>
      <trkpt lat="45.85127" lon="4.23206">
        <ele>546.309</ele>
        <time>2019-04-08T14:17:56Z</time>
      </trkpt>
      <trkpt lat="45.85135" lon="4.23203">
        <ele>546.117</ele>
        <time>2019-04-08T14:18:01Z</time>
      </trkpt>
      <trkpt lat="45.85143" lon="4.23201">
        <ele>545.802</ele>
        <time>2019-04-08T14:18:07Z</time>
      </trkpt>
      <trkpt lat="45.85148" lon="4.232">
        <ele>545.625</ele>
        <time>2019-04-08T14:18:12Z</time>
      </trkpt>
      <trkpt lat="45.85152" lon="4.23199">
        <ele>545.07</ele>
        <time>2019-04-08T14:18:18Z</time>
      </trkpt>
      <trkpt lat="45.85154" lon="4.23199">
        <ele>545.019</ele>
        <time>2019-04-08T14:18:23Z</time>
      </trkpt>
      <trkpt lat="45.85159" lon="4.23199">
        <ele>544.762</ele>
        <time>2019-04-08T14:18:28Z</time>
      </trkpt>
      <trkpt lat="45.85164" lon="4.23199">
        <ele>544.588</ele>
        <time>2019-04-08T14:18:33Z</time>
      </trkpt>
      <trkpt lat="45.85169" lon="4.23199">
        <ele>545.015</ele>
        <time>2019-04-08T14:18:39Z</time>
      </trkpt>
      <trkpt lat="45.85177" lon="4.23199">
        <ele>544.968</ele>
        <time>2019-04-08T14:18:45Z</time>
      </trkpt>
      <trkpt lat="45.8518" lon="4.23199">
        <ele>545.076</ele>
        <time>2019-04-08T14:18:50Z</time>
      </trkpt>
      <trkpt lat="45.85183" lon="4.23201">
        <ele>545.188</ele>
        <time>2019-04-08T14:18:56Z</time>
      </trkpt>
      <trkpt lat="45.85188" lon="4.23202">
        <ele>545.436</ele>
        <time>2019-04-08T14:19:02Z</time>
      </trkpt>
      <trkpt lat="45.85191" lon="4.23202">
        <ele>545.806</ele>
        <time>2019-04-08T14:19:08Z</time>
      </trkpt>
      <trkpt lat="45.85197" lon="4.23205">
        <ele>546.338</ele>
        <time>2019-04-08T14:19:13Z</time>
      </trkpt>
      <trkpt lat="45.85201" lon="4.23208">
        <ele>546.804</ele>
        <time>2019-04-08T14:19:19Z</time>
      </trkpt>
      <trkpt lat="45.85208" lon="4.23213">
        <ele>547.289</ele>
        <time>2019-04-08T14:19:25Z</time>
      </trkpt>
      <trkpt lat="45.85211" lon="4.23218">
        <ele>547.499</ele>
        <time>2019-04-08T14:19:30Z</time>
      </trkpt>
      <trkpt lat="45.85213" lon="4.23224">
        <ele>547.773</ele>
        <time>2019-04-08T14:19:36Z</time>
      </trkpt>
      <trkpt lat="45.85212" lon="4.23228">
        <ele>547.957</ele>
        <time>2019-04-08T14:19:42Z</time>
      </trkpt>
      <trkpt lat="45.85213" lon="4.23238">
        <ele>547.266</ele>
        <time>2019-04-08T14:19:48Z</time>
      </trkpt>
      <trkpt lat="45.85215" lon="4.23244">
        <ele>546.664</ele>
        <time>2019-04-08T14:19:53Z</time>
      </trkpt>
      <trkpt lat="45.8522" lon="4.23248">
        <ele>546.628</ele>
        <time>2019-04-08T14:19:58Z</time>
      </trkpt>
      <trkpt lat="45.85224" lon="4.23254">
        <ele>546.872</ele>
        <time>2019-04-08T14:20:04Z</time>
      </trkpt>
      <trkpt lat="45.8523" lon="4.23259">
        <ele>547.481</ele>
        <time>2019-04-08T14:20:10Z</time>
      </trkpt>
      <trkpt lat="45.85235" lon="4.23259">
        <ele>548.324</ele>
        <time>2019-04-08T14:20:16Z</time>
      </trkpt>
      <trkpt lat="45.8524" lon="4.23262">
        <ele>548.748</ele>
        <time>2019-04-08T14:20:22Z</time>
      </trkpt>
      <trkpt lat="45.85246" lon="4.23265">
        <ele>549.372</ele>
        <time>2019-04-08T14:20:27Z</time>
      </trkpt>
      <trkpt lat="45.8525" lon="4.23266">
        <ele>549.537</ele>
        <time>2019-04-08T14:20:33Z</time>
      </trkpt>
      <trkpt lat="45.85253" lon="4.23268">
        <ele>550.164</ele>
        <time>2019-04-08T14:20:39Z</time>
      </trkpt>
      <trkpt lat="45.85254" lon="4.2327">
        <ele>551.345</ele>
        <time>2019-04-08T14:20:45Z</time>
      </trkpt>
      <trkpt lat="45.85256" lon="4.2327">
        <ele>551.881</ele>
        <time>2019-04-08T14:20:50Z</time>
      </trkpt>
      <trkpt lat="45.85263" lon="4.23273">
        <ele>552.682</ele>
        <time>2019-04-08T14:20:56Z</time>
      </trkpt>
      <trkpt lat="45.85269" lon="4.23275">
        <ele>553.165</ele>
        <time>2019-04-08T14:21:01Z</time>
      </trkpt>
      <trkpt lat="45.85276" lon="4.23277">
        <ele>553.508</ele>
        <time>2019-04-08T14:21:07Z</time>
      </trkpt>
      <trkpt lat="45.85284" lon="4.23282">
        <ele>553.692</ele>
        <time>2019-04-08T14:21:13Z</time>
      </trkpt>
      <trkpt lat="45.85289" lon="4.23285">
        <ele>553.897</ele>
        <time>2019-04-08T14:21:19Z</time>
      </trkpt>
      <trkpt lat="45.85293" lon="4.23286">
        <ele>554.162</ele>
        <time>2019-04-08T14:21:24Z</time>
      </trkpt>
      <trkpt lat="45.853" lon="4.23291">
        <ele>553.983</ele>
        <time>2019-04-08T14:21:30Z</time>
      </trkpt>
      <trkpt lat="45.85305" lon="4.23291">
        <ele>553.983</ele>
        <time>2019-04-08T14:21:36Z</time>
      </trkpt>
      <trkpt lat="45.85307" lon="4.23293">
        <ele>554.684</ele>
        <time>2019-04-08T14:21:41Z</time>
      </trkpt>
      <trkpt lat="45.85311" lon="4.23293">
        <ele>555.498</ele>
        <time>2019-04-08T14:21:47Z</time>
      </trkpt>
      <trkpt lat="45.85315" lon="4.23296">
        <ele>556.395</ele>
        <time>2019-04-08T14:21:53Z</time>
      </trkpt>
      <trkpt lat="45.85318" lon="4.23298">
        <ele>556.773</ele>
        <time>2019-04-08T14:21:58Z</time>
      </trkpt>
      <trkpt lat="45.85321" lon="4.23297">
        <ele>556.715</ele>
        <time>2019-04-08T14:22:04Z</time>
      </trkpt>
      <trkpt lat="45.85325" lon="4.23294">
        <ele>556.747</ele>
        <time>2019-04-08T14:22:09Z</time>
      </trkpt>
      <trkpt lat="45.85326" lon="4.23295">
        <ele>556.976</ele>
        <time>2019-04-08T14:22:15Z</time>
      </trkpt>
      <trkpt lat="45.85325" lon="4.23296">
        <ele>557.504</ele>
        <time>2019-04-08T14:22:20Z</time>
      </trkpt>
      <trkpt lat="45.85324" lon="4.23298">
        <ele>557.751</ele>
        <time>2019-04-08T14:22:26Z</time>
      </trkpt>
      <trkpt lat="45.85324" lon="4.23298">
        <ele>557.791</ele>
        <time>2019-04-08T14:22:31Z</time>
      </trkpt>
      <trkpt lat="45.85323" lon="4.23298">
        <ele>557.805</ele>
        <time>2019-04-08T14:22:36Z</time>
      </trkpt>
      <trkpt lat="45.85323" lon="4.23299">
        <ele>558.019</ele>
        <time>2019-04-08T14:22:42Z</time>
      </trkpt>
      <trkpt lat="45.85323" lon="4.233">
        <ele>558.135</ele>
        <time>2019-04-08T14:22:48Z</time>
      </trkpt>
      <trkpt lat="45.85323" lon="4.23301">
        <ele>558.154</ele>
        <time>2019-04-08T14:22:53Z</time>
      </trkpt>
      <trkpt lat="45.85323" lon="4.23301">
        <ele>558.169</ele>
        <time>2019-04-08T14:22:59Z</time>
      </trkpt>
      <trkpt lat="45.85323" lon="4.23301">
        <ele>558.19</ele>
        <time>2019-04-08T14:23:04Z</time>
      </trkpt>
      <trkpt lat="45.85323" lon="4.233">
        <ele>558.25</ele>
        <time>2019-04-08T14:23:09Z</time>
      </trkpt>
      <trkpt lat="45.85323" lon="4.233">
        <ele>558.264</ele>
        <time>2019-04-08T14:23:15Z</time>
      </trkpt>
      <trkpt lat="45.85323" lon="4.233">
        <ele>558.256</ele>
        <time>2019-04-08T14:23:20Z</time>
      </trkpt>
      <trkpt lat="45.85323" lon="4.233">
        <ele>558.245</ele>
        <time>2019-04-08T14:23:26Z</time>
      </trkpt>
      <trkpt lat="45.85323" lon="4.233">
        <ele>558.384</ele>
        <time>2019-04-08T14:23:32Z</time>
      </trkpt>
      <trkpt lat="45.85323" lon="4.233">
        <ele>558.438</ele>
        <time>2019-04-08T14:23:38Z</time>
      </trkpt>
      <trkpt lat="45.85323" lon="4.233">
        <ele>558.481</ele>
        <time>2019-04-08T14:23:43Z</time>
      </trkpt>
      <trkpt lat="45.85323" lon="4.233">
        <ele>558.496</ele>
        <time>2019-04-08T14:23:49Z</time>
      </trkpt>
      <trkpt lat="45.85323" lon="4.233">
        <ele>558.47</ele>
        <time>2019-04-08T14:23:54Z</time>
      </trkpt>
      <trkpt lat="45.85324" lon="4.23298">
        <ele>557.832</ele>
        <time>2019-04-08T14:24:00Z</time>
      </trkpt>
      <trkpt lat="45.85323" lon="4.2329">
        <ele>557.648</ele>
        <time>2019-04-08T14:24:06Z</time>
      </trkpt>
      <trkpt lat="45.85322" lon="4.23285">
        <ele>557.57</ele>
        <time>2019-04-08T14:24:12Z</time>
      </trkpt>
      <trkpt lat="45.85318" lon="4.23281">
        <ele>557.758</ele>
        <time>2019-04-08T14:24:18Z</time>
      </trkpt>
      <trkpt lat="45.85316" lon="4.23279">
        <ele>557.969</ele>
        <time>2019-04-08T14:24:23Z</time>
      </trkpt>
      <trkpt lat="45.85312" lon="4.23274">
        <ele>558.491</ele>
        <time>2019-04-08T14:24:29Z</time>
      </trkpt>
      <trkpt lat="45.85311" lon="4.23271">
        <ele>558.802</ele>
        <time>2019-04-08T14:24:34Z</time>
      </trkpt>
      <trkpt lat="45.85312" lon="4.23271">
        <ele>559.337</ele>
        <time>2019-04-08T14:24:40Z</time>
      </trkpt>
      <trkpt lat="45.85313" lon="4.23272">
        <ele>559.477</ele>
        <time>2019-04-08T14:24:46Z</time>
      </trkpt>
      <trkpt lat="45.85313" lon="4.23273">
        <ele>559.651</ele>
        <time>2019-04-08T14:24:51Z</time>
      </trkpt>
      <trkpt lat="45.85312" lon="4.23273">
        <ele>559.779</ele>
        <time>2019-04-08T14:24:57Z</time>
      </trkpt>
      <trkpt lat="45.85311" lon="4.23272">
        <ele>559.846</ele>
        <time>2019-04-08T14:25:02Z</time>
      </trkpt>
      <trkpt lat="45.85312" lon="4.23271">
        <ele>559.835</ele>
        <time>2019-04-08T14:25:07Z</time>
      </trkpt>
      <trkpt lat="45.85312" lon="4.23271">
        <ele>559.771</ele>
        <time>2019-04-08T14:25:13Z</time>
      </trkpt>
      <trkpt lat="45.85312" lon="4.23271">
        <ele>559.654</ele>
        <time>2019-04-08T14:25:18Z</time>
      </trkpt>
      <trkpt lat="45.85312" lon="4.23271">
        <ele>559.598</ele>
        <time>2019-04-08T14:25:24Z</time>
      </trkpt>
      <trkpt lat="45.85311" lon="4.23271">
        <ele>559.553</ele>
        <time>2019-04-08T14:25:30Z</time>
      </trkpt>
      <trkpt lat="45.8531" lon="4.2327">
        <ele>559.693</ele>
        <time>2019-04-08T14:25:36Z</time>
      </trkpt>
      <trkpt lat="45.85308" lon="4.23267">
        <ele>560.087</ele>
        <time>2019-04-08T14:25:41Z</time>
      </trkpt>
      <trkpt lat="45.85303" lon="4.23263">
        <ele>560.382</ele>
        <time>2019-04-08T14:25:47Z</time>
      </trkpt>
      <trkpt lat="45.85302" lon="4.23259">
        <ele>560.435</ele>
        <time>2019-04-08T14:25:53Z</time>
      </trkpt>
      <trkpt lat="45.853" lon="4.23256">
        <ele>560.481</ele>
        <time>2019-04-08T14:25:58Z</time>
      </trkpt>
      <trkpt lat="45.853" lon="4.23256">
        <ele>560.462</ele>
        <time>2019-04-08T14:26:03Z</time>
      </trkpt>
      <trkpt lat="45.853" lon="4.23256">
        <ele>560.56</ele>
        <time>2019-04-08T14:26:08Z</time>
      </trkpt>
      <trkpt lat="45.85299" lon="4.23256">
        <ele>560.73</ele>
        <time>2019-04-08T14:26:14Z</time>
      </trkpt>
      <trkpt lat="45.85299" lon="4.23255">
        <ele>560.769</ele>
        <time>2019-04-08T14:26:20Z</time>
      </trkpt>
      <trkpt lat="45.853" lon="4.23255">
        <ele>560.932</ele>
        <time>2019-04-08T14:26:26Z</time>
      </trkpt>
      <trkpt lat="45.853" lon="4.23255">
        <ele>561.351</ele>
        <time>2019-04-08T14:26:32Z</time>
      </trkpt>
      <trkpt lat="45.853" lon="4.23255">
        <ele>561.467</ele>
        <time>2019-04-08T14:26:38Z</time>
      </trkpt>
      <trkpt lat="45.853" lon="4.23255">
        <ele>561.579</ele>
        <time>2019-04-08T14:26:44Z</time>
      </trkpt>
      <trkpt lat="45.85301" lon="4.23255">
        <ele>561.653</ele>
        <time>2019-04-08T14:26:49Z</time>
      </trkpt>
      <trkpt lat="45.85301" lon="4.23255">
        <ele>561.692</ele>
        <time>2019-04-08T14:26:55Z</time>
      </trkpt>
      <trkpt lat="45.85301" lon="4.23255">
        <ele>561.726</ele>
        <time>2019-04-08T14:27:00Z</time>
      </trkpt>
      <trkpt lat="45.85301" lon="4.23255">
        <ele>561.751</ele>
        <time>2019-04-08T14:27:06Z</time>
      </trkpt>
      <trkpt lat="45.85301" lon="4.23255">
        <ele>561.832</ele>
        <time>2019-04-08T14:27:12Z</time>
      </trkpt>
      <trkpt lat="45.85301" lon="4.23255">
        <ele>561.906</ele>
        <time>2019-04-08T14:27:17Z</time>
      </trkpt>
      <trkpt lat="45.85301" lon="4.23255">
        <ele>562.007</ele>
        <time>2019-04-08T14:27:23Z</time>
      </trkpt>
      <trkpt lat="45.85301" lon="4.23255">
        <ele>562.069</ele>
        <time>2019-04-08T14:27:28Z</time>
      </trkpt>
      <trkpt lat="45.85301" lon="4.23255">
        <ele>562.126</ele>
        <time>2019-04-08T14:27:34Z</time>
      </trkpt>
      <trkpt lat="45.85301" lon="4.23255">
        <ele>562.187</ele>
        <time>2019-04-08T14:27:39Z</time>
      </trkpt>
      <trkpt lat="45.85301" lon="4.23255">
        <ele>562.257</ele>
        <time>2019-04-08T14:27:44Z</time>
      </trkpt>
      <trkpt lat="45.85301" lon="4.23255">
        <ele>562.293</ele>
        <time>2019-04-08T14:27:50Z</time>
      </trkpt>
      <trkpt lat="45.85301" lon="4.23255">
        <ele>562.293</ele>
        <time>2019-04-08T14:27:56Z</time>
      </trkpt>
      <trkpt lat="45.85301" lon="4.23255">
        <ele>562.304</ele>
        <time>2019-04-08T14:28:02Z</time>
      </trkpt>
      <trkpt lat="45.85301" lon="4.23255">
        <ele>562.333</ele>
        <time>2019-04-08T14:28:08Z</time>
      </trkpt>
      <trkpt lat="45.85301" lon="4.23255">
        <ele>562.396</ele>
        <time>2019-04-08T14:28:14Z</time>
      </trkpt>
      <trkpt lat="45.85301" lon="4.23255">
        <ele>562.449</ele>
        <time>2019-04-08T14:28:19Z</time>
      </trkpt>
      <trkpt lat="45.85301" lon="4.23255">
        <ele>562.489</ele>
        <time>2019-04-08T14:28:24Z</time>
      </trkpt>
      <trkpt lat="45.85301" lon="4.23255">
        <ele>562.579</ele>
        <time>2019-04-08T14:28:30Z</time>
      </trkpt>
      <trkpt lat="45.85301" lon="4.23255">
        <ele>562.716</ele>
        <time>2019-04-08T14:28:36Z</time>
      </trkpt>
      <trkpt lat="45.85301" lon="4.23255">
        <ele>562.815</ele>
        <time>2019-04-08T14:28:41Z</time>
      </trkpt>
      <trkpt lat="45.85301" lon="4.23255">
        <ele>562.897</ele>
        <time>2019-04-08T14:28:47Z</time>
      </trkpt>
      <trkpt lat="45.85301" lon="4.23255">
        <ele>562.908</ele>
        <time>2019-04-08T14:28:52Z</time>
      </trkpt>
      <trkpt lat="45.85301" lon="4.23255">
        <ele>563.022</ele>
        <time>2019-04-08T14:28:58Z</time>
      </trkpt>
      <trkpt lat="45.85301" lon="4.23255">
        <ele>563.107</ele>
        <time>2019-04-08T14:29:03Z</time>
      </trkpt>
      <trkpt lat="45.85301" lon="4.23255">
        <ele>563.132</ele>
        <time>2019-04-08T14:29:09Z</time>
      </trkpt>
      <trkpt lat="45.85301" lon="4.23255">
        <ele>563.144</ele>
        <time>2019-04-08T14:29:14Z</time>
      </trkpt>
      <trkpt lat="45.85301" lon="4.23255">
        <ele>563.166</ele>
        <time>2019-04-08T14:29:20Z</time>
      </trkpt>
      <trkpt lat="45.85301" lon="4.23254">
        <ele>563.231</ele>
        <time>2019-04-08T14:29:26Z</time>
      </trkpt>
      <trkpt lat="45.85301" lon="4.23254">
        <ele>563.206</ele>
        <time>2019-04-08T14:29:31Z</time>
      </trkpt>
      <trkpt lat="45.85301" lon="4.23254">
        <ele>563.143</ele>
        <time>2019-04-08T14:29:37Z</time>
      </trkpt>
      <trkpt lat="45.85301" lon="4.23254">
        <ele>563.1</ele>
        <time>2019-04-08T14:29:43Z</time>
      </trkpt>
      <trkpt lat="45.85301" lon="4.23254">
        <ele>563.043</ele>
        <time>2019-04-08T14:29:49Z</time>
      </trkpt>
      <trkpt lat="45.85301" lon="4.23254">
        <ele>562.999</ele>
        <time>2019-04-08T14:29:55Z</time>
      </trkpt>
      <trkpt lat="45.85301" lon="4.23254">
        <ele>562.973</ele>
        <time>2019-04-08T14:30:00Z</time>
      </trkpt>
      <trkpt lat="45.85301" lon="4.23254">
        <ele>562.886</ele>
        <time>2019-04-08T14:30:06Z</time>
      </trkpt>
      <trkpt lat="45.85301" lon="4.23254">
        <ele>562.777</ele>
        <time>2019-04-08T14:30:12Z</time>
      </trkpt>
      <trkpt lat="45.85301" lon="4.23254">
        <ele>562.396</ele>
        <time>2019-04-08T14:30:18Z</time>
      </trkpt>
      <trkpt lat="45.85301" lon="4.23254">
        <ele>562.385</ele>
        <time>2019-04-08T14:30:23Z</time>
      </trkpt>
      <trkpt lat="45.85301" lon="4.23254">
        <ele>562.465</ele>
        <time>2019-04-08T14:30:29Z</time>
      </trkpt>
      <trkpt lat="45.85301" lon="4.23254">
        <ele>562.543</ele>
        <time>2019-04-08T14:30:34Z</time>
      </trkpt>
      <trkpt lat="45.85301" lon="4.23254">
        <ele>562.647</ele>
        <time>2019-04-08T14:30:40Z</time>
      </trkpt>
      <trkpt lat="45.85301" lon="4.23254">
        <ele>562.741</ele>
        <time>2019-04-08T14:30:46Z</time>
      </trkpt>
      <trkpt lat="45.85301" lon="4.23254">
        <ele>562.796</ele>
        <time>2019-04-08T14:30:52Z</time>
      </trkpt>
      <trkpt lat="45.85301" lon="4.23254">
        <ele>562.843</ele>
        <time>2019-04-08T14:30:58Z</time>
      </trkpt>
      <trkpt lat="45.85301" lon="4.23254">
        <ele>562.888</ele>
        <time>2019-04-08T14:31:04Z</time>
      </trkpt>
      <trkpt lat="45.85301" lon="4.23254">
        <ele>563.03</ele>
        <time>2019-04-08T14:31:10Z</time>
      </trkpt>
      <trkpt lat="45.85301" lon="4.23254">
        <ele>563.073</ele>
        <time>2019-04-08T14:31:15Z</time>
      </trkpt>
      <trkpt lat="45.85301" lon="4.23254">
        <ele>563.183</ele>
        <time>2019-04-08T14:31:21Z</time>
      </trkpt>
      <trkpt lat="45.85299" lon="4.23254">
        <ele>563.465</ele>
        <time>2019-04-08T14:31:27Z</time>
      </trkpt>
      <trkpt lat="45.85297" lon="4.23252">
        <ele>563.99</ele>
        <time>2019-04-08T14:31:33Z</time>
      </trkpt>
      <trkpt lat="45.85294" lon="4.23245">
        <ele>564.125</ele>
        <time>2019-04-08T14:31:39Z</time>
      </trkpt>
      <trkpt lat="45.85289" lon="4.23239">
        <ele>564.136</ele>
        <time>2019-04-08T14:31:44Z</time>
      </trkpt>
      <trkpt lat="45.85284" lon="4.23232">
        <ele>563.699</ele>
        <time>2019-04-08T14:31:50Z</time>
      </trkpt>
      <trkpt lat="45.85282" lon="4.23227">
        <ele>563.299</ele>
        <time>2019-04-08T14:31:55Z</time>
      </trkpt>
      <trkpt lat="45.85278" lon="4.23223">
        <ele>562.834</ele>
        <time>2019-04-08T14:32:00Z</time>
      </trkpt>
      <trkpt lat="45.85274" lon="4.23218">
        <ele>562.371</ele>
        <time>2019-04-08T14:32:06Z</time>
      </trkpt>
      <trkpt lat="45.85269" lon="4.23213">
        <ele>562.527</ele>
        <time>2019-04-08T14:32:11Z</time>
      </trkpt>
      <trkpt lat="45.85265" lon="4.23206">
        <ele>562.19</ele>
        <time>2019-04-08T14:32:17Z</time>
      </trkpt>
      <trkpt lat="45.8526" lon="4.23196">
        <ele>562.234</ele>
        <time>2019-04-08T14:32:23Z</time>
      </trkpt>
      <trkpt lat="45.85257" lon="4.23189">
        <ele>562.199</ele>
        <time>2019-04-08T14:32:29Z</time>
      </trkpt>
      <trkpt lat="45.85252" lon="4.23179">
        <ele>561.836</ele>
        <time>2019-04-08T14:32:34Z</time>
      </trkpt>
      <trkpt lat="45.85248" lon="4.23173">
        <ele>561.627</ele>
        <time>2019-04-08T14:32:39Z</time>
      </trkpt>
      <trkpt lat="45.85244" lon="4.23165">
        <ele>561.462</ele>
        <time>2019-04-08T14:32:44Z</time>
      </trkpt>
      <trkpt lat="45.8524" lon="4.23155">
        <ele>561.483</ele>
        <time>2019-04-08T14:32:50Z</time>
      </trkpt>
      <trkpt lat="45.85235" lon="4.23148">
        <ele>561.508</ele>
        <time>2019-04-08T14:32:55Z</time>
      </trkpt>
      <trkpt lat="45.85231" lon="4.23141">
        <ele>561.413</ele>
        <time>2019-04-08T14:33:00Z</time>
      </trkpt>
      <trkpt lat="45.85228" lon="4.23133">
        <ele>561.002</ele>
        <time>2019-04-08T14:33:06Z</time>
      </trkpt>
      <trkpt lat="45.85224" lon="4.23128">
        <ele>560.807</ele>
        <time>2019-04-08T14:33:11Z</time>
      </trkpt>
      <trkpt lat="45.85219" lon="4.2312">
        <ele>560.817</ele>
        <time>2019-04-08T14:33:17Z</time>
      </trkpt>
      <trkpt lat="45.85217" lon="4.23111">
        <ele>560.737</ele>
        <time>2019-04-08T14:33:22Z</time>
      </trkpt>
      <trkpt lat="45.85215" lon="4.231">
        <ele>560.825</ele>
        <time>2019-04-08T14:33:28Z</time>
      </trkpt>
      <trkpt lat="45.85212" lon="4.23092">
        <ele>560.889</ele>
        <time>2019-04-08T14:33:33Z</time>
      </trkpt>
      <trkpt lat="45.85211" lon="4.23084">
        <ele>560.833</ele>
        <time>2019-04-08T14:33:39Z</time>
      </trkpt>
      <trkpt lat="45.85209" lon="4.23077">
        <ele>560.71</ele>
        <time>2019-04-08T14:33:44Z</time>
      </trkpt>
      <trkpt lat="45.85206" lon="4.23066">
        <ele>560.49</ele>
        <time>2019-04-08T14:33:50Z</time>
      </trkpt>
      <trkpt lat="45.85204" lon="4.23056">
        <ele>560.655</ele>
        <time>2019-04-08T14:33:56Z</time>
      </trkpt>
      <trkpt lat="45.85202" lon="4.23048">
        <ele>560.716</ele>
        <time>2019-04-08T14:34:01Z</time>
      </trkpt>
      <trkpt lat="45.85199" lon="4.23039">
        <ele>560.727</ele>
        <time>2019-04-08T14:34:07Z</time>
      </trkpt>
      <trkpt lat="45.85197" lon="4.2303">
        <ele>560.603</ele>
        <time>2019-04-08T14:34:13Z</time>
      </trkpt>
      <trkpt lat="45.85195" lon="4.23022">
        <ele>560.415</ele>
        <time>2019-04-08T14:34:19Z</time>
      </trkpt>
      <trkpt lat="45.85192" lon="4.23015">
        <ele>560.186</ele>
        <time>2019-04-08T14:34:25Z</time>
      </trkpt>
      <trkpt lat="45.85189" lon="4.23005">
        <ele>559.632</ele>
        <time>2019-04-08T14:34:31Z</time>
      </trkpt>
      <trkpt lat="45.85185" lon="4.22998">
        <ele>559.195</ele>
        <time>2019-04-08T14:34:36Z</time>
      </trkpt>
      <trkpt lat="45.85181" lon="4.22988">
        <ele>558.846</ele>
        <time>2019-04-08T14:34:42Z</time>
      </trkpt>
      <trkpt lat="45.85178" lon="4.2298">
        <ele>558.392</ele>
        <time>2019-04-08T14:34:47Z</time>
      </trkpt>
      <trkpt lat="45.85175" lon="4.22971">
        <ele>557.951</ele>
        <time>2019-04-08T14:34:53Z</time>
      </trkpt>
      <trkpt lat="45.85172" lon="4.22965">
        <ele>557.375</ele>
        <time>2019-04-08T14:34:58Z</time>
      </trkpt>
      <trkpt lat="45.85168" lon="4.22957">
        <ele>556.719</ele>
        <time>2019-04-08T14:35:04Z</time>
      </trkpt>
      <trkpt lat="45.85164" lon="4.22949">
        <ele>556.085</ele>
        <time>2019-04-08T14:35:10Z</time>
      </trkpt>
      <trkpt lat="45.8516" lon="4.22942">
        <ele>555.705</ele>
        <time>2019-04-08T14:35:16Z</time>
      </trkpt>
      <trkpt lat="45.85157" lon="4.22935">
        <ele>555.498</ele>
        <time>2019-04-08T14:35:21Z</time>
      </trkpt>
      <trkpt lat="45.85154" lon="4.22928">
        <ele>555.154</ele>
        <time>2019-04-08T14:35:27Z</time>
      </trkpt>
      <trkpt lat="45.85149" lon="4.22919">
        <ele>554.817</ele>
        <time>2019-04-08T14:35:33Z</time>
      </trkpt>
      <trkpt lat="45.85146" lon="4.22911">
        <ele>554.279</ele>
        <time>2019-04-08T14:35:39Z</time>
      </trkpt>
      <trkpt lat="45.85142" lon="4.22903">
        <ele>553.614</ele>
        <time>2019-04-08T14:35:45Z</time>
      </trkpt>
      <trkpt lat="45.85139" lon="4.22896">
        <ele>553.205</ele>
        <time>2019-04-08T14:35:50Z</time>
      </trkpt>
      <trkpt lat="45.85134" lon="4.22885">
        <ele>552.843</ele>
        <time>2019-04-08T14:35:56Z</time>
      </trkpt>
      <trkpt lat="45.8513" lon="4.22879">
        <ele>552.06</ele>
        <time>2019-04-08T14:36:02Z</time>
      </trkpt>
      <trkpt lat="45.85125" lon="4.22871">
        <ele>551.453</ele>
        <time>2019-04-08T14:36:08Z</time>
      </trkpt>
      <trkpt lat="45.85121" lon="4.22864">
        <ele>550.967</ele>
        <time>2019-04-08T14:36:13Z</time>
      </trkpt>
      <trkpt lat="45.85116" lon="4.22855">
        <ele>550.508</ele>
        <time>2019-04-08T14:36:19Z</time>
      </trkpt>
      <trkpt lat="45.85113" lon="4.22845">
        <ele>550.137</ele>
        <time>2019-04-08T14:36:25Z</time>
      </trkpt>
      <trkpt lat="45.85113" lon="4.22843">
        <ele>549.647</ele>
        <time>2019-04-08T14:36:30Z</time>
      </trkpt>
      <trkpt lat="45.85114" lon="4.22847">
        <ele>548.891</ele>
        <time>2019-04-08T14:36:35Z</time>
      </trkpt>
      <trkpt lat="45.85116" lon="4.22849">
        <ele>548.474</ele>
        <time>2019-04-08T14:36:41Z</time>
      </trkpt>
      <trkpt lat="45.85116" lon="4.22848">
        <ele>547.922</ele>
        <time>2019-04-08T14:36:47Z</time>
      </trkpt>
      <trkpt lat="45.85116" lon="4.22848">
        <ele>547.256</ele>
        <time>2019-04-08T14:36:52Z</time>
      </trkpt>
      <trkpt lat="45.85115" lon="4.22848">
        <ele>546.49</ele>
        <time>2019-04-08T14:36:58Z</time>
      </trkpt>
      <trkpt lat="45.85115" lon="4.22848">
        <ele>546.231</ele>
        <time>2019-04-08T14:37:04Z</time>
      </trkpt>
      <trkpt lat="45.85116" lon="4.22845">
        <ele>546.223</ele>
        <time>2019-04-08T14:37:10Z</time>
      </trkpt>
      <trkpt lat="45.85117" lon="4.22844">
        <ele>545.679</ele>
        <time>2019-04-08T14:37:16Z</time>
      </trkpt>
      <trkpt lat="45.85117" lon="4.22847">
        <ele>545.448</ele>
        <time>2019-04-08T14:37:21Z</time>
      </trkpt>
      <trkpt lat="45.85117" lon="4.22849">
        <ele>545.261</ele>
        <time>2019-04-08T14:37:27Z</time>
      </trkpt>
      <trkpt lat="45.85117" lon="4.22848">
        <ele>544.678</ele>
        <time>2019-04-08T14:37:32Z</time>
      </trkpt>
      <trkpt lat="45.85118" lon="4.22848">
        <ele>544.162</ele>
        <time>2019-04-08T14:37:38Z</time>
      </trkpt>
      <trkpt lat="45.85118" lon="4.22848">
        <ele>544.128</ele>
        <time>2019-04-08T14:37:43Z</time>
      </trkpt>
      <trkpt lat="45.85118" lon="4.22848">
        <ele>544.226</ele>
        <time>2019-04-08T14:37:48Z</time>
      </trkpt>
      <trkpt lat="45.85117" lon="4.22848">
        <ele>544.162</ele>
        <time>2019-04-08T14:37:54Z</time>
      </trkpt>
      <trkpt lat="45.85116" lon="4.22848">
        <ele>544.36</ele>
        <time>2019-04-08T14:37:59Z</time>
      </trkpt>
      <trkpt lat="45.85117" lon="4.2285">
        <ele>544.122</ele>
        <time>2019-04-08T14:38:04Z</time>
      </trkpt>
      <trkpt lat="45.85117" lon="4.2285">
        <ele>543.606</ele>
        <time>2019-04-08T14:38:10Z</time>
      </trkpt>
      <trkpt lat="45.85117" lon="4.22848">
        <ele>542.908</ele>
        <time>2019-04-08T14:38:16Z</time>
      </trkpt>
      <trkpt lat="45.85116" lon="4.22849">
        <ele>542.415</ele>
        <time>2019-04-08T14:38:21Z</time>
      </trkpt>
      <trkpt lat="45.85115" lon="4.22849">
        <ele>541.869</ele>
        <time>2019-04-08T14:38:27Z</time>
      </trkpt>
      <trkpt lat="45.85115" lon="4.2285">
        <ele>541.546</ele>
        <time>2019-04-08T14:38:33Z</time>
      </trkpt>
      <trkpt lat="45.85115" lon="4.2285">
        <ele>541.466</ele>
        <time>2019-04-08T14:38:38Z</time>
      </trkpt>
      <trkpt lat="45.85115" lon="4.22851">
        <ele>540.967</ele>
        <time>2019-04-08T14:38:44Z</time>
      </trkpt>
      <trkpt lat="45.85114" lon="4.22849">
        <ele>540.927</ele>
        <time>2019-04-08T14:38:49Z</time>
      </trkpt>
      <trkpt lat="45.85114" lon="4.22849">
        <ele>540.852</ele>
        <time>2019-04-08T14:38:55Z</time>
      </trkpt>
      <trkpt lat="45.85113" lon="4.22849">
        <ele>540.863</ele>
        <time>2019-04-08T14:39:00Z</time>
      </trkpt>
      <trkpt lat="45.85113" lon="4.2285">
        <ele>540.811</ele>
        <time>2019-04-08T14:39:06Z</time>
      </trkpt>
      <trkpt lat="45.85113" lon="4.22849">
        <ele>541.07</ele>
        <time>2019-04-08T14:39:11Z</time>
      </trkpt>
      <trkpt lat="45.85114" lon="4.22848">
        <ele>541.239</ele>
        <time>2019-04-08T14:39:17Z</time>
      </trkpt>
      <trkpt lat="45.85116" lon="4.22848">
        <ele>541.339</ele>
        <time>2019-04-08T14:39:23Z</time>
      </trkpt>
      <trkpt lat="45.85116" lon="4.22848">
        <ele>541.38</ele>
        <time>2019-04-08T14:39:28Z</time>
      </trkpt>
      <trkpt lat="45.85114" lon="4.22847">
        <ele>541.835</ele>
        <time>2019-04-08T14:39:35Z</time>
      </trkpt>
      <trkpt lat="45.85114" lon="4.2284">
        <ele>542.009</ele>
        <time>2019-04-08T14:39:41Z</time>
      </trkpt>
      <trkpt lat="45.85113" lon="4.22836">
        <ele>541.998</ele>
        <time>2019-04-08T14:39:46Z</time>
      </trkpt>
      <trkpt lat="45.85112" lon="4.22829">
        <ele>541.71</ele>
        <time>2019-04-08T14:39:51Z</time>
      </trkpt>
      <trkpt lat="45.85109" lon="4.22821">
        <ele>541.189</ele>
        <time>2019-04-08T14:39:57Z</time>
      </trkpt>
      <trkpt lat="45.85108" lon="4.22817">
        <ele>540.882</ele>
        <time>2019-04-08T14:40:02Z</time>
      </trkpt>
      <trkpt lat="45.85106" lon="4.2281">
        <ele>541.032</ele>
        <time>2019-04-08T14:40:08Z</time>
      </trkpt>
      <trkpt lat="45.85105" lon="4.22805">
        <ele>541.168</ele>
        <time>2019-04-08T14:40:13Z</time>
      </trkpt>
      <trkpt lat="45.85102" lon="4.22798">
        <ele>541.297</ele>
        <time>2019-04-08T14:40:19Z</time>
      </trkpt>
      <trkpt lat="45.85099" lon="4.22788">
        <ele>541.461</ele>
        <time>2019-04-08T14:40:25Z</time>
      </trkpt>
      <trkpt lat="45.85095" lon="4.22779">
        <ele>541.246</ele>
        <time>2019-04-08T14:40:31Z</time>
      </trkpt>
      <trkpt lat="45.85092" lon="4.22773">
        <ele>541.467</ele>
        <time>2019-04-08T14:40:36Z</time>
      </trkpt>
      <trkpt lat="45.85088" lon="4.22768">
        <ele>541.763</ele>
        <time>2019-04-08T14:40:42Z</time>
      </trkpt>
      <trkpt lat="45.85084" lon="4.22758">
        <ele>542.024</ele>
        <time>2019-04-08T14:40:48Z</time>
      </trkpt>
      <trkpt lat="45.85082" lon="4.22752">
        <ele>542.122</ele>
        <time>2019-04-08T14:40:53Z</time>
      </trkpt>
      <trkpt lat="45.85077" lon="4.22742">
        <ele>541.999</ele>
        <time>2019-04-08T14:40:59Z</time>
      </trkpt>
      <trkpt lat="45.85074" lon="4.22736">
        <ele>541.701</ele>
        <time>2019-04-08T14:41:04Z</time>
      </trkpt>
      <trkpt lat="45.85071" lon="4.22727">
        <ele>541.3</ele>
        <time>2019-04-08T14:41:10Z</time>
      </trkpt>
      <trkpt lat="45.85067" lon="4.22721">
        <ele>541.141</ele>
        <time>2019-04-08T14:41:15Z</time>
      </trkpt>
      <trkpt lat="45.85064" lon="4.22711">
        <ele>540.535</ele>
        <time>2019-04-08T14:41:21Z</time>
      </trkpt>
      <trkpt lat="45.85059" lon="4.22704">
        <ele>539.866</ele>
        <time>2019-04-08T14:41:27Z</time>
      </trkpt>
      <trkpt lat="45.85054" lon="4.22699">
        <ele>539.167</ele>
        <time>2019-04-08T14:41:33Z</time>
      </trkpt>
      <trkpt lat="45.85049" lon="4.22693">
        <ele>538.283</ele>
        <time>2019-04-08T14:41:39Z</time>
      </trkpt>
      <trkpt lat="45.85045" lon="4.22691">
        <ele>537.796</ele>
        <time>2019-04-08T14:41:44Z</time>
      </trkpt>
      <trkpt lat="45.85043" lon="4.22692">
        <ele>537.491</ele>
        <time>2019-04-08T14:41:49Z</time>
      </trkpt>
      <trkpt lat="45.85036" lon="4.22697">
        <ele>537.356</ele>
        <time>2019-04-08T14:41:55Z</time>
      </trkpt>
      <trkpt lat="45.85031" lon="4.22699">
        <ele>537.155</ele>
        <time>2019-04-08T14:42:00Z</time>
      </trkpt>
      <trkpt lat="45.85022" lon="4.22701">
        <ele>536.655</ele>
        <time>2019-04-08T14:42:06Z</time>
      </trkpt>
      <trkpt lat="45.85016" lon="4.22704">
        <ele>535.736</ele>
        <time>2019-04-08T14:42:12Z</time>
      </trkpt>
      <trkpt lat="45.85008" lon="4.22704">
        <ele>535.251</ele>
        <time>2019-04-08T14:42:18Z</time>
      </trkpt>
      <trkpt lat="45.85002" lon="4.22704">
        <ele>535.149</ele>
        <time>2019-04-08T14:42:23Z</time>
      </trkpt>
      <trkpt lat="45.84994" lon="4.22699">
        <ele>534.856</ele>
        <time>2019-04-08T14:42:29Z</time>
      </trkpt>
      <trkpt lat="45.84988" lon="4.22696">
        <ele>534.903</ele>
        <time>2019-04-08T14:42:35Z</time>
      </trkpt>
      <trkpt lat="45.84982" lon="4.22693">
        <ele>534.913</ele>
        <time>2019-04-08T14:42:40Z</time>
      </trkpt>
      <trkpt lat="45.84976" lon="4.2269">
        <ele>535.312</ele>
        <time>2019-04-08T14:42:46Z</time>
      </trkpt>
      <trkpt lat="45.84968" lon="4.22684">
        <ele>535.681</ele>
        <time>2019-04-08T14:42:52Z</time>
      </trkpt>
      <trkpt lat="45.84962" lon="4.2268">
        <ele>535.779</ele>
        <time>2019-04-08T14:42:57Z</time>
      </trkpt>
      <trkpt lat="45.84956" lon="4.22677">
        <ele>535.59</ele>
        <time>2019-04-08T14:43:03Z</time>
      </trkpt>
      <trkpt lat="45.84949" lon="4.22671">
        <ele>535.271</ele>
        <time>2019-04-08T14:43:08Z</time>
      </trkpt>
      <trkpt lat="45.84944" lon="4.22668">
        <ele>535.207</ele>
        <time>2019-04-08T14:43:13Z</time>
      </trkpt>
      <trkpt lat="45.84938" lon="4.22661">
        <ele>535.187</ele>
        <time>2019-04-08T14:43:19Z</time>
      </trkpt>
      <trkpt lat="45.84932" lon="4.22657">
        <ele>535.286</ele>
        <time>2019-04-08T14:43:24Z</time>
      </trkpt>
      <trkpt lat="45.84925" lon="4.22652">
        <ele>535.428</ele>
        <time>2019-04-08T14:43:30Z</time>
      </trkpt>
      <trkpt lat="45.8492" lon="4.22647">
        <ele>535.8</ele>
        <time>2019-04-08T14:43:35Z</time>
      </trkpt>
      <trkpt lat="45.84914" lon="4.22643">
        <ele>535.921</ele>
        <time>2019-04-08T14:43:40Z</time>
      </trkpt>
      <trkpt lat="45.84907" lon="4.22636">
        <ele>536.163</ele>
        <time>2019-04-08T14:43:46Z</time>
      </trkpt>
      <trkpt lat="45.84901" lon="4.22631">
        <ele>536.249</ele>
        <time>2019-04-08T14:43:52Z</time>
      </trkpt>
      <trkpt lat="45.84895" lon="4.22626">
        <ele>535.86</ele>
        <time>2019-04-08T14:43:57Z</time>
      </trkpt>
      <trkpt lat="45.84887" lon="4.2262">
        <ele>535.51</ele>
        <time>2019-04-08T14:44:03Z</time>
      </trkpt>
      <trkpt lat="45.84881" lon="4.22614">
        <ele>535.609</ele>
        <time>2019-04-08T14:44:09Z</time>
      </trkpt>
      <trkpt lat="45.84876" lon="4.22609">
        <ele>535.759</ele>
        <time>2019-04-08T14:44:14Z</time>
      </trkpt>
      <trkpt lat="45.84869" lon="4.22603">
        <ele>535.677</ele>
        <time>2019-04-08T14:44:20Z</time>
      </trkpt>
      <trkpt lat="45.84864" lon="4.22599">
        <ele>535.848</ele>
        <time>2019-04-08T14:44:25Z</time>
      </trkpt>
      <trkpt lat="45.84859" lon="4.22592">
        <ele>536.003</ele>
        <time>2019-04-08T14:44:31Z</time>
      </trkpt>
      <trkpt lat="45.84854" lon="4.22582">
        <ele>535.881</ele>
        <time>2019-04-08T14:44:37Z</time>
      </trkpt>
      <trkpt lat="45.84851" lon="4.22578">
        <ele>535.958</ele>
        <time>2019-04-08T14:44:42Z</time>
      </trkpt>
      <trkpt lat="45.84846" lon="4.22572">
        <ele>535.97</ele>
        <time>2019-04-08T14:44:48Z</time>
      </trkpt>
      <trkpt lat="45.8484" lon="4.22563">
        <ele>535.791</ele>
        <time>2019-04-08T14:44:53Z</time>
      </trkpt>
      <trkpt lat="45.84837" lon="4.22557">
        <ele>535.281</ele>
        <time>2019-04-08T14:44:59Z</time>
      </trkpt>
      <trkpt lat="45.8483" lon="4.22551">
        <ele>534.958</ele>
        <time>2019-04-08T14:45:05Z</time>
      </trkpt>
      <trkpt lat="45.84824" lon="4.22545">
        <ele>534.817</ele>
        <time>2019-04-08T14:45:11Z</time>
      </trkpt>
      <trkpt lat="45.84817" lon="4.2254">
        <ele>534.889</ele>
        <time>2019-04-08T14:45:16Z</time>
      </trkpt>
      <trkpt lat="45.8481" lon="4.22536">
        <ele>535.054</ele>
        <time>2019-04-08T14:45:21Z</time>
      </trkpt>
      <trkpt lat="45.84804" lon="4.2253">
        <ele>534.887</ele>
        <time>2019-04-08T14:45:27Z</time>
      </trkpt>
      <trkpt lat="45.84796" lon="4.22525">
        <ele>534.68</ele>
        <time>2019-04-08T14:45:33Z</time>
      </trkpt>
      <trkpt lat="45.84792" lon="4.2252">
        <ele>534.499</ele>
        <time>2019-04-08T14:45:38Z</time>
      </trkpt>
      <trkpt lat="45.84787" lon="4.22515">
        <ele>533.817</ele>
        <time>2019-04-08T14:45:44Z</time>
      </trkpt>
      <trkpt lat="45.84781" lon="4.22509">
        <ele>533.302</ele>
        <time>2019-04-08T14:45:49Z</time>
      </trkpt>
      <trkpt lat="45.84772" lon="4.22501">
        <ele>533.225</ele>
        <time>2019-04-08T14:45:55Z</time>
      </trkpt>
      <trkpt lat="45.84768" lon="4.22495">
        <ele>533.125</ele>
        <time>2019-04-08T14:46:00Z</time>
      </trkpt>
      <trkpt lat="45.84763" lon="4.2249">
        <ele>533.304</ele>
        <time>2019-04-08T14:46:06Z</time>
      </trkpt>
      <trkpt lat="45.84757" lon="4.22482">
        <ele>533.521</ele>
        <time>2019-04-08T14:46:12Z</time>
      </trkpt>
      <trkpt lat="45.84751" lon="4.22471">
        <ele>533.588</ele>
        <time>2019-04-08T14:46:18Z</time>
      </trkpt>
      <trkpt lat="45.84747" lon="4.22464">
        <ele>533.634</ele>
        <time>2019-04-08T14:46:23Z</time>
      </trkpt>
      <trkpt lat="45.84743" lon="4.22458">
        <ele>533.793</ele>
        <time>2019-04-08T14:46:28Z</time>
      </trkpt>
      <trkpt lat="45.84736" lon="4.22447">
        <ele>533.769</ele>
        <time>2019-04-08T14:46:34Z</time>
      </trkpt>
      <trkpt lat="45.84733" lon="4.22441">
        <ele>533.741</ele>
        <time>2019-04-08T14:46:39Z</time>
      </trkpt>
      <trkpt lat="45.84728" lon="4.22432">
        <ele>533.694</ele>
        <time>2019-04-08T14:46:45Z</time>
      </trkpt>
      <trkpt lat="45.84724" lon="4.22425">
        <ele>533.475</ele>
        <time>2019-04-08T14:46:50Z</time>
      </trkpt>
      <trkpt lat="45.84719" lon="4.2242">
        <ele>533.464</ele>
        <time>2019-04-08T14:46:56Z</time>
      </trkpt>
      <trkpt lat="45.84714" lon="4.22415">
        <ele>532.986</ele>
        <time>2019-04-08T14:47:01Z</time>
      </trkpt>
      <trkpt lat="45.84709" lon="4.2241">
        <ele>532.584</ele>
        <time>2019-04-08T14:47:06Z</time>
      </trkpt>
      <trkpt lat="45.84701" lon="4.22404">
        <ele>532.208</ele>
        <time>2019-04-08T14:47:12Z</time>
      </trkpt>
      <trkpt lat="45.84695" lon="4.22403">
        <ele>532.026</ele>
        <time>2019-04-08T14:47:17Z</time>
      </trkpt>
      <trkpt lat="45.84685" lon="4.224">
        <ele>531.513</ele>
        <time>2019-04-08T14:47:23Z</time>
      </trkpt>
      <trkpt lat="45.84679" lon="4.22398">
        <ele>530.995</ele>
        <time>2019-04-08T14:47:28Z</time>
      </trkpt>
      <trkpt lat="45.84672" lon="4.22396">
        <ele>530.366</ele>
        <time>2019-04-08T14:47:34Z</time>
      </trkpt>
      <trkpt lat="45.84665" lon="4.22393">
        <ele>530.164</ele>
        <time>2019-04-08T14:47:39Z</time>
      </trkpt>
      <trkpt lat="45.84658" lon="4.2239">
        <ele>529.883</ele>
        <time>2019-04-08T14:47:45Z</time>
      </trkpt>
      <trkpt lat="45.8465" lon="4.22387">
        <ele>529.751</ele>
        <time>2019-04-08T14:47:51Z</time>
      </trkpt>
      <trkpt lat="45.84643" lon="4.22383">
        <ele>529.777</ele>
        <time>2019-04-08T14:47:57Z</time>
      </trkpt>
      <trkpt lat="45.84635" lon="4.22381">
        <ele>529.262</ele>
        <time>2019-04-08T14:48:03Z</time>
      </trkpt>
      <trkpt lat="45.84628" lon="4.22378">
        <ele>528.991</ele>
        <time>2019-04-08T14:48:08Z</time>
      </trkpt>
      <trkpt lat="45.84622" lon="4.22374">
        <ele>529.06</ele>
        <time>2019-04-08T14:48:14Z</time>
      </trkpt>
      <trkpt lat="45.84615" lon="4.22371">
        <ele>529.248</ele>
        <time>2019-04-08T14:48:19Z</time>
      </trkpt>
      <trkpt lat="45.84608" lon="4.22366">
        <ele>529.484</ele>
        <time>2019-04-08T14:48:25Z</time>
      </trkpt>
      <trkpt lat="45.84603" lon="4.22364">
        <ele>529.73</ele>
        <time>2019-04-08T14:48:30Z</time>
      </trkpt>
      <trkpt lat="45.84597" lon="4.22358">
        <ele>529.627</ele>
        <time>2019-04-08T14:48:36Z</time>
      </trkpt>
      <trkpt lat="45.84591" lon="4.22353">
        <ele>529.584</ele>
        <time>2019-04-08T14:48:41Z</time>
      </trkpt>
      <trkpt lat="45.84583" lon="4.22349">
        <ele>529.697</ele>
        <time>2019-04-08T14:48:47Z</time>
      </trkpt>
      <trkpt lat="45.84576" lon="4.22347">
        <ele>529.878</ele>
        <time>2019-04-08T14:48:52Z</time>
      </trkpt>
      <trkpt lat="45.84569" lon="4.22343">
        <ele>530.177</ele>
        <time>2019-04-08T14:48:58Z</time>
      </trkpt>
      <trkpt lat="45.84563" lon="4.2234">
        <ele>530.046</ele>
        <time>2019-04-08T14:49:04Z</time>
      </trkpt>
      <trkpt lat="45.84556" lon="4.22335">
        <ele>530.132</ele>
        <time>2019-04-08T14:49:10Z</time>
      </trkpt>
      <trkpt lat="45.8455" lon="4.22331">
        <ele>529.959</ele>
        <time>2019-04-08T14:49:15Z</time>
      </trkpt>
      <trkpt lat="45.84543" lon="4.22325">
        <ele>529.799</ele>
        <time>2019-04-08T14:49:21Z</time>
      </trkpt>
      <trkpt lat="45.84535" lon="4.22322">
        <ele>529.698</ele>
        <time>2019-04-08T14:49:27Z</time>
      </trkpt>
      <trkpt lat="45.84529" lon="4.22318">
        <ele>529.549</ele>
        <time>2019-04-08T14:49:32Z</time>
      </trkpt>
      <trkpt lat="45.84523" lon="4.22315">
        <ele>529.194</ele>
        <time>2019-04-08T14:49:38Z</time>
      </trkpt>
      <trkpt lat="45.84518" lon="4.22312">
        <ele>528.474</ele>
        <time>2019-04-08T14:49:43Z</time>
      </trkpt>
      <trkpt lat="45.84511" lon="4.22308">
        <ele>528.381</ele>
        <time>2019-04-08T14:49:49Z</time>
      </trkpt>
      <trkpt lat="45.84504" lon="4.22304">
        <ele>528.609</ele>
        <time>2019-04-08T14:49:55Z</time>
      </trkpt>
      <trkpt lat="45.84498" lon="4.22302">
        <ele>528.934</ele>
        <time>2019-04-08T14:50:00Z</time>
      </trkpt>
      <trkpt lat="45.84491" lon="4.22299">
        <ele>529.118</ele>
        <time>2019-04-08T14:50:06Z</time>
      </trkpt>
      <trkpt lat="45.84485" lon="4.22297">
        <ele>529.326</ele>
        <time>2019-04-08T14:50:12Z</time>
      </trkpt>
      <trkpt lat="45.84478" lon="4.22294">
        <ele>529.508</ele>
        <time>2019-04-08T14:50:18Z</time>
      </trkpt>
      <trkpt lat="45.84471" lon="4.22292">
        <ele>530.025</ele>
        <time>2019-04-08T14:50:24Z</time>
      </trkpt>
      <trkpt lat="45.84464" lon="4.22292">
        <ele>530.28</ele>
        <time>2019-04-08T14:50:29Z</time>
      </trkpt>
      <trkpt lat="45.84457" lon="4.22292">
        <ele>530.213</ele>
        <time>2019-04-08T14:50:35Z</time>
      </trkpt>
      <trkpt lat="45.84451" lon="4.2229">
        <ele>530.198</ele>
        <time>2019-04-08T14:50:40Z</time>
      </trkpt>
      <trkpt lat="45.84443" lon="4.22291">
        <ele>529.934</ele>
        <time>2019-04-08T14:50:46Z</time>
      </trkpt>
      <trkpt lat="45.84438" lon="4.2229">
        <ele>530.34</ele>
        <time>2019-04-08T14:50:51Z</time>
      </trkpt>
      <trkpt lat="45.84429" lon="4.2229">
        <ele>530.696</ele>
        <time>2019-04-08T14:50:57Z</time>
      </trkpt>
      <trkpt lat="45.84423" lon="4.2229">
        <ele>530.772</ele>
        <time>2019-04-08T14:51:02Z</time>
      </trkpt>
      <trkpt lat="45.84418" lon="4.22287">
        <ele>530.485</ele>
        <time>2019-04-08T14:51:07Z</time>
      </trkpt>
      <trkpt lat="45.84411" lon="4.22285">
        <ele>530.195</ele>
        <time>2019-04-08T14:51:12Z</time>
      </trkpt>
      <trkpt lat="45.84404" lon="4.22282">
        <ele>529.657</ele>
        <time>2019-04-08T14:51:18Z</time>
      </trkpt>
      <trkpt lat="45.84398" lon="4.22279">
        <ele>529.033</ele>
        <time>2019-04-08T14:51:23Z</time>
      </trkpt>
      <trkpt lat="45.84389" lon="4.22274">
        <ele>529.014</ele>
        <time>2019-04-08T14:51:29Z</time>
      </trkpt>
      <trkpt lat="45.84382" lon="4.22271">
        <ele>529.153</ele>
        <time>2019-04-08T14:51:34Z</time>
      </trkpt>
      <trkpt lat="45.84377" lon="4.22267">
        <ele>529.427</ele>
        <time>2019-04-08T14:51:40Z</time>
      </trkpt>
      <trkpt lat="45.84373" lon="4.2226">
        <ele>529.35</ele>
        <time>2019-04-08T14:51:45Z</time>
      </trkpt>
      <trkpt lat="45.84367" lon="4.22253">
        <ele>529.136</ele>
        <time>2019-04-08T14:51:51Z</time>
      </trkpt>
      <trkpt lat="45.84362" lon="4.22245">
        <ele>528.941</ele>
        <time>2019-04-08T14:51:57Z</time>
      </trkpt>
      <trkpt lat="45.84359" lon="4.22236">
        <ele>528.468</ele>
        <time>2019-04-08T14:52:03Z</time>
      </trkpt>
      <trkpt lat="45.84356" lon="4.22231">
        <ele>528.188</ele>
        <time>2019-04-08T14:52:08Z</time>
      </trkpt>
      <trkpt lat="45.84351" lon="4.22224">
        <ele>527.891</ele>
        <time>2019-04-08T14:52:13Z</time>
      </trkpt>
      <trkpt lat="45.84346" lon="4.22215">
        <ele>527.144</ele>
        <time>2019-04-08T14:52:19Z</time>
      </trkpt>
      <trkpt lat="45.84341" lon="4.22204">
        <ele>526.328</ele>
        <time>2019-04-08T14:52:25Z</time>
      </trkpt>
      <trkpt lat="45.84335" lon="4.22195">
        <ele>526.048</ele>
        <time>2019-04-08T14:52:31Z</time>
      </trkpt>
      <trkpt lat="45.8433" lon="4.22186">
        <ele>526.281</ele>
        <time>2019-04-08T14:52:37Z</time>
      </trkpt>
      <trkpt lat="45.84324" lon="4.22176">
        <ele>526.444</ele>
        <time>2019-04-08T14:52:43Z</time>
      </trkpt>
      <trkpt lat="45.84318" lon="4.22166">
        <ele>526.591</ele>
        <time>2019-04-08T14:52:49Z</time>
      </trkpt>
      <trkpt lat="45.84313" lon="4.22162">
        <ele>526.773</ele>
        <time>2019-04-08T14:52:55Z</time>
      </trkpt>
      <trkpt lat="45.84311" lon="4.22157">
        <ele>526.741</ele>
        <time>2019-04-08T14:53:00Z</time>
      </trkpt>
      <trkpt lat="45.84307" lon="4.22151">
        <ele>526.601</ele>
        <time>2019-04-08T14:53:06Z</time>
      </trkpt>
      <trkpt lat="45.84303" lon="4.22147">
        <ele>526.376</ele>
        <time>2019-04-08T14:53:11Z</time>
      </trkpt>
      <trkpt lat="45.84298" lon="4.22146">
        <ele>525.938</ele>
        <time>2019-04-08T14:53:17Z</time>
      </trkpt>
      <trkpt lat="45.84292" lon="4.22149">
        <ele>525.098</ele>
        <time>2019-04-08T14:53:23Z</time>
      </trkpt>
      <trkpt lat="45.84288" lon="4.22151">
        <ele>524.184</ele>
        <time>2019-04-08T14:53:29Z</time>
      </trkpt>
      <trkpt lat="45.84283" lon="4.22154">
        <ele>522.939</ele>
        <time>2019-04-08T14:53:35Z</time>
      </trkpt>
      <trkpt lat="45.84282" lon="4.22157">
        <ele>522.26</ele>
        <time>2019-04-08T14:53:40Z</time>
      </trkpt>
      <trkpt lat="45.84281" lon="4.22161">
        <ele>522.038</ele>
        <time>2019-04-08T14:53:46Z</time>
      </trkpt>
      <trkpt lat="45.8428" lon="4.2216">
        <ele>521.557</ele>
        <time>2019-04-08T14:53:51Z</time>
      </trkpt>
      <trkpt lat="45.84281" lon="4.2216">
        <ele>520.925</ele>
        <time>2019-04-08T14:53:56Z</time>
      </trkpt>
      <trkpt lat="45.8428" lon="4.22164">
        <ele>520.788</ele>
        <time>2019-04-08T14:54:02Z</time>
      </trkpt>
      <trkpt lat="45.84281" lon="4.22166">
        <ele>520.51</ele>
        <time>2019-04-08T14:54:07Z</time>
      </trkpt>
      <trkpt lat="45.84281" lon="4.22168">
        <ele>520.433</ele>
        <time>2019-04-08T14:54:12Z</time>
      </trkpt>
      <trkpt lat="45.84281" lon="4.22165">
        <ele>520.637</ele>
        <time>2019-04-08T14:54:18Z</time>
      </trkpt>
      <trkpt lat="45.84282" lon="4.22165">
        <ele>520.828</ele>
        <time>2019-04-08T14:54:23Z</time>
      </trkpt>
      <trkpt lat="45.84281" lon="4.22166">
        <ele>520.599</ele>
        <time>2019-04-08T14:54:28Z</time>
      </trkpt>
      <trkpt lat="45.84283" lon="4.22169">
        <ele>520.61</ele>
        <time>2019-04-08T14:54:34Z</time>
      </trkpt>
      <trkpt lat="45.84282" lon="4.22169">
        <ele>520.66</ele>
        <time>2019-04-08T14:54:39Z</time>
      </trkpt>
      <trkpt lat="45.84281" lon="4.22168">
        <ele>520.492</ele>
        <time>2019-04-08T14:54:45Z</time>
      </trkpt>
      <trkpt lat="45.84282" lon="4.22166">
        <ele>520.316</ele>
        <time>2019-04-08T14:54:50Z</time>
      </trkpt>
      <trkpt lat="45.84281" lon="4.22165">
        <ele>520.089</ele>
        <time>2019-04-08T14:54:55Z</time>
      </trkpt>
      <trkpt lat="45.8428" lon="4.22164">
        <ele>519.68</ele>
        <time>2019-04-08T14:55:00Z</time>
      </trkpt>
      <trkpt lat="45.8428" lon="4.22164">
        <ele>519.11</ele>
        <time>2019-04-08T14:55:06Z</time>
      </trkpt>
      <trkpt lat="45.84278" lon="4.22163">
        <ele>519.066</ele>
        <time>2019-04-08T14:55:11Z</time>
      </trkpt>
      <trkpt lat="45.84277" lon="4.22163">
        <ele>518.988</ele>
        <time>2019-04-08T14:55:16Z</time>
      </trkpt>
      <trkpt lat="45.84277" lon="4.22164">
        <ele>519.021</ele>
        <time>2019-04-08T14:55:22Z</time>
      </trkpt>
      <trkpt lat="45.84277" lon="4.22167">
        <ele>518.399</ele>
        <time>2019-04-08T14:55:27Z</time>
      </trkpt>
      <trkpt lat="45.84276" lon="4.22169">
        <ele>517.366</ele>
        <time>2019-04-08T14:55:33Z</time>
      </trkpt>
      <trkpt lat="45.84274" lon="4.22173">
        <ele>516.769</ele>
        <time>2019-04-08T14:55:38Z</time>
      </trkpt>
      <trkpt lat="45.84272" lon="4.22176">
        <ele>516.303</ele>
        <time>2019-04-08T14:55:44Z</time>
      </trkpt>
      <trkpt lat="45.8427" lon="4.22178">
        <ele>515.522</ele>
        <time>2019-04-08T14:55:50Z</time>
      </trkpt>
      <trkpt lat="45.84267" lon="4.22182">
        <ele>514.852</ele>
        <time>2019-04-08T14:55:55Z</time>
      </trkpt>
      <trkpt lat="45.84265" lon="4.22186">
        <ele>514.162</ele>
        <time>2019-04-08T14:56:00Z</time>
      </trkpt>
      <trkpt lat="45.8426" lon="4.22193">
        <ele>513.231</ele>
        <time>2019-04-08T14:56:06Z</time>
      </trkpt>
      <trkpt lat="45.84255" lon="4.22198">
        <ele>512.8</ele>
        <time>2019-04-08T14:56:11Z</time>
      </trkpt>
      <trkpt lat="45.84251" lon="4.22206">
        <ele>512.517</ele>
        <time>2019-04-08T14:56:17Z</time>
      </trkpt>
      <trkpt lat="45.84248" lon="4.22212">
        <ele>512.252</ele>
        <time>2019-04-08T14:56:23Z</time>
      </trkpt>
      <trkpt lat="45.84242" lon="4.22217">
        <ele>511.619</ele>
        <time>2019-04-08T14:56:29Z</time>
      </trkpt>
      <trkpt lat="45.84238" lon="4.22221">
        <ele>511.121</ele>
        <time>2019-04-08T14:56:34Z</time>
      </trkpt>
      <trkpt lat="45.84232" lon="4.22232">
        <ele>510.258</ele>
        <time>2019-04-08T14:56:40Z</time>
      </trkpt>
      <trkpt lat="45.84227" lon="4.22241">
        <ele>509.539</ele>
        <time>2019-04-08T14:56:46Z</time>
      </trkpt>
      <trkpt lat="45.84223" lon="4.22248">
        <ele>508.777</ele>
        <time>2019-04-08T14:56:51Z</time>
      </trkpt>
      <trkpt lat="45.84221" lon="4.22253">
        <ele>508.202</ele>
        <time>2019-04-08T14:56:56Z</time>
      </trkpt>
      <trkpt lat="45.84217" lon="4.22258">
        <ele>507.297</ele>
        <time>2019-04-08T14:57:02Z</time>
      </trkpt>
      <trkpt lat="45.84215" lon="4.22262">
        <ele>506.414</ele>
        <time>2019-04-08T14:57:07Z</time>
      </trkpt>
      <trkpt lat="45.84212" lon="4.22267">
        <ele>505.343</ele>
        <time>2019-04-08T14:57:13Z</time>
      </trkpt>
      <trkpt lat="45.84209" lon="4.22273">
        <ele>504.529</ele>
        <time>2019-04-08T14:57:18Z</time>
      </trkpt>
      <trkpt lat="45.84206" lon="4.22281">
        <ele>503.386</ele>
        <time>2019-04-08T14:57:24Z</time>
      </trkpt>
      <trkpt lat="45.84201" lon="4.22288">
        <ele>502.551</ele>
        <time>2019-04-08T14:57:30Z</time>
      </trkpt>
      <trkpt lat="45.84197" lon="4.22294">
        <ele>502.081</ele>
        <time>2019-04-08T14:57:36Z</time>
      </trkpt>
      <trkpt lat="45.84192" lon="4.223">
        <ele>501.72</ele>
        <time>2019-04-08T14:57:42Z</time>
      </trkpt>
      <trkpt lat="45.84189" lon="4.22305">
        <ele>501.164</ele>
        <time>2019-04-08T14:57:47Z</time>
      </trkpt>
      <trkpt lat="45.84185" lon="4.22311">
        <ele>500.561</ele>
        <time>2019-04-08T14:57:53Z</time>
      </trkpt>
      <trkpt lat="45.84183" lon="4.22317">
        <ele>499.942</ele>
        <time>2019-04-08T14:57:58Z</time>
      </trkpt>
      <trkpt lat="45.84179" lon="4.22322">
        <ele>499.281</ele>
        <time>2019-04-08T14:58:04Z</time>
      </trkpt>
      <trkpt lat="45.84174" lon="4.22327">
        <ele>498.706</ele>
        <time>2019-04-08T14:58:09Z</time>
      </trkpt>
      <trkpt lat="45.84168" lon="4.22334">
        <ele>497.763</ele>
        <time>2019-04-08T14:58:14Z</time>
      </trkpt>
      <trkpt lat="45.84164" lon="4.22339">
        <ele>496.915</ele>
        <time>2019-04-08T14:58:20Z</time>
      </trkpt>
      <trkpt lat="45.84159" lon="4.22345">
        <ele>496.586</ele>
        <time>2019-04-08T14:58:25Z</time>
      </trkpt>
      <trkpt lat="45.84153" lon="4.22351">
        <ele>496.661</ele>
        <time>2019-04-08T14:58:30Z</time>
      </trkpt>
      <trkpt lat="45.84147" lon="4.22356">
        <ele>496.767</ele>
        <time>2019-04-08T14:58:36Z</time>
      </trkpt>
      <trkpt lat="45.84143" lon="4.22361">
        <ele>497.046</ele>
        <time>2019-04-08T14:58:42Z</time>
      </trkpt>
      <trkpt lat="45.84137" lon="4.22369">
        <ele>497.247</ele>
        <time>2019-04-08T14:58:48Z</time>
      </trkpt>
      <trkpt lat="45.84131" lon="4.22374">
        <ele>496.83</ele>
        <time>2019-04-08T14:58:54Z</time>
      </trkpt>
      <trkpt lat="45.84128" lon="4.22378">
        <ele>496.832</ele>
        <time>2019-04-08T14:58:59Z</time>
      </trkpt>
      <trkpt lat="45.84126" lon="4.22383">
        <ele>496.871</ele>
        <time>2019-04-08T14:59:05Z</time>
      </trkpt>
      <trkpt lat="45.84121" lon="4.22388">
        <ele>496.483</ele>
        <time>2019-04-08T14:59:11Z</time>
      </trkpt>
      <trkpt lat="45.84116" lon="4.22393">
        <ele>495.936</ele>
        <time>2019-04-08T14:59:17Z</time>
      </trkpt>
      <trkpt lat="45.84114" lon="4.22399">
        <ele>495.93</ele>
        <time>2019-04-08T14:59:22Z</time>
      </trkpt>
      <trkpt lat="45.84109" lon="4.22402">
        <ele>495.819</ele>
        <time>2019-04-08T14:59:28Z</time>
      </trkpt>
      <trkpt lat="45.84106" lon="4.22406">
        <ele>495.664</ele>
        <time>2019-04-08T14:59:33Z</time>
      </trkpt>
      <trkpt lat="45.84103" lon="4.22409">
        <ele>495.287</ele>
        <time>2019-04-08T14:59:38Z</time>
      </trkpt>
      <trkpt lat="45.84097" lon="4.22416">
        <ele>493.981</ele>
        <time>2019-04-08T14:59:44Z</time>
      </trkpt>
      <trkpt lat="45.84092" lon="4.22421">
        <ele>492.761</ele>
        <time>2019-04-08T14:59:49Z</time>
      </trkpt>
      <trkpt lat="45.84088" lon="4.22425">
        <ele>491.615</ele>
        <time>2019-04-08T14:59:54Z</time>
      </trkpt>
      <trkpt lat="45.84081" lon="4.22434">
        <ele>490.513</ele>
        <time>2019-04-08T15:00:00Z</time>
      </trkpt>
      <trkpt lat="45.84074" lon="4.2244">
        <ele>490.009</ele>
        <time>2019-04-08T15:00:06Z</time>
      </trkpt>
      <trkpt lat="45.84068" lon="4.22446">
        <ele>490.028</ele>
        <time>2019-04-08T15:00:12Z</time>
      </trkpt>
      <trkpt lat="45.84066" lon="4.22451">
        <ele>489.423</ele>
        <time>2019-04-08T15:00:18Z</time>
      </trkpt>
      <trkpt lat="45.84064" lon="4.22456">
        <ele>488.911</ele>
        <time>2019-04-08T15:00:24Z</time>
      </trkpt>
      <trkpt lat="45.84061" lon="4.22464">
        <ele>488.133</ele>
        <time>2019-04-08T15:00:30Z</time>
      </trkpt>
      <trkpt lat="45.8406" lon="4.22473">
        <ele>487.299</ele>
        <time>2019-04-08T15:00:36Z</time>
      </trkpt>
      <trkpt lat="45.84057" lon="4.22484">
        <ele>486.496</ele>
        <time>2019-04-08T15:00:42Z</time>
      </trkpt>
      <trkpt lat="45.84055" lon="4.22493">
        <ele>485.178</ele>
        <time>2019-04-08T15:00:48Z</time>
      </trkpt>
      <trkpt lat="45.84054" lon="4.22502">
        <ele>483.689</ele>
        <time>2019-04-08T15:00:53Z</time>
      </trkpt>
      <trkpt lat="45.8405" lon="4.22511">
        <ele>482.559</ele>
        <time>2019-04-08T15:00:59Z</time>
      </trkpt>
      <trkpt lat="45.84049" lon="4.22514">
        <ele>481.427</ele>
        <time>2019-04-08T15:01:04Z</time>
      </trkpt>
      <trkpt lat="45.84045" lon="4.2252">
        <ele>480.072</ele>
        <time>2019-04-08T15:01:10Z</time>
      </trkpt>
      <trkpt lat="45.84043" lon="4.22528">
        <ele>478.681</ele>
        <time>2019-04-08T15:01:15Z</time>
      </trkpt>
      <trkpt lat="45.8404" lon="4.22538">
        <ele>477.175</ele>
        <time>2019-04-08T15:01:21Z</time>
      </trkpt>
      <trkpt lat="45.84037" lon="4.22547">
        <ele>475.652</ele>
        <time>2019-04-08T15:01:27Z</time>
      </trkpt>
      <trkpt lat="45.84037" lon="4.22553">
        <ele>474.885</ele>
        <time>2019-04-08T15:01:32Z</time>
      </trkpt>
      <trkpt lat="45.84037" lon="4.22562">
        <ele>473.959</ele>
        <time>2019-04-08T15:01:38Z</time>
      </trkpt>
      <trkpt lat="45.84038" lon="4.22565">
        <ele>473.253</ele>
        <time>2019-04-08T15:01:44Z</time>
      </trkpt>
      <trkpt lat="45.84036" lon="4.22565">
        <ele>473.155</ele>
        <time>2019-04-08T15:01:50Z</time>
      </trkpt>
      <trkpt lat="45.84034" lon="4.22568">
        <ele>472.648</ele>
        <time>2019-04-08T15:01:55Z</time>
      </trkpt>
      <trkpt lat="45.84031" lon="4.22571">
        <ele>471.914</ele>
        <time>2019-04-08T15:02:01Z</time>
      </trkpt>
      <trkpt lat="45.8403" lon="4.22572">
        <ele>470.874</ele>
        <time>2019-04-08T15:02:07Z</time>
      </trkpt>
      <trkpt lat="45.8403" lon="4.22572">
        <ele>470.658</ele>
        <time>2019-04-08T15:02:13Z</time>
      </trkpt>
      <trkpt lat="45.84029" lon="4.22574">
        <ele>470.785</ele>
        <time>2019-04-08T15:02:19Z</time>
      </trkpt>
      <trkpt lat="45.84029" lon="4.22573">
        <ele>470.935</ele>
        <time>2019-04-08T15:02:26Z</time>
      </trkpt>
      <trkpt lat="45.84028" lon="4.22573">
        <ele>471.329</ele>
        <time>2019-04-08T15:02:31Z</time>
      </trkpt>
      <trkpt lat="45.84027" lon="4.22573">
        <ele>471.657</ele>
        <time>2019-04-08T15:02:36Z</time>
      </trkpt>
      <trkpt lat="45.84026" lon="4.22573">
        <ele>472.26</ele>
        <time>2019-04-08T15:02:41Z</time>
      </trkpt>
      <trkpt lat="45.84027" lon="4.22571">
        <ele>472.101</ele>
        <time>2019-04-08T15:02:47Z</time>
      </trkpt>
      <trkpt lat="45.84026" lon="4.22569">
        <ele>471.955</ele>
        <time>2019-04-08T15:02:53Z</time>
      </trkpt>
      <trkpt lat="45.84026" lon="4.22569">
        <ele>471.73</ele>
        <time>2019-04-08T15:02:58Z</time>
      </trkpt>
      <trkpt lat="45.84025" lon="4.22571">
        <ele>471.584</ele>
        <time>2019-04-08T15:03:04Z</time>
      </trkpt>
      <trkpt lat="45.84025" lon="4.22573">
        <ele>471.477</ele>
        <time>2019-04-08T15:03:09Z</time>
      </trkpt>
      <trkpt lat="45.84027" lon="4.22569">
        <ele>471.492</ele>
        <time>2019-04-08T15:03:15Z</time>
      </trkpt>
      <trkpt lat="45.84029" lon="4.22567">
        <ele>471.542</ele>
        <time>2019-04-08T15:03:20Z</time>
      </trkpt>
      <trkpt lat="45.8403" lon="4.22568">
        <ele>471.59</ele>
        <time>2019-04-08T15:03:25Z</time>
      </trkpt>
      <trkpt lat="45.84032" lon="4.22568">
        <ele>471.696</ele>
        <time>2019-04-08T15:03:31Z</time>
      </trkpt>
      <trkpt lat="45.84034" lon="4.22567">
        <ele>471.872</ele>
        <time>2019-04-08T15:03:37Z</time>
      </trkpt>
      <trkpt lat="45.84035" lon="4.22566">
        <ele>472.055</ele>
        <time>2019-04-08T15:03:42Z</time>
      </trkpt>
      <trkpt lat="45.84035" lon="4.22567">
        <ele>472.282</ele>
        <time>2019-04-08T15:03:48Z</time>
      </trkpt>
      <trkpt lat="45.84035" lon="4.22569">
        <ele>472.765</ele>
        <time>2019-04-08T15:03:53Z</time>
      </trkpt>
      <trkpt lat="45.84031" lon="4.2257">
        <ele>472.825</ele>
        <time>2019-04-08T15:03:59Z</time>
      </trkpt>
      <trkpt lat="45.84028" lon="4.22571">
        <ele>472.803</ele>
        <time>2019-04-08T15:04:05Z</time>
      </trkpt>
      <trkpt lat="45.84026" lon="4.22571">
        <ele>472.779</ele>
        <time>2019-04-08T15:04:10Z</time>
      </trkpt>
      <trkpt lat="45.84026" lon="4.22571">
        <ele>472.758</ele>
        <time>2019-04-08T15:04:16Z</time>
      </trkpt>
      <trkpt lat="45.84025" lon="4.22572">
        <ele>472.776</ele>
        <time>2019-04-08T15:04:21Z</time>
      </trkpt>
      <trkpt lat="45.84024" lon="4.22573">
        <ele>472.835</ele>
        <time>2019-04-08T15:04:27Z</time>
      </trkpt>
      <trkpt lat="45.84023" lon="4.22572">
        <ele>472.897</ele>
        <time>2019-04-08T15:04:32Z</time>
      </trkpt>
      <trkpt lat="45.84023" lon="4.22572">
        <ele>473.261</ele>
        <time>2019-04-08T15:04:37Z</time>
      </trkpt>
      <trkpt lat="45.84023" lon="4.22571">
        <ele>473.307</ele>
        <time>2019-04-08T15:04:43Z</time>
      </trkpt>
      <trkpt lat="45.84023" lon="4.2257">
        <ele>473.31</ele>
        <time>2019-04-08T15:04:48Z</time>
      </trkpt>
      <trkpt lat="45.84023" lon="4.2257">
        <ele>473.401</ele>
        <time>2019-04-08T15:04:54Z</time>
      </trkpt>
      <trkpt lat="45.84023" lon="4.22571">
        <ele>473.802</ele>
        <time>2019-04-08T15:04:59Z</time>
      </trkpt>
      <trkpt lat="45.84023" lon="4.22571">
        <ele>474.07</ele>
        <time>2019-04-08T15:05:05Z</time>
      </trkpt>
      <trkpt lat="45.84023" lon="4.22571">
        <ele>474.383</ele>
        <time>2019-04-08T15:05:11Z</time>
      </trkpt>
      <trkpt lat="45.84023" lon="4.22571">
        <ele>474.657</ele>
        <time>2019-04-08T15:05:16Z</time>
      </trkpt>
      <trkpt lat="45.84023" lon="4.22571">
        <ele>475.076</ele>
        <time>2019-04-08T15:05:22Z</time>
      </trkpt>
      <trkpt lat="45.84023" lon="4.22571">
        <ele>475.535</ele>
        <time>2019-04-08T15:05:28Z</time>
      </trkpt>
      <trkpt lat="45.84023" lon="4.22571">
        <ele>476.582</ele>
        <time>2019-04-08T15:05:33Z</time>
      </trkpt>
      <trkpt lat="45.84023" lon="4.22571">
        <ele>476.969</ele>
        <time>2019-04-08T15:05:39Z</time>
      </trkpt>
      <trkpt lat="45.84023" lon="4.22571">
        <ele>477.252</ele>
        <time>2019-04-08T15:05:45Z</time>
      </trkpt>
      <trkpt lat="45.84023" lon="4.22571">
        <ele>477.557</ele>
        <time>2019-04-08T15:05:51Z</time>
      </trkpt>
      <trkpt lat="45.84023" lon="4.22571">
        <ele>478.532</ele>
        <time>2019-04-08T15:05:56Z</time>
      </trkpt>
      <trkpt lat="45.84023" lon="4.22571">
        <ele>478.895</ele>
        <time>2019-04-08T15:06:01Z</time>
      </trkpt>
      <trkpt lat="45.84023" lon="4.22571">
        <ele>479.292</ele>
        <time>2019-04-08T15:06:07Z</time>
      </trkpt>
      <trkpt lat="45.84023" lon="4.22571">
        <ele>479.701</ele>
        <time>2019-04-08T15:06:12Z</time>
      </trkpt>
      <trkpt lat="45.84023" lon="4.22571">
        <ele>480.704</ele>
        <time>2019-04-08T15:06:18Z</time>
      </trkpt>
      <trkpt lat="45.84023" lon="4.22571">
        <ele>481.038</ele>
        <time>2019-04-08T15:06:24Z</time>
      </trkpt>
      <trkpt lat="45.84023" lon="4.22571">
        <ele>481.28</ele>
        <time>2019-04-08T15:06:30Z</time>
      </trkpt>
      <trkpt lat="45.84023" lon="4.22571">
        <ele>482.567</ele>
        <time>2019-04-08T15:06:36Z</time>
      </trkpt>
      <trkpt lat="45.84028" lon="4.22576">
        <ele>482.869</ele>
        <time>2019-04-08T15:06:41Z</time>
      </trkpt>
      <trkpt lat="45.84033" lon="4.22584">
        <ele>482.142</ele>
        <time>2019-04-08T15:06:47Z</time>
      </trkpt>
      <trkpt lat="45.84038" lon="4.22591">
        <ele>481.021</ele>
        <time>2019-04-08T15:06:53Z</time>
      </trkpt>
      <trkpt lat="45.84042" lon="4.22596">
        <ele>480.257</ele>
        <time>2019-04-08T15:06:58Z</time>
      </trkpt>
      <trkpt lat="45.84044" lon="4.22599">
        <ele>479.926</ele>
        <time>2019-04-08T15:07:03Z</time>
      </trkpt>
      <trkpt lat="45.84047" lon="4.22606">
        <ele>479.085</ele>
        <time>2019-04-08T15:07:09Z</time>
      </trkpt>
      <trkpt lat="45.84051" lon="4.22612">
        <ele>478.331</ele>
        <time>2019-04-08T15:07:15Z</time>
      </trkpt>
      <trkpt lat="45.84054" lon="4.2262">
        <ele>477.688</ele>
        <time>2019-04-08T15:07:20Z</time>
      </trkpt>
      <trkpt lat="45.84055" lon="4.22631">
        <ele>476.885</ele>
        <time>2019-04-08T15:07:26Z</time>
      </trkpt>
      <trkpt lat="45.84057" lon="4.22642">
        <ele>476.3</ele>
        <time>2019-04-08T15:07:31Z</time>
      </trkpt>
      <trkpt lat="45.84057" lon="4.22652">
        <ele>475.642</ele>
        <time>2019-04-08T15:07:37Z</time>
      </trkpt>
      <trkpt lat="45.84057" lon="4.2266">
        <ele>475.34</ele>
        <time>2019-04-08T15:07:42Z</time>
      </trkpt>
      <trkpt lat="45.84057" lon="4.22669">
        <ele>475.348</ele>
        <time>2019-04-08T15:07:47Z</time>
      </trkpt>
      <trkpt lat="45.84057" lon="4.22679">
        <ele>475.295</ele>
        <time>2019-04-08T15:07:53Z</time>
      </trkpt>
      <trkpt lat="45.84058" lon="4.22689">
        <ele>474.916</ele>
        <time>2019-04-08T15:07:59Z</time>
      </trkpt>
      <trkpt lat="45.84061" lon="4.22698">
        <ele>474.508</ele>
        <time>2019-04-08T15:08:05Z</time>
      </trkpt>
      <trkpt lat="45.84065" lon="4.22707">
        <ele>474.113</ele>
        <time>2019-04-08T15:08:11Z</time>
      </trkpt>
      <trkpt lat="45.8407" lon="4.22715">
        <ele>473.815</ele>
        <time>2019-04-08T15:08:17Z</time>
      </trkpt>
      <trkpt lat="45.84073" lon="4.2272">
        <ele>472.94</ele>
        <time>2019-04-08T15:08:23Z</time>
      </trkpt>
      <trkpt lat="45.84077" lon="4.22724">
        <ele>472.141</ele>
        <time>2019-04-08T15:08:28Z</time>
      </trkpt>
      <trkpt lat="45.84082" lon="4.22731">
        <ele>471.66</ele>
        <time>2019-04-08T15:08:33Z</time>
      </trkpt>
      <trkpt lat="45.84084" lon="4.22739">
        <ele>471.31</ele>
        <time>2019-04-08T15:08:39Z</time>
      </trkpt>
      <trkpt lat="45.84087" lon="4.22749">
        <ele>471.302</ele>
        <time>2019-04-08T15:08:45Z</time>
      </trkpt>
      <trkpt lat="45.84091" lon="4.2276">
        <ele>471.364</ele>
        <time>2019-04-08T15:08:51Z</time>
      </trkpt>
      <trkpt lat="45.84091" lon="4.22764">
        <ele>471.193</ele>
        <time>2019-04-08T15:08:57Z</time>
      </trkpt>
      <trkpt lat="45.84091" lon="4.2277">
        <ele>471.15</ele>
        <time>2019-04-08T15:09:02Z</time>
      </trkpt>
      <trkpt lat="45.84088" lon="4.22782">
        <ele>470.989</ele>
        <time>2019-04-08T15:09:08Z</time>
      </trkpt>
      <trkpt lat="45.84086" lon="4.22789">
        <ele>470.903</ele>
        <time>2019-04-08T15:09:13Z</time>
      </trkpt>
      <trkpt lat="45.84082" lon="4.22797">
        <ele>470.417</ele>
        <time>2019-04-08T15:09:19Z</time>
      </trkpt>
      <trkpt lat="45.84079" lon="4.22805">
        <ele>469.961</ele>
        <time>2019-04-08T15:09:25Z</time>
      </trkpt>
      <trkpt lat="45.84074" lon="4.22814">
        <ele>469.612</ele>
        <time>2019-04-08T15:09:31Z</time>
      </trkpt>
      <trkpt lat="45.84073" lon="4.22819">
        <ele>469.358</ele>
        <time>2019-04-08T15:09:36Z</time>
      </trkpt>
      <trkpt lat="45.84071" lon="4.22826">
        <ele>469.364</ele>
        <time>2019-04-08T15:09:41Z</time>
      </trkpt>
      <trkpt lat="45.84068" lon="4.22838">
        <ele>469.181</ele>
        <time>2019-04-08T15:09:47Z</time>
      </trkpt>
      <trkpt lat="45.84066" lon="4.22846">
        <ele>469.466</ele>
        <time>2019-04-08T15:09:53Z</time>
      </trkpt>
      <trkpt lat="45.84064" lon="4.22854">
        <ele>469.675</ele>
        <time>2019-04-08T15:09:59Z</time>
      </trkpt>
      <trkpt lat="45.84062" lon="4.22864">
        <ele>470.056</ele>
        <time>2019-04-08T15:10:05Z</time>
      </trkpt>
      <trkpt lat="45.84059" lon="4.22874">
        <ele>470.959</ele>
        <time>2019-04-08T15:10:11Z</time>
      </trkpt>
      <trkpt lat="45.84058" lon="4.22881">
        <ele>471.548</ele>
        <time>2019-04-08T15:10:16Z</time>
      </trkpt>
      <trkpt lat="45.84056" lon="4.22886">
        <ele>472.063</ele>
        <time>2019-04-08T15:10:21Z</time>
      </trkpt>
      <trkpt lat="45.84055" lon="4.22898">
        <ele>472.526</ele>
        <time>2019-04-08T15:10:27Z</time>
      </trkpt>
      <trkpt lat="45.84053" lon="4.22904">
        <ele>473.082</ele>
        <time>2019-04-08T15:10:34Z</time>
      </trkpt>
      <trkpt lat="45.8405" lon="4.22914">
        <ele>473.012</ele>
        <time>2019-04-08T15:10:39Z</time>
      </trkpt>
      <trkpt lat="45.84049" lon="4.22924">
        <ele>472.482</ele>
        <time>2019-04-08T15:10:45Z</time>
      </trkpt>
      <trkpt lat="45.84046" lon="4.22937">
        <ele>472.492</ele>
        <time>2019-04-08T15:10:51Z</time>
      </trkpt>
      <trkpt lat="45.84044" lon="4.22947">
        <ele>472.291</ele>
        <time>2019-04-08T15:10:57Z</time>
      </trkpt>
      <trkpt lat="45.84045" lon="4.22952">
        <ele>472.251</ele>
        <time>2019-04-08T15:11:02Z</time>
      </trkpt>
      <trkpt lat="45.84046" lon="4.22961">
        <ele>472.52</ele>
        <time>2019-04-08T15:11:07Z</time>
      </trkpt>
      <trkpt lat="45.84044" lon="4.22972">
        <ele>473.087</ele>
        <time>2019-04-08T15:11:14Z</time>
      </trkpt>
      <trkpt lat="45.84042" lon="4.22983">
        <ele>473.47</ele>
        <time>2019-04-08T15:11:19Z</time>
      </trkpt>
      <trkpt lat="45.84042" lon="4.22994">
        <ele>473.78</ele>
        <time>2019-04-08T15:11:25Z</time>
      </trkpt>
      <trkpt lat="45.84041" lon="4.23007">
        <ele>474.359</ele>
        <time>2019-04-08T15:11:31Z</time>
      </trkpt>
      <trkpt lat="45.84042" lon="4.23017">
        <ele>474.986</ele>
        <time>2019-04-08T15:11:36Z</time>
      </trkpt>
      <trkpt lat="45.84044" lon="4.23025">
        <ele>474.976</ele>
        <time>2019-04-08T15:11:42Z</time>
      </trkpt>
      <trkpt lat="45.84045" lon="4.23035">
        <ele>474.797</ele>
        <time>2019-04-08T15:11:47Z</time>
      </trkpt>
      <trkpt lat="45.84044" lon="4.23046">
        <ele>475.006</ele>
        <time>2019-04-08T15:11:54Z</time>
      </trkpt>
      <trkpt lat="45.84044" lon="4.23057">
        <ele>475.218</ele>
        <time>2019-04-08T15:12:00Z</time>
      </trkpt>
      <trkpt lat="45.84046" lon="4.23066">
        <ele>475.061</ele>
        <time>2019-04-08T15:12:05Z</time>
      </trkpt>
      <trkpt lat="45.84046" lon="4.23076">
        <ele>474.703</ele>
        <time>2019-04-08T15:12:11Z</time>
      </trkpt>
      <trkpt lat="45.84045" lon="4.23086">
        <ele>474.8</ele>
        <time>2019-04-08T15:12:17Z</time>
      </trkpt>
      <trkpt lat="45.84045" lon="4.23096">
        <ele>474.84</ele>
        <time>2019-04-08T15:12:23Z</time>
      </trkpt>
      <trkpt lat="45.84044" lon="4.23107">
        <ele>474.954</ele>
        <time>2019-04-08T15:12:29Z</time>
      </trkpt>
      <trkpt lat="45.84045" lon="4.23117">
        <ele>475.838</ele>
        <time>2019-04-08T15:12:35Z</time>
      </trkpt>
      <trkpt lat="45.84047" lon="4.23127">
        <ele>476.528</ele>
        <time>2019-04-08T15:12:41Z</time>
      </trkpt>
      <trkpt lat="45.84047" lon="4.23134">
        <ele>476.825</ele>
        <time>2019-04-08T15:12:46Z</time>
      </trkpt>
      <trkpt lat="45.84049" lon="4.23144">
        <ele>477.596</ele>
        <time>2019-04-08T15:12:51Z</time>
      </trkpt>
      <trkpt lat="45.8405" lon="4.23155">
        <ele>478.518</ele>
        <time>2019-04-08T15:12:57Z</time>
      </trkpt>
      <trkpt lat="45.84049" lon="4.23166">
        <ele>479.126</ele>
        <time>2019-04-08T15:13:03Z</time>
      </trkpt>
      <trkpt lat="45.84052" lon="4.23177">
        <ele>479.181</ele>
        <time>2019-04-08T15:13:09Z</time>
      </trkpt>
      <trkpt lat="45.84055" lon="4.23189">
        <ele>478.977</ele>
        <time>2019-04-08T15:13:15Z</time>
      </trkpt>
      <trkpt lat="45.84057" lon="4.232">
        <ele>478.915</ele>
        <time>2019-04-08T15:13:21Z</time>
      </trkpt>
      <trkpt lat="45.84058" lon="4.23214">
        <ele>478.607</ele>
        <time>2019-04-08T15:13:27Z</time>
      </trkpt>
      <trkpt lat="45.84059" lon="4.23221">
        <ele>478.912</ele>
        <time>2019-04-08T15:13:33Z</time>
      </trkpt>
      <trkpt lat="45.84057" lon="4.23227">
        <ele>479.375</ele>
        <time>2019-04-08T15:13:38Z</time>
      </trkpt>
      <trkpt lat="45.84059" lon="4.23234">
        <ele>479.928</ele>
        <time>2019-04-08T15:13:44Z</time>
      </trkpt>
      <trkpt lat="45.8406" lon="4.23237">
        <ele>480.146</ele>
        <time>2019-04-08T15:13:49Z</time>
      </trkpt>
      <trkpt lat="45.84064" lon="4.23246">
        <ele>480.087</ele>
        <time>2019-04-08T15:13:55Z</time>
      </trkpt>
      <trkpt lat="45.84065" lon="4.23254">
        <ele>479.607</ele>
        <time>2019-04-08T15:14:00Z</time>
      </trkpt>
      <trkpt lat="45.84065" lon="4.23264">
        <ele>479.61</ele>
        <time>2019-04-08T15:14:06Z</time>
      </trkpt>
      <trkpt lat="45.84065" lon="4.23274">
        <ele>479.644</ele>
        <time>2019-04-08T15:14:12Z</time>
      </trkpt>
      <trkpt lat="45.84065" lon="4.23279">
        <ele>479.525</ele>
        <time>2019-04-08T15:14:17Z</time>
      </trkpt>
      <trkpt lat="45.84065" lon="4.23292">
        <ele>479.995</ele>
        <time>2019-04-08T15:14:23Z</time>
      </trkpt>
      <trkpt lat="45.84064" lon="4.233">
        <ele>480.603</ele>
        <time>2019-04-08T15:14:29Z</time>
      </trkpt>
      <trkpt lat="45.84062" lon="4.2331">
        <ele>481.105</ele>
        <time>2019-04-08T15:14:35Z</time>
      </trkpt>
      <trkpt lat="45.84061" lon="4.23317">
        <ele>480.886</ele>
        <time>2019-04-08T15:14:40Z</time>
      </trkpt>
      <trkpt lat="45.84059" lon="4.23328">
        <ele>480.579</ele>
        <time>2019-04-08T15:14:46Z</time>
      </trkpt>
      <trkpt lat="45.84061" lon="4.23335">
        <ele>480.907</ele>
        <time>2019-04-08T15:14:52Z</time>
      </trkpt>
      <trkpt lat="45.84062" lon="4.23338">
        <ele>481.689</ele>
        <time>2019-04-08T15:14:58Z</time>
      </trkpt>
      <trkpt lat="45.84066" lon="4.23345">
        <ele>482.373</ele>
        <time>2019-04-08T15:15:03Z</time>
      </trkpt>
      <trkpt lat="45.84071" lon="4.23352">
        <ele>483.162</ele>
        <time>2019-04-08T15:15:09Z</time>
      </trkpt>
      <trkpt lat="45.84076" lon="4.23358">
        <ele>483.602</ele>
        <time>2019-04-08T15:15:15Z</time>
      </trkpt>
      <trkpt lat="45.84079" lon="4.23363">
        <ele>483.801</ele>
        <time>2019-04-08T15:15:21Z</time>
      </trkpt>
      <trkpt lat="45.84083" lon="4.23367">
        <ele>483.978</ele>
        <time>2019-04-08T15:15:27Z</time>
      </trkpt>
      <trkpt lat="45.84085" lon="4.23377">
        <ele>483.718</ele>
        <time>2019-04-08T15:15:33Z</time>
      </trkpt>
      <trkpt lat="45.84087" lon="4.23389">
        <ele>482.626</ele>
        <time>2019-04-08T15:15:39Z</time>
      </trkpt>
      <trkpt lat="45.84087" lon="4.23398">
        <ele>480.766</ele>
        <time>2019-04-08T15:15:45Z</time>
      </trkpt>
      <trkpt lat="45.84087" lon="4.23402">
        <ele>479.984</ele>
        <time>2019-04-08T15:15:50Z</time>
      </trkpt>
      <trkpt lat="45.84088" lon="4.23407">
        <ele>479.571</ele>
        <time>2019-04-08T15:15:55Z</time>
      </trkpt>
      <trkpt lat="45.84089" lon="4.23416">
        <ele>480.155</ele>
        <time>2019-04-08T15:16:01Z</time>
      </trkpt>
      <trkpt lat="45.84091" lon="4.23428">
        <ele>481.317</ele>
        <time>2019-04-08T15:16:07Z</time>
      </trkpt>
      <trkpt lat="45.84092" lon="4.23433">
        <ele>482.133</ele>
        <time>2019-04-08T15:16:12Z</time>
      </trkpt>
      <trkpt lat="45.84092" lon="4.23439">
        <ele>482.567</ele>
        <time>2019-04-08T15:16:18Z</time>
      </trkpt>
      <trkpt lat="45.84093" lon="4.23444">
        <ele>482.895</ele>
        <time>2019-04-08T15:16:23Z</time>
      </trkpt>
      <trkpt lat="45.84094" lon="4.23457">
        <ele>483.915</ele>
        <time>2019-04-08T15:16:29Z</time>
      </trkpt>
      <trkpt lat="45.84094" lon="4.23467">
        <ele>484.729</ele>
        <time>2019-04-08T15:16:35Z</time>
      </trkpt>
      <trkpt lat="45.84094" lon="4.23474">
        <ele>485.577</ele>
        <time>2019-04-08T15:16:41Z</time>
      </trkpt>
      <trkpt lat="45.84094" lon="4.23483">
        <ele>486.748</ele>
        <time>2019-04-08T15:16:47Z</time>
      </trkpt>
      <trkpt lat="45.84093" lon="4.23493">
        <ele>487.596</ele>
        <time>2019-04-08T15:16:52Z</time>
      </trkpt>
      <trkpt lat="45.84094" lon="4.23502">
        <ele>488.095</ele>
        <time>2019-04-08T15:16:58Z</time>
      </trkpt>
      <trkpt lat="45.84093" lon="4.23511">
        <ele>489.004</ele>
        <time>2019-04-08T15:17:04Z</time>
      </trkpt>
      <trkpt lat="45.84092" lon="4.23519">
        <ele>489.566</ele>
        <time>2019-04-08T15:17:10Z</time>
      </trkpt>
      <trkpt lat="45.84091" lon="4.23527">
        <ele>490.145</ele>
        <time>2019-04-08T15:17:15Z</time>
      </trkpt>
      <trkpt lat="45.84086" lon="4.23531">
        <ele>490.587</ele>
        <time>2019-04-08T15:17:21Z</time>
      </trkpt>
      <trkpt lat="45.84084" lon="4.23533">
        <ele>491.249</ele>
        <time>2019-04-08T15:17:27Z</time>
      </trkpt>
      <trkpt lat="45.84083" lon="4.23535">
        <ele>491.867</ele>
        <time>2019-04-08T15:17:32Z</time>
      </trkpt>
      <trkpt lat="45.84082" lon="4.2354">
        <ele>492.755</ele>
        <time>2019-04-08T15:17:38Z</time>
      </trkpt>
      <trkpt lat="45.8408" lon="4.23542">
        <ele>493.283</ele>
        <time>2019-04-08T15:17:43Z</time>
      </trkpt>
      <trkpt lat="45.84076" lon="4.23553">
        <ele>493.954</ele>
        <time>2019-04-08T15:17:49Z</time>
      </trkpt>
      <trkpt lat="45.84075" lon="4.23558">
        <ele>494.753</ele>
        <time>2019-04-08T15:17:55Z</time>
      </trkpt>
      <trkpt lat="45.84075" lon="4.23561">
        <ele>495.553</ele>
        <time>2019-04-08T15:18:01Z</time>
      </trkpt>
      <trkpt lat="45.84073" lon="4.23573">
        <ele>496.493</ele>
        <time>2019-04-08T15:18:07Z</time>
      </trkpt>
      <trkpt lat="45.84068" lon="4.23579">
        <ele>497.451</ele>
        <time>2019-04-08T15:18:13Z</time>
      </trkpt>
      <trkpt lat="45.84066" lon="4.23584">
        <ele>498.392</ele>
        <time>2019-04-08T15:18:18Z</time>
      </trkpt>
      <trkpt lat="45.84063" lon="4.23592">
        <ele>499.552</ele>
        <time>2019-04-08T15:18:24Z</time>
      </trkpt>
      <trkpt lat="45.84058" lon="4.23602">
        <ele>500.041</ele>
        <time>2019-04-08T15:18:29Z</time>
      </trkpt>
      <trkpt lat="45.84055" lon="4.2361">
        <ele>500.669</ele>
        <time>2019-04-08T15:18:35Z</time>
      </trkpt>
      <trkpt lat="45.84054" lon="4.23618">
        <ele>501.167</ele>
        <time>2019-04-08T15:18:40Z</time>
      </trkpt>
      <trkpt lat="45.84053" lon="4.23623">
        <ele>501.147</ele>
        <time>2019-04-08T15:18:45Z</time>
      </trkpt>
      <trkpt lat="45.84052" lon="4.23631">
        <ele>501.144</ele>
        <time>2019-04-08T15:18:51Z</time>
      </trkpt>
      <trkpt lat="45.84051" lon="4.23636">
        <ele>501.412</ele>
        <time>2019-04-08T15:18:56Z</time>
      </trkpt>
      <trkpt lat="45.84047" lon="4.23641">
        <ele>501.599</ele>
        <time>2019-04-08T15:19:02Z</time>
      </trkpt>
      <trkpt lat="45.84045" lon="4.23645">
        <ele>501.579</ele>
        <time>2019-04-08T15:19:08Z</time>
      </trkpt>
      <trkpt lat="45.84041" lon="4.23647">
        <ele>501.746</ele>
        <time>2019-04-08T15:19:14Z</time>
      </trkpt>
      <trkpt lat="45.84038" lon="4.23649">
        <ele>501.573</ele>
        <time>2019-04-08T15:19:19Z</time>
      </trkpt>
      <trkpt lat="45.84034" lon="4.23653">
        <ele>501.296</ele>
        <time>2019-04-08T15:19:25Z</time>
      </trkpt>
      <trkpt lat="45.8403" lon="4.23656">
        <ele>500.389</ele>
        <time>2019-04-08T15:19:30Z</time>
      </trkpt>
      <trkpt lat="45.84028" lon="4.23656">
        <ele>499.689</ele>
        <time>2019-04-08T15:19:35Z</time>
      </trkpt>
      <trkpt lat="45.84023" lon="4.23656">
        <ele>499.205</ele>
        <time>2019-04-08T15:19:41Z</time>
      </trkpt>
      <trkpt lat="45.8402" lon="4.23655">
        <ele>498.195</ele>
        <time>2019-04-08T15:19:47Z</time>
      </trkpt>
      <trkpt lat="45.84016" lon="4.23653">
        <ele>497.816</ele>
        <time>2019-04-08T15:19:53Z</time>
      </trkpt>
      <trkpt lat="45.84008" lon="4.23652">
        <ele>499.025</ele>
        <time>2019-04-08T15:19:59Z</time>
      </trkpt>
      <trkpt lat="45.84004" lon="4.23651">
        <ele>499.948</ele>
        <time>2019-04-08T15:20:04Z</time>
      </trkpt>
      <trkpt lat="45.83999" lon="4.23651">
        <ele>501.169</ele>
        <time>2019-04-08T15:20:10Z</time>
      </trkpt>
      <trkpt lat="45.83996" lon="4.2365">
        <ele>502.293</ele>
        <time>2019-04-08T15:20:15Z</time>
      </trkpt>
      <trkpt lat="45.83993" lon="4.23649">
        <ele>503.483</ele>
        <time>2019-04-08T15:20:21Z</time>
      </trkpt>
      <trkpt lat="45.8399" lon="4.23648">
        <ele>504.164</ele>
        <time>2019-04-08T15:20:26Z</time>
      </trkpt>
      <trkpt lat="45.83986" lon="4.23649">
        <ele>505.567</ele>
        <time>2019-04-08T15:20:32Z</time>
      </trkpt>
      <trkpt lat="45.83982" lon="4.23649">
        <ele>506.967</ele>
        <time>2019-04-08T15:20:37Z</time>
      </trkpt>
      <trkpt lat="45.83977" lon="4.23649">
        <ele>508.599</ele>
        <time>2019-04-08T15:20:43Z</time>
      </trkpt>
      <trkpt lat="45.83972" lon="4.2365">
        <ele>510.42</ele>
        <time>2019-04-08T15:20:49Z</time>
      </trkpt>
      <trkpt lat="45.8397" lon="4.2365">
        <ele>511.614</ele>
        <time>2019-04-08T15:20:54Z</time>
      </trkpt>
      <trkpt lat="45.83965" lon="4.23649">
        <ele>513.207</ele>
        <time>2019-04-08T15:21:00Z</time>
      </trkpt>
      <trkpt lat="45.83958" lon="4.23648">
        <ele>514.353</ele>
        <time>2019-04-08T15:21:06Z</time>
      </trkpt>
      <trkpt lat="45.83951" lon="4.23652">
        <ele>515.009</ele>
        <time>2019-04-08T15:21:12Z</time>
      </trkpt>
      <trkpt lat="45.83946" lon="4.23656">
        <ele>515.499</ele>
        <time>2019-04-08T15:21:18Z</time>
      </trkpt>
      <trkpt lat="45.83941" lon="4.2366">
        <ele>516.921</ele>
        <time>2019-04-08T15:21:23Z</time>
      </trkpt>
      <trkpt lat="45.83935" lon="4.23663">
        <ele>518.445</ele>
        <time>2019-04-08T15:21:29Z</time>
      </trkpt>
      <trkpt lat="45.83929" lon="4.2367">
        <ele>519.763</ele>
        <time>2019-04-08T15:21:35Z</time>
      </trkpt>
      <trkpt lat="45.83924" lon="4.23672">
        <ele>520.73</ele>
        <time>2019-04-08T15:21:40Z</time>
      </trkpt>
      <trkpt lat="45.83918" lon="4.23674">
        <ele>522.069</ele>
        <time>2019-04-08T15:21:46Z</time>
      </trkpt>
      <trkpt lat="45.83914" lon="4.23674">
        <ele>522.733</ele>
        <time>2019-04-08T15:21:51Z</time>
      </trkpt>
      <trkpt lat="45.8391" lon="4.23671">
        <ele>523.388</ele>
        <time>2019-04-08T15:21:57Z</time>
      </trkpt>
      <trkpt lat="45.83904" lon="4.23672">
        <ele>524.403</ele>
        <time>2019-04-08T15:22:03Z</time>
      </trkpt>
      <trkpt lat="45.839" lon="4.23677">
        <ele>525.162</ele>
        <time>2019-04-08T15:22:09Z</time>
      </trkpt>
      <trkpt lat="45.83897" lon="4.2368">
        <ele>525.917</ele>
        <time>2019-04-08T15:22:14Z</time>
      </trkpt>
      <trkpt lat="45.83892" lon="4.23681">
        <ele>526.65</ele>
        <time>2019-04-08T15:22:20Z</time>
      </trkpt>
      <trkpt lat="45.83888" lon="4.23679">
        <ele>527.723</ele>
        <time>2019-04-08T15:22:25Z</time>
      </trkpt>
      <trkpt lat="45.83884" lon="4.23675">
        <ele>529.203</ele>
        <time>2019-04-08T15:22:31Z</time>
      </trkpt>
      <trkpt lat="45.83881" lon="4.23673">
        <ele>530.336</ele>
        <time>2019-04-08T15:22:36Z</time>
      </trkpt>
      <trkpt lat="45.83878" lon="4.23671">
        <ele>531.942</ele>
        <time>2019-04-08T15:22:42Z</time>
      </trkpt>
      <trkpt lat="45.83875" lon="4.23667">
        <ele>533.64</ele>
        <time>2019-04-08T15:22:47Z</time>
      </trkpt>
      <trkpt lat="45.8387" lon="4.23665">
        <ele>537.524</ele>
        <time>2019-04-08T15:22:53Z</time>
      </trkpt>
      <trkpt lat="45.83868" lon="4.23658">
        <ele>540.441</ele>
        <time>2019-04-08T15:22:59Z</time>
      </trkpt>
      <trkpt lat="45.8387" lon="4.23654">
        <ele>542.175</ele>
        <time>2019-04-08T15:23:05Z</time>
      </trkpt>
      <trkpt lat="45.83877" lon="4.23647">
        <ele>542.702</ele>
        <time>2019-04-08T15:23:11Z</time>
      </trkpt>
      <trkpt lat="45.83881" lon="4.23644">
        <ele>542.807</ele>
        <time>2019-04-08T15:23:17Z</time>
      </trkpt>
      <trkpt lat="45.83885" lon="4.2364">
        <ele>542.457</ele>
        <time>2019-04-08T15:23:23Z</time>
      </trkpt>
      <trkpt lat="45.83889" lon="4.23631">
        <ele>541.603</ele>
        <time>2019-04-08T15:23:29Z</time>
      </trkpt>
      <trkpt lat="45.8389" lon="4.2363">
        <ele>541.515</ele>
        <time>2019-04-08T15:23:35Z</time>
      </trkpt>
      <trkpt lat="45.8389" lon="4.2363">
        <ele>541.499</ele>
        <time>2019-04-08T15:23:40Z</time>
      </trkpt>
      <trkpt lat="45.8389" lon="4.2363">
        <ele>540.919</ele>
        <time>2019-04-08T15:23:46Z</time>
      </trkpt>
      <trkpt lat="45.8389" lon="4.23631">
        <ele>541.042</ele>
        <time>2019-04-08T15:23:52Z</time>
      </trkpt>
      <trkpt lat="45.83891" lon="4.23631">
        <ele>540.903</ele>
        <time>2019-04-08T15:23:57Z</time>
      </trkpt>
      <trkpt lat="45.83891" lon="4.2363">
        <ele>540.527</ele>
        <time>2019-04-08T15:24:03Z</time>
      </trkpt>
      <trkpt lat="45.8389" lon="4.23627">
        <ele>540.096</ele>
        <time>2019-04-08T15:24:09Z</time>
      </trkpt>
      <trkpt lat="45.83889" lon="4.23627">
        <ele>540.244</ele>
        <time>2019-04-08T15:24:14Z</time>
      </trkpt>
      <trkpt lat="45.83889" lon="4.23627">
        <ele>539.955</ele>
        <time>2019-04-08T15:24:20Z</time>
      </trkpt>
      <trkpt lat="45.83889" lon="4.23627">
        <ele>539.608</ele>
        <time>2019-04-08T15:24:26Z</time>
      </trkpt>
      <trkpt lat="45.83889" lon="4.23627">
        <ele>538.985</ele>
        <time>2019-04-08T15:24:32Z</time>
      </trkpt>
      <trkpt lat="45.83889" lon="4.23627">
        <ele>538.892</ele>
        <time>2019-04-08T15:24:37Z</time>
      </trkpt>
      <trkpt lat="45.83889" lon="4.23627">
        <ele>538.814</ele>
        <time>2019-04-08T15:24:42Z</time>
      </trkpt>
      <trkpt lat="45.83889" lon="4.23627">
        <ele>538.568</ele>
        <time>2019-04-08T15:24:47Z</time>
      </trkpt>
      <trkpt lat="45.83889" lon="4.23628">
        <ele>538.114</ele>
        <time>2019-04-08T15:24:53Z</time>
      </trkpt>
      <trkpt lat="45.83889" lon="4.23628">
        <ele>538.065</ele>
        <time>2019-04-08T15:24:59Z</time>
      </trkpt>
      <trkpt lat="45.83889" lon="4.23628">
        <ele>538.136</ele>
        <time>2019-04-08T15:25:05Z</time>
      </trkpt>
      <trkpt lat="45.8389" lon="4.23628">
        <ele>538.201</ele>
        <time>2019-04-08T15:25:10Z</time>
      </trkpt>
      <trkpt lat="45.8389" lon="4.23628">
        <ele>538.177</ele>
        <time>2019-04-08T15:25:15Z</time>
      </trkpt>
      <trkpt lat="45.8389" lon="4.23628">
        <ele>538.104</ele>
        <time>2019-04-08T15:25:21Z</time>
      </trkpt>
      <trkpt lat="45.8389" lon="4.23628">
        <ele>537.998</ele>
        <time>2019-04-08T15:25:26Z</time>
      </trkpt>
      <trkpt lat="45.8389" lon="4.23628">
        <ele>537.535</ele>
        <time>2019-04-08T15:25:31Z</time>
      </trkpt>
      <trkpt lat="45.8389" lon="4.23628">
        <ele>537.338</ele>
        <time>2019-04-08T15:25:37Z</time>
      </trkpt>
      <trkpt lat="45.83889" lon="4.2363">
        <ele>536.79</ele>
        <time>2019-04-08T15:25:43Z</time>
      </trkpt>
      <trkpt lat="45.83889" lon="4.2363">
        <ele>536.66</ele>
        <time>2019-04-08T15:25:48Z</time>
      </trkpt>
      <trkpt lat="45.83889" lon="4.2363">
        <ele>536.511</ele>
        <time>2019-04-08T15:25:54Z</time>
      </trkpt>
      <trkpt lat="45.83889" lon="4.23631">
        <ele>536.37</ele>
        <time>2019-04-08T15:26:00Z</time>
      </trkpt>
      <trkpt lat="45.83889" lon="4.23631">
        <ele>536.284</ele>
        <time>2019-04-08T15:26:06Z</time>
      </trkpt>
      <trkpt lat="45.83889" lon="4.23631">
        <ele>536.262</ele>
        <time>2019-04-08T15:26:12Z</time>
      </trkpt>
      <trkpt lat="45.83889" lon="4.23631">
        <ele>536.255</ele>
        <time>2019-04-08T15:26:17Z</time>
      </trkpt>
      <trkpt lat="45.8389" lon="4.2363">
        <ele>535.998</ele>
        <time>2019-04-08T15:26:22Z</time>
      </trkpt>
      <trkpt lat="45.83889" lon="4.2363">
        <ele>535.728</ele>
        <time>2019-04-08T15:26:28Z</time>
      </trkpt>
      <trkpt lat="45.8389" lon="4.23629">
        <ele>535.492</ele>
        <time>2019-04-08T15:26:33Z</time>
      </trkpt>
      <trkpt lat="45.83889" lon="4.23628">
        <ele>535.204</ele>
        <time>2019-04-08T15:26:39Z</time>
      </trkpt>
      <trkpt lat="45.83888" lon="4.23627">
        <ele>534.749</ele>
        <time>2019-04-08T15:26:45Z</time>
      </trkpt>
      <trkpt lat="45.83884" lon="4.23629">
        <ele>535.118</ele>
        <time>2019-04-08T15:26:51Z</time>
      </trkpt>
      <trkpt lat="45.83879" lon="4.2363">
        <ele>535.686</ele>
        <time>2019-04-08T15:26:56Z</time>
      </trkpt>
      <trkpt lat="45.83875" lon="4.23633">
        <ele>536.533</ele>
        <time>2019-04-08T15:27:02Z</time>
      </trkpt>
      <trkpt lat="45.83875" lon="4.23634">
        <ele>536.836</ele>
        <time>2019-04-08T15:27:07Z</time>
      </trkpt>
      <trkpt lat="45.83875" lon="4.23635">
        <ele>537.23</ele>
        <time>2019-04-08T15:27:38Z</time>
      </trkpt>
      <trkpt lat="45.83875" lon="4.23635">
        <ele>537.132</ele>
        <time>2019-04-08T15:27:47Z</time>
      </trkpt>
      <trkpt lat="45.83875" lon="4.23635">
        <ele>537.129</ele>
        <time>2019-04-08T15:27:52Z</time>
      </trkpt>
      <trkpt lat="45.83875" lon="4.23635">
        <ele>537.125</ele>
        <time>2019-04-08T15:27:58Z</time>
      </trkpt>
      <trkpt lat="45.83875" lon="4.23635">
        <ele>537.148</ele>
        <time>2019-04-08T15:28:09Z</time>
      </trkpt>
      <trkpt lat="45.83875" lon="4.23635">
        <ele>537.148</ele>
        <time>2019-04-08T15:28:18Z</time>
      </trkpt>
      <trkpt lat="45.83877" lon="4.23638">
        <ele>537.246</ele>
        <time>2019-04-08T15:28:24Z</time>
      </trkpt>
      <trkpt lat="45.83877" lon="4.23638">
        <ele>537.252</ele>
        <time>2019-04-08T15:28:31Z</time>
      </trkpt>
    </trkseg>
  </trk>
</gpx>